GFSNW_prec_precacc_093.txt.gz
Total_Precipitation_Accumulation
0.62 0.72 0.97 0.86 0.97 1.26 1.44 1.32 1.89 1.81 1.83 3.56 2.32 1.39 1.19 1.14 1.41 1.57 1.12 0.60 0.30 0.25 0.32 0.45 0.53 0.57 0.75 0.47 0.28 0.24 0.32 0.70 0.81 0.63 0.22 0.19 0.38 0.47 0.55 0.84 0.45 0.46 0.44 0.21
0.52 0.70 0.85 0.83 1.25 1.65 1.99 1.58 1.63 2.48 1.39 1.57 0.93 0.90 1.25 1.38 1.48 1.42 0.99 0.60 0.29 0.20 0.21 0.33 0.24 0.28 0.28 0.23 0.15 0.07 0.21 0.61 0.68 0.78 0.54 0.38 0.61 0.47 0.57 0.60 0.79 0.71 0.57 0.14
0.45 0.59 0.65 0.78 1.09 1.46 1.62 1.66 2.02 3.14 2.64 0.70 0.38 0.77 1.18 1.23 1.16 1.10 0.74 0.66 0.36 0.29 0.20 0.10 0.06 0.08 0.16 0.29 0.35 0.19 0.18 0.29 0.52 0.57 0.52 0.53 0.68 0.49 0.50 0.85 0.98 0.36 0.24 0.04
0.48 0.51 0.39 0.53 0.71 1.06 1.00 1.15 1.03 0.91 1.00 0.43 0.24 0.72 1.03 1.22 1.28 0.83 0.79 0.74 0.31 0.24 0.21 0.08 0.05 0.02 0.11 0.24 0.48 0.50 0.41 0.37 0.55 0.59 0.34 0.35 0.77 0.60 0.53 0.86 0.42 0.36 0.08 0.04
0.43 0.43 0.37 0.41 0.58 1.20 1.11 0.88 0.57 0.23 0.13 0.07 0.13 0.48 0.91 1.21 0.79 0.68 0.68 0.53 0.28 0.28 0.18 0.06 0.02 0.01 0.03 0.12 0.29 0.44 0.34 0.34 0.34 0.49 0.45 0.69 0.55 0.33 0.41 0.31 0.25 0.24 0.05 0.03
0.51 0.46 0.61 0.74 1.05 1.71 1.57 0.80 0.47 0.28 0.16 0.12 0.23 0.31 0.68 0.75 0.71 0.63 0.34 0.38 0.35 0.21 0.11 0.08 0.04 0.06 0.03 0.01 0.08 0.14 0.18 0.17 0.24 0.54 0.51 0.55 0.50 0.39 0.23 0.17 0.13 0.11 0.08 0.02
0.48 0.40 0.48 0.52 0.60 1.02 1.29 0.75 0.65 0.38 0.21 0.09 0.14 0.17 0.39 0.60 0.64 0.69 0.44 0.36 0.34 0.15 0.14 0.13 0.06 0.05 0.05 0.04 0.01 0.02 0.09 0.06 0.18 0.29 0.19 0.35 0.24 0.29 0.42 0.23 0.05 0.03 0.05 0.01
0.39 0.31 0.40 0.60 0.65 0.80 0.70 0.57 0.67 0.38 0.26 0.09 0.11 0.12 0.23 0.42 0.49 0.59 0.50 0.33 0.28 0.24 0.35 0.29 0.17 0.21 0.21 0.11 0.04 0.02 0.02 0.09 0.18 0.25 0.17 0.07 0.05 0.12 0.17 0.12 0.04 0.03 0.04 0.01
0.32 0.23 0.19 0.25 0.28 0.35 0.46 0.61 0.64 0.41 0.28 0.12 0.06 0.08 0.13 0.45 0.64 0.72 0.53 0.37 0.20 0.29 0.45 0.32 0.18 0.28 0.16 0.09 0.04 0.03 0.04 0.05 0.27 0.22 0.13 0.01 0.01 0.00 0.00 0.13 0.26 0.04 0.02 0.02
0.32 0.33 0.27 0.25 0.30 0.38 0.38 0.56 0.57 0.51 0.31 0.04 0.05 0.09 0.15 0.36 0.69 0.87 0.61 0.41 0.37 0.41 0.54 0.29 0.06 0.07 0.03 0.04 0.02 0.05 0.15 0.16 0.21 0.17 0.19 0.00 0.00 0.00 0.00 0.04 0.11 0.06 0.03 0.01
0.37 0.42 0.29 0.23 0.24 0.39 0.35 0.30 0.51 0.48 0.30 0.06 0.03 0.06 0.13 0.14 0.43 1.05 0.83 0.57 0.48 0.47 0.54 0.30 0.06 0.01 0.01 0.01 0.00 0.00 0.05 0.07 0.07 0.06 0.07 0.00 0.00 0.00 0.01 0.00 0.00 0.00 0.00 0.01
0.27 0.34 0.27 0.24 0.26 0.46 0.49 0.26 0.32 0.50 0.38 0.10 0.04 0.04 0.06 0.10 0.26 0.71 0.82 0.58 0.46 0.29 0.33 0.15 0.05 0.02 0.01 0.00 0.01 0.00 0.00 0.00 0.00 0.00 0.00 0.00 0.00 0.00 0.00 0.00 0.00 0.00 0.00 0.00
0.25 0.27 0.27 0.25 0.25 0.45 0.61 0.29 0.30 0.46 0.40 0.13 0.05 0.03 0.02 0.02 0.12 0.30 0.78 0.69 0.56 0.43 0.17 0.22 0.10 0.05 0.02 0.02 0.00 0.00 0.00 0.00 0.00 0.00 0.00 0.00 0.00 0.00 0.00 0.00 0.00 0.00 0.00 0.00
0.21 0.24 0.31 0.26 0.26 0.40 0.56 0.25 0.31 0.41 0.34 0.19 0.04 0.02 0.04 0.04 0.15 0.29 0.51 0.73 0.52 0.46 0.27 0.41 0.31 0.14 0.02 0.02 0.01 0.00 0.00 0.00 0.00 0.00 0.00 0.00 0.00 0.00 0.00 0.00 0.00 0.00 0.00 0.00
0.20 0.26 0.26 0.22 0.26 0.43 0.41 0.17 0.40 0.33 0.42 0.50 0.09 0.03 0.04 0.02 0.16 0.34 0.51 0.77 0.58 0.51 0.48 0.35 0.27 0.19 0.09 0.03 0.00 0.00 0.00 0.00 0.00 0.00 0.00 0.00 0.00 0.00 0.00 0.00 0.00 0.00 0.00 0.00
0.17 0.18 0.19 0.22 0.33 0.68 0.55 0.46 0.43 0.46 0.41 0.75 0.22 0.03 0.03 0.02 0.21 0.45 0.53 0.54 0.51 0.55 0.54 0.36 0.18 0.12 0.15 0.13 0.04 0.00 0.00 0.00 0.00 0.00 0.00 0.00 0.00 0.00 0.00 0.00 0.00 0.00 0.00 0.01
0.19 0.20 0.21 0.27 0.47 0.63 0.67 0.35 0.46 0.42 0.65 0.63 0.21 0.09 0.06 0.06 0.26 0.52 0.64 0.43 0.47 0.65 0.71 0.42 0.18 0.16 0.26 0.17 0.02 0.00 0.00 0.00 0.00 0.00 0.00 0.00 0.00 0.00 0.00 0.00 0.01 0.04 0.05 0.04
0.27 0.32 0.45 0.48 0.59 0.64 0.39 0.13 0.32 0.57 0.86 0.58 0.36 0.13 0.10 0.16 0.54 0.67 0.63 0.62 0.54 0.69 0.57 0.34 0.17 0.18 0.31 0.24 0.01 0.00 0.00 0.00 0.00 0.00 0.00 0.00 0.00 0.00 0.01 0.04 0.09 0.10 0.06 0.02
0.51 0.54 0.56 0.64 0.39 0.28 0.27 0.33 0.57 0.54 0.96 0.94 0.38 0.22 0.27 0.22 0.57 0.58 0.71 0.64 0.74 0.53 0.34 0.24 0.35 0.25 0.15 0.02 0.00 0.00 0.00 0.00 0.00 0.00 0.00 0.00 0.00 0.02 0.07 0.12 0.09 0.03 0.01 0.00
0.71 0.83 0.77 0.61 0.30 0.51 0.85 0.95 0.99 1.15 0.73 0.38 0.28 0.12 0.29 0.29 0.49 0.53 0.73 0.70 0.67 0.51 0.28 0.30 0.36 0.23 0.08 0.02 0.00 0.00 0.00 0.00 0.00 0.00 0.00 0.01 0.04 0.07 0.05 0.02 0.00 0.00 0.00 0.00
1.24 1.27 0.88 0.76 0.91 1.20 1.18 0.99 0.68 0.55 0.41 0.17 0.11 0.14 0.32 0.27 0.59 0.68 0.52 0.78 0.55 0.49 0.35 0.59 0.47 0.28 0.07 0.00 0.00 0.00 0.00 0.00 0.00 0.00 0.00 0.00 0.01 0.00 0.00 0.00 0.00 0.00 0.00 0.00
0.92 0.74 0.93 0.89 0.89 1.01 0.83 0.63 0.40 0.28 0.14 0.22 0.30 0.26 0.28 0.34 0.47 0.75 0.77 0.57 0.69 0.41 0.36 0.56 0.35 0.11 0.00 0.00 0.00 0.00 0.00 0.00 0.00 0.00 0.00 0.00 0.00 0.00 0.00 0.01 0.00 0.00 0.00 0.00
1.15 1.55 1.54 0.93 0.75 0.51 0.37 0.45 0.55 0.51 0.38 0.43 0.44 0.41 0.28 0.42 0.63 0.57 0.72 0.69 0.43 0.29 0.37 0.19 0.05 0.02 0.00 0.00 0.00 0.02 0.04 0.01 0.01 0.01 0.01 0.01 0.01 0.03 0.03 0.04 0.02 0.01 0.01 0.02
2.30 2.12 1.46 0.45 0.52 0.18 0.34 0.35 0.37 0.45 0.47 0.46 0.48 0.58 0.46 0.40 0.62 0.51 0.38 0.36 0.41 0.31 0.12 0.07 0.08 0.05 0.02 0.03 0.05 0.05 0.12 0.21 0.21 0.15 0.08 0.06 0.06 0.07 0.08 0.08 0.07 0.04 0.03 0.04
1.98 1.12 0.50 0.18 0.10 0.07 0.18 0.23 0.24 0.31 0.36 0.38 0.44 0.51 0.44 0.55 0.63 0.43 0.35 0.41 0.28 0.11 0.13 0.25 0.18 0.13 0.10 0.14 0.17 0.16 0.16 0.28 0.41 0.48 0.45 0.43 0.36 0.33 0.26 0.16 0.12 0.12 0.07 0.05
1.54 0.80 0.26 0.06 0.03 0.05 0.12 0.18 0.23 0.29 0.32 0.29 0.34 0.34 0.45 0.56 0.51 0.46 0.43 0.46 0.35 0.31 0.35 0.37 0.28 0.30 0.28 0.26 0.19 0.14 0.09 0.05 0.06 0.09 0.14 0.16 0.17 0.22 0.24 0.22 0.19 0.21 0.20 0.16
1.27 0.39 0.04 0.02 0.03 0.06 0.12 0.17 0.18 0.14 0.19 0.29 0.31 0.26 0.30 0.39 0.48 0.49 0.54 0.60 0.42 0.22 0.12 0.23 0.25 0.32 0.37 0.40 0.29 0.23 0.11 0.03 0.00 0.00 0.01 0.01 0.00 0.00 0.01 0.02 0.06 0.10 0.21 0.28

GFSNW_prec_precacc_096.txt.gz
Total_Precipitation_Accumulation
0.62 0.72 0.97 0.86 0.97 1.26 1.44 1.32 1.89 1.81 1.83 3.56 2.32 1.39 1.19 1.15 1.41 1.58 1.13 0.63 0.31 0.26 0.33 0.51 0.60 0.69 0.86 0.49 0.28 0.24 0.32 0.70 0.82 0.63 0.22 0.20 0.39 0.47 0.55 0.85 0.45 0.46 0.44 0.21
0.52 0.70 0.85 0.83 1.25 1.65 1.99 1.58 1.63 2.48 1.39 1.57 0.93 0.90 1.25 1.38 1.48 1.42 0.99 0.61 0.30 0.20 0.21 0.35 0.28 0.37 0.34 0.23 0.15 0.07 0.21 0.61 0.68 0.78 0.54 0.39 0.62 0.47 0.57 0.60 0.79 0.71 0.57 0.14
0.45 0.59 0.65 0.78 1.09 1.46 1.62 1.66 2.02 3.14 2.64 0.70 0.38 0.77 1.18 1.23 1.16 1.11 0.75 0.67 0.36 0.30 0.20 0.10 0.07 0.11 0.21 0.30 0.35 0.19 0.18 0.29 0.52 0.57 0.52 0.53 0.69 0.49 0.50 0.85 0.98 0.36 0.24 0.04
0.48 0.51 0.39 0.53 0.71 1.06 1.00 1.15 1.03 0.91 1.00 0.43 0.24 0.72 1.03 1.22 1.28 0.83 0.79 0.75 0.31 0.25 0.22 0.08 0.05 0.04 0.17 0.28 0.49 0.50 0.41 0.37 0.55 0.59 0.34 0.35 0.77 0.60 0.53 0.86 0.42 0.36 0.08 0.04
0.43 0.43 0.37 0.41 0.58 1.20 1.11 0.88 0.57 0.23 0.13 0.07 0.13 0.48 0.91 1.21 0.79 0.68 0.68 0.53 0.28 0.28 0.19 0.07 0.04 0.04 0.09 0.19 0.34 0.45 0.34 0.35 0.35 0.50 0.45 0.69 0.55 0.33 0.41 0.31 0.25 0.24 0.05 0.03
0.51 0.46 0.61 0.74 1.05 1.71 1.57 0.80 0.47 0.28 0.16 0.12 0.23 0.31 0.68 0.75 0.71 0.63 0.34 0.38 0.35 0.21 0.11 0.08 0.04 0.07 0.03 0.02 0.15 0.17 0.20 0.17 0.25 0.57 0.51 0.56 0.50 0.39 0.23 0.17 0.13 0.11 0.08 0.02
0.48 0.40 0.48 0.52 0.60 1.02 1.29 0.75 0.65 0.38 0.21 0.09 0.14 0.17 0.39 0.60 0.64 0.69 0.44 0.36 0.34 0.15 0.14 0.13 0.06 0.05 0.05 0.04 0.03 0.07 0.15 0.09 0.18 0.30 0.20 0.36 0.24 0.29 0.42 0.23 0.05 0.03 0.05 0.01
0.39 0.31 0.40 0.60 0.65 0.80 0.70 0.57 0.67 0.38 0.26 0.09 0.11 0.12 0.23 0.42 0.49 0.59 0.50 0.33 0.28 0.24 0.35 0.29 0.17 0.21 0.21 0.11 0.04 0.03 0.03 0.09 0.18 0.25 0.17 0.07 0.05 0.12 0.17 0.12 0.04 0.03 0.04 0.01
0.32 0.23 0.19 0.25 0.28 0.35 0.46 0.61 0.64 0.41 0.28 0.12 0.06 0.08 0.13 0.45 0.64 0.72 0.53 0.37 0.20 0.29 0.45 0.32 0.18 0.28 0.16 0.09 0.04 0.03 0.04 0.05 0.27 0.22 0.13 0.01 0.01 0.00 0.00 0.13 0.26 0.04 0.02 0.02
0.32 0.33 0.27 0.25 0.30 0.38 0.38 0.56 0.57 0.51 0.31 0.04 0.05 0.09 0.15 0.36 0.69 0.87 0.61 0.41 0.37 0.41 0.54 0.29 0.06 0.07 0.03 0.04 0.02 0.05 0.15 0.16 0.21 0.17 0.19 0.00 0.00 0.00 0.00 0.04 0.11 0.06 0.03 0.01
0.37 0.42 0.29 0.23 0.24 0.39 0.35 0.30 0.51 0.48 0.30 0.06 0.03 0.06 0.13 0.14 0.43 1.05 0.83 0.57 0.48 0.48 0.54 0.30 0.06 0.01 0.01 0.01 0.00 0.00 0.05 0.07 0.07 0.06 0.07 0.00 0.00 0.00 0.01 0.00 0.00 0.00 0.00 0.01
0.27 0.34 0.27 0.24 0.26 0.46 0.49 0.26 0.32 0.50 0.38 0.10 0.04 0.04 0.06 0.10 0.26 0.71 0.82 0.58 0.46 0.30 0.33 0.15 0.06 0.02 0.01 0.00 0.01 0.00 0.00 0.00 0.00 0.00 0.00 0.00 0.00 0.00 0.00 0.00 0.00 0.00 0.00 0.00
0.25 0.27 0.27 0.26 0.25 0.45 0.61 0.29 0.30 0.46 0.40 0.13 0.05 0.03 0.02 0.02 0.12 0.30 0.78 0.69 0.56 0.43 0.17 0.22 0.10 0.06 0.02 0.02 0.00 0.00 0.00 0.00 0.00 0.00 0.00 0.00 0.00 0.00 0.00 0.00 0.00 0.00 0.00 0.00
0.21 0.24 0.31 0.26 0.26 0.40 0.56 0.25 0.31 0.41 0.34 0.19 0.04 0.02 0.04 0.04 0.15 0.29 0.51 0.73 0.52 0.46 0.27 0.41 0.31 0.15 0.02 0.02 0.01 0.00 0.00 0.00 0.00 0.00 0.00 0.00 0.00 0.00 0.00 0.00 0.00 0.00 0.00 0.00
0.20 0.26 0.26 0.22 0.26 0.44 0.41 0.17 0.40 0.33 0.42 0.50 0.09 0.03 0.04 0.02 0.16 0.34 0.51 0.77 0.58 0.51 0.48 0.35 0.27 0.20 0.09 0.03 0.00 0.00 0.00 0.00 0.00 0.00 0.00 0.00 0.00 0.00 0.00 0.00 0.00 0.00 0.00 0.00
0.17 0.18 0.19 0.22 0.33 0.68 0.55 0.46 0.43 0.46 0.41 0.75 0.22 0.03 0.03 0.02 0.21 0.45 0.53 0.54 0.51 0.55 0.54 0.36 0.18 0.12 0.15 0.15 0.04 0.00 0.00 0.00 0.00 0.00 0.00 0.00 0.00 0.00 0.00 0.00 0.00 0.00 0.00 0.01
0.19 0.20 0.22 0.27 0.47 0.63 0.67 0.35 0.46 0.42 0.65 0.63 0.21 0.09 0.06 0.06 0.26 0.52 0.64 0.43 0.47 0.65 0.71 0.42 0.18 0.16 0.27 0.17 0.02 0.00 0.00 0.00 0.00 0.00 0.00 0.00 0.00 0.00 0.00 0.00 0.01 0.04 0.05 0.04
0.27 0.33 0.46 0.49 0.59 0.64 0.39 0.13 0.32 0.57 0.86 0.58 0.36 0.13 0.10 0.16 0.54 0.67 0.63 0.62 0.54 0.69 0.57 0.34 0.18 0.18 0.32 0.24 0.01 0.00 0.00 0.00 0.00 0.00 0.00 0.00 0.00 0.00 0.01 0.04 0.09 0.10 0.06 0.02
0.51 0.54 0.56 0.64 0.39 0.28 0.27 0.33 0.57 0.54 0.96 0.94 0.38 0.22 0.27 0.22 0.57 0.58 0.72 0.65 0.74 0.53 0.34 0.24 0.36 0.26 0.15 0.02 0.00 0.00 0.00 0.00 0.00 0.00 0.00 0.00 0.00 0.02 0.07 0.12 0.09 0.03 0.01 0.00
0.71 0.83 0.77 0.61 0.30 0.51 0.85 0.95 0.99 1.15 0.73 0.38 0.28 0.12 0.29 0.29 0.49 0.53 0.73 0.71 0.68 0.53 0.28 0.31 0.37 0.23 0.08 0.02 0.00 0.00 0.00 0.00 0.00 0.00 0.00 0.01 0.04 0.07 0.05 0.02 0.00 0.00 0.00 0.00
1.24 1.27 0.88 0.76 0.92 1.20 1.18 0.99 0.68 0.55 0.41 0.17 0.11 0.14 0.32 0.27 0.59 0.68 0.52 0.78 0.56 0.51 0.36 0.60 0.48 0.30 0.08 0.00 0.00 0.00 0.00 0.00 0.00 0.00 0.00 0.00 0.01 0.00 0.00 0.00 0.00 0.00 0.00 0.00
0.92 0.74 0.93 0.89 0.89 1.01 0.83 0.63 0.40 0.28 0.14 0.22 0.30 0.26 0.28 0.34 0.48 0.76 0.77 0.58 0.70 0.42 0.37 0.59 0.36 0.13 0.02 0.01 0.00 0.00 0.00 0.00 0.00 0.00 0.00 0.00 0.00 0.00 0.00 0.01 0.00 0.00 0.00 0.00
1.15 1.55 1.54 0.93 0.75 0.51 0.37 0.45 0.55 0.51 0.38 0.43 0.44 0.41 0.28 0.42 0.64 0.57 0.73 0.70 0.43 0.31 0.40 0.22 0.08 0.04 0.02 0.02 0.02 0.02 0.04 0.01 0.01 0.01 0.01 0.01 0.01 0.03 0.03 0.04 0.02 0.01 0.01 0.02
2.31 2.12 1.47 0.46 0.53 0.18 0.34 0.35 0.37 0.45 0.47 0.46 0.48 0.58 0.46 0.40 0.62 0.51 0.38 0.36 0.42 0.35 0.15 0.10 0.09 0.05 0.02 0.03 0.07 0.07 0.13 0.22 0.22 0.15 0.08 0.06 0.06 0.07 0.08 0.08 0.07 0.04 0.03 0.04
1.98 1.13 0.51 0.18 0.10 0.07 0.18 0.23 0.24 0.31 0.36 0.38 0.44 0.51 0.44 0.55 0.63 0.43 0.35 0.41 0.31 0.14 0.14 0.25 0.18 0.13 0.10 0.14 0.18 0.18 0.19 0.32 0.44 0.48 0.45 0.43 0.36 0.33 0.26 0.16 0.12 0.12 0.07 0.05
1.54 0.80 0.26 0.07 0.03 0.06 0.12 0.18 0.23 0.29 0.32 0.29 0.34 0.34 0.45 0.56 0.51 0.47 0.43 0.47 0.36 0.31 0.35 0.37 0.28 0.30 0.28 0.26 0.19 0.16 0.13 0.10 0.09 0.10 0.14 0.16 0.17 0.22 0.24 0.22 0.19 0.21 0.20 0.16
1.27 0.39 0.04 0.02 0.03 0.06 0.12 0.17 0.18 0.14 0.19 0.29 0.31 0.26 0.30 0.39 0.49 0.49 0.54 0.60 0.42 0.22 0.12 0.23 0.25 0.32 0.37 0.40 0.30 0.27 0.20 0.13 0.07 0.04 0.04 0.04 0.03 0.01 0.01 0.02 0.06 0.10 0.21 0.28

GFSNW_prec_precacc_099.txt.gz
Total_Precipitation_Accumulation
0.62 0.72 0.97 0.86 0.97 1.26 1.44 1.32 1.89 1.81 1.83 3.56 2.32 1.39 1.19 1.15 1.41 1.58 1.14 0.64 0.32 0.26 0.34 0.53 0.67 0.77 0.89 0.50 0.28 0.24 0.32 0.71 0.82 0.63 0.22 0.21 0.43 0.48 0.55 0.88 0.46 0.46 0.45 0.21
0.52 0.70 0.85 0.83 1.25 1.65 1.99 1.58 1.63 2.48 1.39 1.57 0.93 0.90 1.25 1.38 1.48 1.42 0.99 0.61 0.30 0.20 0.22 0.38 0.32 0.40 0.35 0.24 0.15 0.07 0.21 0.61 0.68 0.78 0.54 0.39 0.62 0.47 0.57 0.60 0.80 0.71 0.58 0.14
0.45 0.59 0.65 0.78 1.09 1.46 1.62 1.66 2.02 3.14 2.64 0.70 0.38 0.77 1.18 1.23 1.16 1.11 0.75 0.67 0.36 0.30 0.20 0.11 0.08 0.14 0.22 0.30 0.35 0.19 0.18 0.29 0.52 0.57 0.52 0.53 0.69 0.49 0.50 0.85 0.98 0.37 0.24 0.04
0.48 0.51 0.39 0.53 0.71 1.06 1.00 1.15 1.03 0.91 1.00 0.43 0.24 0.72 1.03 1.22 1.28 0.83 0.79 0.75 0.31 0.25 0.23 0.08 0.06 0.07 0.18 0.28 0.49 0.50 0.41 0.37 0.55 0.59 0.34 0.35 0.77 0.60 0.53 0.86 0.42 0.37 0.08 0.04
0.43 0.43 0.37 0.41 0.58 1.20 1.11 0.88 0.57 0.23 0.13 0.07 0.13 0.48 0.91 1.21 0.79 0.68 0.68 0.53 0.28 0.28 0.19 0.08 0.05 0.07 0.12 0.25 0.36 0.45 0.34 0.35 0.35 0.50 0.45 0.69 0.55 0.33 0.41 0.31 0.25 0.24 0.05 0.03
0.51 0.46 0.61 0.74 1.05 1.71 1.57 0.80 0.47 0.28 0.16 0.12 0.23 0.31 0.68 0.75 0.71 0.63 0.34 0.38 0.35 0.21 0.11 0.08 0.04 0.07 0.04 0.06 0.19 0.17 0.20 0.17 0.27 0.63 0.53 0.56 0.50 0.39 0.23 0.17 0.13 0.11 0.08 0.02
0.48 0.40 0.48 0.52 0.60 1.02 1.29 0.75 0.65 0.38 0.21 0.09 0.14 0.17 0.39 0.60 0.64 0.69 0.44 0.36 0.34 0.15 0.14 0.13 0.06 0.05 0.05 0.04 0.05 0.10 0.15 0.10 0.19 0.35 0.22 0.38 0.25 0.29 0.42 0.23 0.05 0.03 0.05 0.01
0.39 0.31 0.40 0.60 0.65 0.80 0.70 0.57 0.67 0.38 0.26 0.09 0.11 0.12 0.23 0.42 0.49 0.59 0.50 0.33 0.28 0.24 0.35 0.29 0.18 0.21 0.21 0.11 0.04 0.05 0.05 0.10 0.19 0.27 0.19 0.08 0.05 0.12 0.17 0.12 0.04 0.03 0.04 0.01
0.32 0.23 0.19 0.25 0.28 0.35 0.46 0.61 0.64 0.41 0.28 0.12 0.06 0.08 0.13 0.45 0.64 0.72 0.53 0.37 0.20 0.29 0.45 0.32 0.19 0.29 0.16 0.09 0.05 0.03 0.04 0.05 0.28 0.22 0.13 0.01 0.01 0.00 0.00 0.13 0.26 0.04 0.02 0.02
0.32 0.33 0.27 0.25 0.30 0.38 0.38 0.56 0.57 0.51 0.31 0.04 0.05 0.09 0.15 0.36 0.69 0.87 0.61 0.41 0.37 0.41 0.54 0.29 0.06 0.07 0.03 0.04 0.02 0.05 0.16 0.16 0.21 0.18 0.19 0.00 0.00 0.00 0.00 0.04 0.11 0.06 0.03 0.01
0.37 0.42 0.29 0.23 0.24 0.39 0.35 0.30 0.51 0.48 0.30 0.06 0.03 0.06 0.13 0.14 0.43 1.05 0.83 0.57 0.48 0.48 0.54 0.30 0.06 0.01 0.01 0.01 0.00 0.00 0.05 0.07 0.07 0.06 0.07 0.00 0.00 0.00 0.01 0.01 0.00 0.00 0.00 0.01
0.27 0.34 0.27 0.24 0.26 0.46 0.49 0.26 0.32 0.50 0.38 0.10 0.04 0.04 0.06 0.10 0.26 0.71 0.82 0.58 0.46 0.30 0.33 0.15 0.06 0.02 0.01 0.00 0.01 0.00 0.00 0.00 0.00 0.00 0.00 0.00 0.00 0.00 0.00 0.00 0.00 0.00 0.00 0.00
0.25 0.27 0.27 0.26 0.25 0.45 0.61 0.29 0.30 0.46 0.40 0.13 0.05 0.03 0.02 0.02 0.12 0.30 0.78 0.69 0.57 0.43 0.17 0.22 0.10 0.06 0.02 0.02 0.01 0.00 0.00 0.00 0.00 0.00 0.00 0.00 0.00 0.00 0.00 0.00 0.00 0.00 0.00 0.00
0.21 0.24 0.31 0.26 0.26 0.40 0.56 0.25 0.31 0.41 0.34 0.19 0.04 0.02 0.04 0.04 0.15 0.29 0.51 0.73 0.52 0.46 0.27 0.41 0.31 0.15 0.03 0.02 0.01 0.00 0.00 0.00 0.00 0.00 0.00 0.00 0.00 0.00 0.00 0.01 0.00 0.00 0.00 0.00
0.20 0.26 0.26 0.22 0.26 0.44 0.41 0.17 0.40 0.33 0.42 0.50 0.09 0.03 0.04 0.02 0.16 0.34 0.51 0.77 0.58 0.51 0.48 0.35 0.27 0.20 0.09 0.03 0.00 0.00 0.00 0.00 0.00 0.00 0.00 0.00 0.00 0.00 0.00 0.00 0.00 0.00 0.00 0.00
0.17 0.18 0.19 0.22 0.33 0.68 0.55 0.46 0.43 0.46 0.41 0.75 0.22 0.03 0.03 0.02 0.21 0.45 0.53 0.54 0.51 0.55 0.54 0.36 0.18 0.12 0.16 0.16 0.04 0.00 0.00 0.00 0.00 0.00 0.00 0.00 0.00 0.00 0.00 0.00 0.00 0.00 0.00 0.01
0.19 0.20 0.22 0.27 0.47 0.63 0.67 0.35 0.46 0.42 0.65 0.63 0.21 0.09 0.06 0.06 0.26 0.52 0.64 0.43 0.47 0.65 0.71 0.42 0.18 0.16 0.28 0.18 0.02 0.00 0.00 0.00 0.00 0.00 0.00 0.00 0.00 0.00 0.00 0.00 0.01 0.04 0.05 0.04
0.27 0.33 0.46 0.49 0.59 0.64 0.39 0.13 0.32 0.57 0.86 0.58 0.36 0.13 0.10 0.16 0.54 0.67 0.63 0.62 0.54 0.69 0.57 0.34 0.18 0.19 0.32 0.25 0.01 0.00 0.00 0.00 0.00 0.00 0.00 0.00 0.00 0.00 0.01 0.04 0.09 0.10 0.06 0.02
0.51 0.55 0.57 0.64 0.39 0.28 0.27 0.33 0.57 0.54 0.96 0.94 0.38 0.22 0.27 0.22 0.57 0.58 0.72 0.65 0.74 0.54 0.34 0.24 0.36 0.26 0.16 0.03 0.00 0.00 0.00 0.00 0.00 0.00 0.00 0.00 0.00 0.02 0.07 0.12 0.09 0.03 0.01 0.00
0.72 0.83 0.77 0.61 0.30 0.51 0.85 0.95 0.99 1.15 0.73 0.38 0.28 0.12 0.29 0.29 0.49 0.53 0.73 0.72 0.69 0.54 0.29 0.31 0.37 0.24 0.08 0.02 0.00 0.00 0.00 0.00 0.00 0.00 0.00 0.01 0.04 0.07 0.05 0.02 0.00 0.00 0.00 0.00
1.24 1.27 0.88 0.76 0.92 1.20 1.18 0.99 0.68 0.55 0.41 0.17 0.11 0.14 0.32 0.27 0.59 0.68 0.52 0.78 0.57 0.52 0.36 0.61 0.48 0.31 0.09 0.00 0.00 0.00 0.00 0.00 0.00 0.00 0.00 0.00 0.01 0.00 0.00 0.00 0.00 0.00 0.00 0.00
0.92 0.74 0.93 0.89 0.89 1.01 0.83 0.63 0.40 0.28 0.14 0.22 0.30 0.26 0.28 0.34 0.48 0.76 0.77 0.58 0.70 0.42 0.38 0.61 0.37 0.14 0.02 0.01 0.01 0.00 0.00 0.00 0.00 0.00 0.00 0.00 0.00 0.00 0.00 0.01 0.00 0.00 0.00 0.00
1.15 1.55 1.54 0.93 0.76 0.51 0.37 0.46 0.55 0.51 0.38 0.43 0.44 0.41 0.28 0.42 0.64 0.57 0.73 0.70 0.43 0.31 0.41 0.23 0.08 0.04 0.02 0.02 0.03 0.03 0.05 0.01 0.01 0.01 0.01 0.01 0.01 0.03 0.03 0.04 0.02 0.01 0.01 0.02
2.31 2.12 1.47 0.46 0.53 0.19 0.35 0.35 0.37 0.45 0.47 0.46 0.48 0.58 0.46 0.40 0.62 0.51 0.38 0.36 0.42 0.36 0.16 0.11 0.09 0.05 0.02 0.03 0.07 0.07 0.13 0.23 0.23 0.15 0.08 0.06 0.06 0.07 0.08 0.08 0.07 0.04 0.03 0.04
1.98 1.13 0.51 0.18 0.10 0.08 0.18 0.23 0.24 0.31 0.36 0.38 0.44 0.51 0.44 0.55 0.63 0.43 0.35 0.42 0.31 0.15 0.14 0.25 0.18 0.13 0.10 0.14 0.18 0.18 0.20 0.34 0.46 0.49 0.45 0.43 0.36 0.33 0.26 0.16 0.12 0.12 0.07 0.05
1.54 0.80 0.26 0.07 0.04 0.06 0.12 0.18 0.23 0.29 0.32 0.29 0.34 0.34 0.45 0.56 0.51 0.47 0.43 0.47 0.36 0.31 0.35 0.37 0.28 0.30 0.28 0.26 0.19 0.16 0.13 0.11 0.12 0.12 0.14 0.16 0.17 0.22 0.24 0.22 0.19 0.21 0.20 0.16
1.27 0.39 0.04 0.02 0.03 0.07 0.12 0.17 0.18 0.14 0.19 0.29 0.31 0.26 0.30 0.39 0.49 0.49 0.54 0.60 0.42 0.22 0.12 0.23 0.25 0.32 0.37 0.40 0.30 0.27 0.20 0.14 0.09 0.07 0.06 0.06 0.06 0.07 0.06 0.05 0.07 0.10 0.21 0.28

GFSNW_prec_precacc_102.txt.gz
Total_Precipitation_Accumulation
0.62 0.72 0.97 0.86 0.97 1.26 1.44 1.32 1.89 1.81 1.83 3.56 2.32 1.39 1.19 1.15 1.41 1.58 1.15 0.64 0.33 0.27 0.34 0.61 0.72 0.80 0.91 0.50 0.28 0.24 0.32 0.71 0.82 0.63 0.22 0.21 0.44 0.49 0.56 0.97 0.49 0.47 0.47 0.23
0.52 0.70 0.85 0.83 1.25 1.65 1.99 1.58 1.63 2.48 1.39 1.57 0.93 0.90 1.25 1.38 1.48 1.42 1.00 0.62 0.31 0.20 0.22 0.45 0.34 0.41 0.35 0.24 0.15 0.07 0.21 0.61 0.68 0.78 0.55 0.39 0.62 0.47 0.58 0.61 0.80 0.72 0.63 0.15
0.45 0.59 0.65 0.78 1.09 1.46 1.62 1.66 2.02 3.14 2.64 0.70 0.38 0.77 1.18 1.23 1.16 1.11 0.75 0.67 0.36 0.30 0.21 0.12 0.09 0.15 0.23 0.30 0.35 0.19 0.18 0.29 0.53 0.58 0.53 0.53 0.69 0.49 0.50 0.85 1.00 0.42 0.27 0.04
0.48 0.51 0.39 0.53 0.71 1.06 1.00 1.15 1.03 0.91 1.00 0.43 0.24 0.72 1.03 1.22 1.28 0.83 0.79 0.75 0.31 0.25 0.23 0.09 0.07 0.09 0.19 0.28 0.49 0.50 0.41 0.37 0.55 0.59 0.34 0.35 0.77 0.60 0.53 0.86 0.46 0.46 0.09 0.04
0.43 0.43 0.37 0.41 0.58 1.20 1.11 0.88 0.57 0.23 0.13 0.07 0.13 0.48 0.91 1.21 0.79 0.68 0.68 0.53 0.28 0.28 0.20 0.08 0.05 0.09 0.15 0.27 0.36 0.45 0.34 0.35 0.35 0.50 0.45 0.69 0.55 0.33 0.41 0.31 0.26 0.24 0.05 0.03
0.51 0.46 0.61 0.74 1.05 1.71 1.57 0.80 0.47 0.28 0.16 0.12 0.23 0.31 0.68 0.75 0.71 0.63 0.34 0.38 0.35 0.21 0.11 0.08 0.04 0.07 0.05 0.11 0.20 0.17 0.20 0.17 0.29 0.70 0.53 0.57 0.50 0.39 0.23 0.17 0.14 0.11 0.08 0.02
0.48 0.40 0.48 0.52 0.60 1.02 1.29 0.75 0.65 0.38 0.21 0.09 0.14 0.17 0.39 0.60 0.64 0.69 0.44 0.36 0.34 0.15 0.14 0.13 0.06 0.05 0.05 0.05 0.06 0.10 0.15 0.10 0.20 0.44 0.24 0.42 0.25 0.29 0.42 0.23 0.05 0.03 0.05 0.01
0.39 0.31 0.40 0.60 0.65 0.80 0.70 0.57 0.67 0.38 0.26 0.09 0.11 0.12 0.23 0.42 0.49 0.59 0.50 0.33 0.28 0.24 0.35 0.29 0.19 0.22 0.23 0.11 0.04 0.05 0.05 0.11 0.21 0.31 0.31 0.12 0.05 0.12 0.17 0.12 0.04 0.03 0.04 0.01
0.32 0.23 0.19 0.25 0.28 0.35 0.46 0.61 0.64 0.41 0.28 0.12 0.06 0.08 0.13 0.45 0.64 0.72 0.53 0.37 0.20 0.29 0.45 0.32 0.20 0.31 0.17 0.10 0.05 0.03 0.04 0.05 0.28 0.23 0.15 0.03 0.01 0.00 0.00 0.13 0.26 0.04 0.02 0.02
0.32 0.33 0.27 0.25 0.30 0.38 0.38 0.56 0.57 0.51 0.31 0.04 0.05 0.09 0.15 0.36 0.69 0.87 0.61 0.41 0.37 0.41 0.54 0.29 0.06 0.07 0.03 0.04 0.03 0.06 0.16 0.16 0.22 0.19 0.21 0.01 0.00 0.00 0.00 0.05 0.12 0.06 0.03 0.01
0.37 0.42 0.29 0.23 0.24 0.39 0.35 0.30 0.51 0.48 0.30 0.06 0.03 0.06 0.13 0.14 0.43 1.05 0.83 0.57 0.48 0.48 0.54 0.30 0.07 0.01 0.01 0.01 0.00 0.00 0.05 0.08 0.08 0.06 0.07 0.01 0.00 0.00 0.02 0.02 0.00 0.00 0.00 0.01
0.27 0.34 0.27 0.24 0.26 0.46 0.49 0.26 0.32 0.50 0.38 0.10 0.04 0.04 0.06 0.10 0.26 0.71 0.82 0.58 0.46 0.30 0.33 0.15 0.06 0.02 0.01 0.00 0.02 0.00 0.01 0.00 0.00 0.00 0.01 0.00 0.00 0.00 0.00 0.00 0.00 0.00 0.00 0.00
0.25 0.27 0.27 0.26 0.25 0.45 0.61 0.29 0.30 0.46 0.40 0.13 0.05 0.03 0.02 0.02 0.12 0.30 0.78 0.69 0.57 0.43 0.17 0.22 0.10 0.06 0.02 0.02 0.01 0.00 0.00 0.00 0.00 0.00 0.00 0.00 0.00 0.00 0.00 0.00 0.00 0.00 0.00 0.00
0.21 0.24 0.31 0.26 0.26 0.40 0.56 0.25 0.31 0.41 0.34 0.19 0.04 0.02 0.04 0.04 0.15 0.29 0.51 0.73 0.52 0.46 0.27 0.41 0.31 0.15 0.03 0.02 0.01 0.00 0.00 0.00 0.00 0.00 0.00 0.00 0.00 0.00 0.00 0.03 0.01 0.00 0.00 0.00
0.20 0.26 0.26 0.22 0.26 0.44 0.41 0.17 0.40 0.33 0.42 0.50 0.09 0.03 0.04 0.02 0.16 0.34 0.51 0.77 0.58 0.51 0.48 0.35 0.27 0.20 0.10 0.03 0.00 0.00 0.00 0.00 0.00 0.03 0.00 0.00 0.00 0.00 0.05 0.03 0.01 0.00 0.00 0.00
0.18 0.18 0.19 0.23 0.33 0.68 0.55 0.46 0.43 0.46 0.41 0.75 0.22 0.03 0.03 0.02 0.21 0.45 0.53 0.54 0.51 0.55 0.54 0.36 0.18 0.12 0.16 0.16 0.04 0.00 0.00 0.00 0.00 0.00 0.00 0.00 0.00 0.00 0.00 0.01 0.00 0.00 0.00 0.01
0.20 0.21 0.22 0.27 0.47 0.63 0.67 0.35 0.46 0.42 0.65 0.63 0.21 0.09 0.06 0.06 0.26 0.52 0.64 0.43 0.47 0.65 0.71 0.42 0.18 0.16 0.28 0.19 0.03 0.00 0.00 0.00 0.00 0.00 0.00 0.00 0.00 0.00 0.00 0.00 0.01 0.04 0.05 0.04
0.28 0.33 0.46 0.49 0.59 0.64 0.39 0.13 0.32 0.57 0.86 0.58 0.36 0.13 0.10 0.16 0.54 0.67 0.63 0.63 0.54 0.69 0.57 0.34 0.18 0.19 0.33 0.25 0.01 0.00 0.00 0.00 0.00 0.00 0.00 0.00 0.00 0.00 0.01 0.04 0.09 0.10 0.06 0.02
0.52 0.55 0.57 0.64 0.39 0.28 0.27 0.33 0.57 0.54 0.96 0.94 0.38 0.22 0.27 0.22 0.57 0.58 0.72 0.65 0.75 0.54 0.34 0.24 0.37 0.27 0.16 0.03 0.00 0.00 0.00 0.00 0.00 0.00 0.00 0.00 0.00 0.02 0.07 0.12 0.09 0.03 0.01 0.00
0.72 0.83 0.77 0.61 0.30 0.51 0.85 0.95 0.99 1.15 0.73 0.38 0.28 0.12 0.29 0.29 0.49 0.53 0.73 0.72 0.69 0.54 0.29 0.31 0.38 0.24 0.09 0.02 0.00 0.00 0.00 0.00 0.00 0.00 0.00 0.01 0.04 0.07 0.05 0.02 0.00 0.00 0.00 0.00
1.24 1.27 0.88 0.76 0.92 1.20 1.18 0.99 0.68 0.55 0.41 0.17 0.11 0.14 0.32 0.27 0.59 0.68 0.52 0.78 0.57 0.52 0.37 0.62 0.49 0.32 0.09 0.00 0.00 0.00 0.00 0.00 0.00 0.00 0.00 0.00 0.01 0.00 0.00 0.00 0.00 0.00 0.00 0.00
0.92 0.74 0.93 0.89 0.89 1.01 0.83 0.63 0.40 0.28 0.14 0.22 0.30 0.26 0.28 0.34 0.48 0.76 0.78 0.58 0.70 0.42 0.38 0.62 0.37 0.14 0.02 0.01 0.01 0.00 0.00 0.00 0.00 0.00 0.00 0.00 0.00 0.00 0.00 0.01 0.00 0.00 0.00 0.00
1.16 1.55 1.54 0.93 0.76 0.51 0.37 0.46 0.56 0.51 0.38 0.43 0.44 0.41 0.28 0.42 0.64 0.57 0.73 0.70 0.43 0.31 0.41 0.24 0.08 0.04 0.02 0.02 0.03 0.03 0.05 0.01 0.01 0.01 0.01 0.01 0.01 0.03 0.03 0.04 0.02 0.01 0.01 0.02
2.31 2.12 1.47 0.46 0.53 0.19 0.35 0.36 0.38 0.45 0.47 0.46 0.48 0.58 0.46 0.40 0.62 0.51 0.38 0.36 0.43 0.36 0.16 0.11 0.09 0.05 0.02 0.03 0.07 0.07 0.13 0.23 0.23 0.16 0.08 0.07 0.06 0.07 0.08 0.08 0.07 0.04 0.03 0.04
1.98 1.13 0.51 0.18 0.10 0.08 0.18 0.24 0.24 0.31 0.36 0.38 0.44 0.51 0.44 0.55 0.63 0.43 0.35 0.42 0.31 0.15 0.14 0.25 0.18 0.13 0.10 0.14 0.18 0.18 0.20 0.34 0.46 0.49 0.45 0.43 0.36 0.33 0.26 0.16 0.12 0.12 0.07 0.05
1.54 0.80 0.26 0.07 0.04 0.07 0.13 0.18 0.23 0.29 0.32 0.29 0.34 0.34 0.45 0.56 0.51 0.47 0.43 0.47 0.36 0.31 0.35 0.37 0.28 0.30 0.28 0.26 0.19 0.16 0.13 0.11 0.12 0.12 0.14 0.16 0.17 0.22 0.24 0.22 0.19 0.21 0.20 0.16
1.27 0.39 0.04 0.02 0.03 0.07 0.12 0.17 0.18 0.14 0.19 0.29 0.31 0.26 0.30 0.39 0.49 0.49 0.54 0.60 0.42 0.22 0.12 0.23 0.25 0.32 0.37 0.40 0.30 0.27 0.20 0.14 0.09 0.07 0.06 0.06 0.06 0.07 0.07 0.06 0.08 0.11 0.21 0.28

GFSNW_prec_precacc_108.txt.gz
Total_Precipitation_Accumulation
1.02 0.97 1.01 0.86 0.97 1.26 1.44 1.32 1.89 1.81 1.83 3.56 2.32 1.39 1.19 1.15 1.41 1.58 1.16 0.66 0.34 0.28 0.39 0.73 0.73 0.81 0.91 0.50 0.28 0.24 0.32 0.71 0.82 0.63 0.22 0.21 0.44 0.49 0.56 1.01 0.68 0.79 0.54 0.23
0.92 0.97 0.87 0.83 1.25 1.65 1.99 1.58 1.63 2.48 1.39 1.57 0.93 0.90 1.25 1.38 1.48 1.42 1.00 0.63 0.31 0.20 0.23 0.51 0.34 0.41 0.35 0.24 0.15 0.07 0.21 0.61 0.69 0.78 0.55 0.39 0.62 0.47 0.58 0.61 0.91 1.00 0.83 0.16
0.95 0.84 0.66 0.78 1.09 1.46 1.62 1.66 2.02 3.14 2.64 0.70 0.38 0.77 1.18 1.23 1.16 1.11 0.75 0.67 0.36 0.30 0.21 0.12 0.10 0.15 0.23 0.30 0.35 0.19 0.18 0.29 0.53 0.59 0.53 0.53 0.69 0.49 0.50 0.86 1.14 0.57 0.36 0.05
0.99 0.66 0.39 0.53 0.71 1.06 1.00 1.15 1.03 0.91 1.00 0.43 0.24 0.72 1.03 1.22 1.28 0.83 0.79 0.76 0.31 0.25 0.24 0.10 0.07 0.09 0.19 0.28 0.49 0.50 0.41 0.37 0.55 0.59 0.34 0.35 0.77 0.60 0.53 0.87 0.54 0.51 0.12 0.04
0.88 0.51 0.37 0.41 0.58 1.20 1.11 0.88 0.57 0.23 0.13 0.07 0.13 0.48 0.91 1.21 0.79 0.68 0.68 0.53 0.28 0.28 0.20 0.08 0.05 0.10 0.15 0.27 0.36 0.45 0.34 0.35 0.35 0.50 0.45 0.69 0.55 0.33 0.41 0.32 0.32 0.25 0.05 0.03
0.83 0.48 0.61 0.74 1.05 1.71 1.57 0.80 0.47 0.28 0.16 0.12 0.23 0.31 0.68 0.75 0.71 0.63 0.34 0.38 0.35 0.21 0.11 0.08 0.04 0.07 0.05 0.12 0.20 0.17 0.20 0.17 0.29 0.72 0.53 0.57 0.51 0.39 0.23 0.18 0.23 0.12 0.10 0.03
0.68 0.42 0.48 0.52 0.60 1.02 1.29 0.75 0.65 0.38 0.21 0.09 0.14 0.17 0.39 0.60 0.64 0.69 0.44 0.36 0.34 0.15 0.14 0.13 0.06 0.05 0.05 0.05 0.06 0.10 0.15 0.10 0.21 0.48 0.26 0.45 0.28 0.29 0.42 0.24 0.18 0.05 0.05 0.01
0.54 0.33 0.40 0.60 0.65 0.80 0.70 0.57 0.67 0.38 0.26 0.09 0.11 0.12 0.23 0.42 0.49 0.59 0.50 0.33 0.28 0.24 0.35 0.29 0.23 0.25 0.23 0.11 0.04 0.05 0.05 0.11 0.22 0.36 0.43 0.17 0.06 0.12 0.17 0.12 0.06 0.05 0.05 0.01
0.38 0.24 0.19 0.25 0.28 0.35 0.46 0.61 0.64 0.41 0.28 0.12 0.06 0.08 0.13 0.45 0.64 0.72 0.53 0.37 0.20 0.29 0.45 0.32 0.26 0.34 0.17 0.10 0.06 0.03 0.04 0.05 0.28 0.23 0.23 0.08 0.02 0.00 0.00 0.13 0.26 0.04 0.02 0.02
0.36 0.35 0.27 0.25 0.30 0.38 0.38 0.56 0.57 0.51 0.31 0.04 0.05 0.09 0.15 0.36 0.69 0.87 0.61 0.41 0.37 0.41 0.54 0.29 0.06 0.07 0.03 0.04 0.04 0.06 0.16 0.17 0.22 0.19 0.24 0.02 0.00 0.00 0.00 0.05 0.13 0.06 0.03 0.01
0.43 0.45 0.29 0.23 0.24 0.39 0.35 0.30 0.51 0.48 0.30 0.06 0.03 0.06 0.13 0.14 0.43 1.05 0.83 0.57 0.48 0.48 0.54 0.30 0.07 0.01 0.01 0.01 0.00 0.00 0.05 0.08 0.10 0.06 0.08 0.01 0.00 0.00 0.02 0.03 0.00 0.00 0.00 0.01
0.30 0.36 0.27 0.24 0.27 0.46 0.49 0.26 0.32 0.50 0.38 0.10 0.04 0.04 0.06 0.10 0.26 0.71 0.82 0.58 0.46 0.30 0.33 0.15 0.06 0.02 0.01 0.00 0.02 0.00 0.01 0.00 0.00 0.00 0.01 0.00 0.00 0.00 0.00 0.00 0.00 0.00 0.00 0.00
0.30 0.31 0.28 0.26 0.26 0.45 0.61 0.29 0.30 0.46 0.40 0.13 0.05 0.03 0.02 0.02 0.12 0.30 0.78 0.69 0.57 0.43 0.17 0.22 0.10 0.06 0.02 0.02 0.01 0.00 0.00 0.00 0.00 0.00 0.00 0.00 0.00 0.00 0.00 0.00 0.02 0.01 0.00 0.00
0.30 0.27 0.31 0.26 0.26 0.40 0.56 0.25 0.31 0.41 0.34 0.19 0.04 0.02 0.04 0.04 0.15 0.29 0.51 0.73 0.52 0.46 0.27 0.41 0.31 0.15 0.03 0.02 0.01 0.00 0.00 0.00 0.00 0.00 0.00 0.00 0.00 0.00 0.00 0.07 0.04 0.00 0.00 0.00
0.24 0.28 0.26 0.22 0.26 0.44 0.41 0.17 0.40 0.33 0.42 0.50 0.09 0.03 0.04 0.02 0.16 0.34 0.51 0.77 0.58 0.51 0.48 0.35 0.27 0.20 0.10 0.03 0.00 0.01 0.00 0.00 0.00 0.03 0.00 0.00 0.00 0.00 0.05 0.04 0.03 0.02 0.00 0.03
0.20 0.19 0.19 0.23 0.33 0.68 0.55 0.46 0.43 0.46 0.41 0.75 0.22 0.03 0.03 0.02 0.21 0.45 0.53 0.54 0.51 0.55 0.54 0.36 0.18 0.12 0.16 0.16 0.05 0.01 0.00 0.00 0.00 0.00 0.00 0.00 0.00 0.00 0.00 0.03 0.02 0.02 0.01 0.02
0.25 0.24 0.22 0.27 0.47 0.63 0.67 0.35 0.46 0.42 0.65 0.63 0.21 0.09 0.06 0.06 0.26 0.52 0.64 0.43 0.47 0.65 0.71 0.42 0.18 0.16 0.28 0.19 0.03 0.01 0.00 0.00 0.00 0.00 0.00 0.00 0.00 0.00 0.00 0.00 0.01 0.04 0.05 0.04
0.35 0.38 0.46 0.49 0.59 0.64 0.39 0.13 0.32 0.57 0.86 0.58 0.36 0.13 0.10 0.16 0.54 0.67 0.63 0.63 0.54 0.69 0.57 0.34 0.18 0.19 0.33 0.25 0.01 0.00 0.00 0.00 0.00 0.00 0.00 0.00 0.00 0.00 0.01 0.04 0.09 0.10 0.06 0.02
0.61 0.58 0.57 0.64 0.40 0.28 0.27 0.33 0.57 0.54 0.96 0.94 0.38 0.22 0.27 0.22 0.57 0.58 0.72 0.65 0.75 0.54 0.34 0.24 0.37 0.27 0.16 0.03 0.00 0.00 0.00 0.00 0.00 0.00 0.00 0.00 0.00 0.02 0.07 0.12 0.09 0.03 0.01 0.00
0.80 0.86 0.78 0.62 0.31 0.51 0.85 0.95 0.99 1.15 0.73 0.38 0.28 0.12 0.29 0.29 0.49 0.53 0.73 0.72 0.70 0.54 0.29 0.31 0.38 0.24 0.09 0.02 0.00 0.00 0.00 0.00 0.00 0.00 0.00 0.01 0.04 0.07 0.05 0.02 0.00 0.00 0.00 0.00
1.33 1.31 0.88 0.77 0.92 1.21 1.18 0.99 0.68 0.55 0.41 0.17 0.11 0.14 0.32 0.27 0.59 0.68 0.52 0.78 0.57 0.52 0.37 0.62 0.49 0.32 0.09 0.00 0.00 0.00 0.00 0.00 0.00 0.00 0.00 0.00 0.01 0.00 0.00 0.00 0.00 0.00 0.00 0.00
0.95 0.74 0.93 0.90 0.90 1.01 0.83 0.63 0.40 0.28 0.14 0.22 0.30 0.26 0.28 0.34 0.48 0.76 0.78 0.58 0.70 0.42 0.38 0.62 0.37 0.14 0.02 0.01 0.01 0.00 0.00 0.00 0.00 0.00 0.00 0.00 0.00 0.00 0.00 0.01 0.00 0.00 0.00 0.00
1.17 1.58 1.57 0.94 0.77 0.51 0.37 0.46 0.56 0.51 0.38 0.43 0.44 0.41 0.28 0.42 0.64 0.57 0.73 0.70 0.43 0.31 0.42 0.24 0.08 0.04 0.02 0.02 0.03 0.03 0.05 0.01 0.01 0.01 0.01 0.01 0.01 0.03 0.03 0.04 0.02 0.01 0.01 0.02
2.35 2.15 1.48 0.46 0.53 0.19 0.35 0.36 0.38 0.45 0.47 0.46 0.48 0.58 0.46 0.40 0.62 0.51 0.38 0.36 0.43 0.37 0.16 0.11 0.09 0.05 0.02 0.03 0.07 0.07 0.13 0.23 0.23 0.16 0.08 0.07 0.06 0.07 0.08 0.08 0.07 0.04 0.03 0.04
2.02 1.14 0.51 0.18 0.10 0.08 0.18 0.24 0.24 0.31 0.36 0.38 0.44 0.51 0.44 0.55 0.63 0.43 0.35 0.42 0.31 0.15 0.14 0.25 0.18 0.13 0.10 0.14 0.18 0.18 0.20 0.34 0.46 0.49 0.45 0.43 0.36 0.33 0.26 0.16 0.12 0.12 0.07 0.05
1.56 0.80 0.26 0.07 0.04 0.07 0.13 0.20 0.24 0.29 0.32 0.29 0.34 0.34 0.45 0.56 0.51 0.47 0.43 0.47 0.36 0.31 0.35 0.37 0.28 0.30 0.28 0.26 0.19 0.16 0.13 0.11 0.12 0.12 0.14 0.16 0.17 0.22 0.24 0.22 0.19 0.21 0.20 0.16
1.28 0.39 0.04 0.02 0.03 0.07 0.13 0.18 0.19 0.14 0.19 0.29 0.31 0.26 0.30 0.39 0.49 0.49 0.54 0.60 0.42 0.22 0.12 0.23 0.25 0.32 0.37 0.40 0.30 0.27 0.20 0.14 0.09 0.07 0.07 0.06 0.06 0.07 0.07 0.06 0.08 0.12 0.23 0.31

GFSNW_prec_precacc_111.txt.gz
Total_Precipitation_Accumulation
1.42 1.64 1.53 1.00 0.99 1.26 1.44 1.32 1.89 1.81 1.83 3.56 2.32 1.39 1.19 1.15 1.41 1.58 1.16 0.67 0.34 0.28 0.39 0.73 0.73 0.81 0.91 0.50 0.28 0.24 0.32 0.71 0.82 0.63 0.22 0.21 0.44 0.49 0.56 1.01 0.68 0.79 0.54 0.23
1.30 1.54 1.27 0.91 1.26 1.65 1.99 1.58 1.63 2.48 1.39 1.57 0.93 0.90 1.25 1.38 1.48 1.42 1.00 0.63 0.31 0.20 0.24 0.51 0.34 0.41 0.35 0.24 0.15 0.07 0.21 0.61 0.69 0.78 0.55 0.39 0.62 0.47 0.58 0.61 0.91 1.01 0.83 0.16
1.33 1.30 0.96 0.88 1.09 1.46 1.62 1.66 2.02 3.14 2.64 0.70 0.38 0.77 1.18 1.23 1.16 1.11 0.75 0.67 0.36 0.30 0.22 0.12 0.10 0.15 0.23 0.30 0.35 0.19 0.18 0.29 0.53 0.59 0.53 0.53 0.69 0.49 0.50 0.86 1.14 0.58 0.39 0.08
1.50 1.05 0.64 0.58 0.71 1.06 1.00 1.15 1.03 0.91 1.00 0.43 0.24 0.72 1.03 1.22 1.28 0.83 0.79 0.76 0.31 0.25 0.24 0.10 0.07 0.09 0.19 0.28 0.49 0.50 0.41 0.37 0.55 0.59 0.34 0.35 0.77 0.60 0.53 0.87 0.55 0.52 0.15 0.06
1.54 0.90 0.47 0.42 0.58 1.20 1.11 0.88 0.57 0.23 0.13 0.07 0.13 0.48 0.91 1.21 0.79 0.68 0.68 0.53 0.28 0.28 0.20 0.08 0.05 0.10 0.15 0.27 0.36 0.45 0.34 0.35 0.35 0.50 0.45 0.69 0.55 0.33 0.41 0.32 0.32 0.25 0.05 0.03
1.36 0.78 0.67 0.75 1.05 1.71 1.57 0.80 0.47 0.28 0.16 0.12 0.23 0.31 0.68 0.75 0.71 0.63 0.34 0.38 0.35 0.21 0.11 0.08 0.04 0.07 0.05 0.12 0.20 0.17 0.20 0.17 0.29 0.73 0.53 0.57 0.51 0.39 0.23 0.18 0.23 0.12 0.10 0.03
1.14 0.62 0.57 0.55 0.60 1.02 1.29 0.75 0.65 0.38 0.21 0.09 0.14 0.17 0.39 0.60 0.64 0.69 0.44 0.36 0.34 0.15 0.14 0.13 0.06 0.05 0.06 0.05 0.06 0.10 0.15 0.10 0.21 0.49 0.27 0.47 0.30 0.29 0.42 0.24 0.18 0.05 0.05 0.01
0.78 0.46 0.49 0.62 0.65 0.80 0.70 0.57 0.67 0.38 0.26 0.09 0.11 0.12 0.23 0.42 0.49 0.59 0.50 0.33 0.28 0.24 0.35 0.29 0.23 0.25 0.23 0.11 0.04 0.05 0.05 0.11 0.23 0.37 0.43 0.18 0.06 0.12 0.17 0.12 0.06 0.05 0.05 0.01
0.47 0.30 0.25 0.29 0.29 0.35 0.46 0.61 0.64 0.41 0.28 0.12 0.06 0.08 0.13 0.45 0.64 0.72 0.53 0.37 0.20 0.29 0.45 0.32 0.27 0.34 0.17 0.10 0.06 0.04 0.04 0.05 0.28 0.23 0.23 0.08 0.02 0.00 0.00 0.13 0.26 0.04 0.03 0.02
0.46 0.42 0.34 0.30 0.31 0.38 0.38 0.56 0.57 0.51 0.31 0.04 0.05 0.09 0.15 0.36 0.69 0.87 0.61 0.41 0.37 0.41 0.54 0.29 0.06 0.07 0.03 0.04 0.04 0.06 0.16 0.17 0.22 0.20 0.25 0.02 0.00 0.00 0.00 0.05 0.13 0.06 0.03 0.01
0.52 0.52 0.35 0.24 0.25 0.39 0.35 0.30 0.51 0.48 0.30 0.06 0.03 0.06 0.13 0.14 0.43 1.05 0.83 0.57 0.48 0.48 0.54 0.30 0.07 0.01 0.01 0.01 0.00 0.00 0.05 0.08 0.10 0.06 0.08 0.01 0.00 0.00 0.02 0.03 0.00 0.00 0.00 0.01
0.33 0.40 0.28 0.24 0.28 0.46 0.49 0.26 0.32 0.50 0.38 0.10 0.04 0.04 0.06 0.10 0.26 0.71 0.82 0.58 0.46 0.30 0.33 0.15 0.06 0.02 0.01 0.00 0.02 0.00 0.01 0.00 0.00 0.00 0.01 0.00 0.00 0.00 0.00 0.00 0.00 0.00 0.00 0.00
0.36 0.34 0.30 0.26 0.27 0.45 0.61 0.29 0.30 0.46 0.40 0.13 0.05 0.03 0.02 0.02 0.12 0.30 0.78 0.69 0.57 0.43 0.17 0.22 0.10 0.06 0.02 0.02 0.01 0.00 0.00 0.00 0.00 0.00 0.00 0.00 0.00 0.00 0.00 0.01 0.04 0.01 0.00 0.00
0.36 0.34 0.34 0.26 0.26 0.40 0.56 0.25 0.31 0.41 0.34 0.19 0.04 0.02 0.04 0.04 0.15 0.29 0.51 0.73 0.52 0.46 0.27 0.41 0.31 0.15 0.03 0.02 0.01 0.00 0.00 0.00 0.00 0.00 0.00 0.00 0.00 0.00 0.00 0.07 0.06 0.00 0.00 0.00
0.31 0.32 0.29 0.22 0.27 0.44 0.41 0.17 0.40 0.33 0.42 0.50 0.09 0.03 0.04 0.02 0.16 0.34 0.51 0.77 0.58 0.51 0.48 0.35 0.27 0.20 0.10 0.03 0.00 0.01 0.00 0.00 0.00 0.03 0.00 0.00 0.00 0.00 0.05 0.04 0.03 0.02 0.00 0.03
0.24 0.22 0.22 0.23 0.33 0.68 0.55 0.46 0.43 0.46 0.41 0.75 0.22 0.03 0.03 0.02 0.21 0.45 0.53 0.54 0.51 0.55 0.54 0.36 0.18 0.12 0.16 0.16 0.05 0.01 0.00 0.00 0.00 0.00 0.00 0.00 0.00 0.00 0.00 0.03 0.02 0.02 0.01 0.02
0.30 0.28 0.25 0.27 0.47 0.63 0.67 0.35 0.46 0.42 0.65 0.63 0.21 0.09 0.06 0.06 0.26 0.52 0.64 0.43 0.47 0.65 0.71 0.42 0.18 0.16 0.28 0.19 0.03 0.01 0.00 0.00 0.00 0.00 0.00 0.00 0.00 0.00 0.00 0.00 0.01 0.04 0.05 0.04
0.41 0.45 0.48 0.49 0.59 0.64 0.39 0.13 0.32 0.57 0.86 0.58 0.36 0.13 0.10 0.16 0.54 0.67 0.63 0.63 0.54 0.69 0.57 0.34 0.18 0.19 0.33 0.25 0.01 0.00 0.00 0.00 0.00 0.00 0.00 0.00 0.00 0.00 0.01 0.04 0.09 0.10 0.06 0.02
0.65 0.63 0.58 0.65 0.40 0.29 0.27 0.33 0.57 0.54 0.96 0.94 0.38 0.22 0.27 0.22 0.57 0.58 0.72 0.65 0.75 0.54 0.34 0.24 0.37 0.27 0.16 0.03 0.00 0.00 0.00 0.00 0.00 0.00 0.00 0.00 0.00 0.02 0.07 0.12 0.09 0.03 0.01 0.00
0.86 0.93 0.80 0.64 0.31 0.52 0.85 0.95 0.99 1.15 0.73 0.38 0.28 0.12 0.29 0.29 0.49 0.53 0.73 0.72 0.70 0.54 0.29 0.31 0.38 0.24 0.09 0.02 0.00 0.00 0.00 0.00 0.00 0.00 0.00 0.01 0.04 0.07 0.05 0.02 0.00 0.00 0.00 0.00
1.50 1.42 0.89 0.77 0.93 1.22 1.18 0.99 0.68 0.55 0.41 0.17 0.11 0.14 0.32 0.27 0.59 0.68 0.52 0.78 0.57 0.52 0.37 0.62 0.49 0.32 0.09 0.00 0.00 0.00 0.00 0.00 0.00 0.00 0.00 0.00 0.01 0.00 0.00 0.00 0.00 0.00 0.00 0.00
1.05 0.76 0.94 0.91 0.92 1.03 0.84 0.63 0.40 0.28 0.14 0.22 0.30 0.26 0.28 0.34 0.48 0.76 0.78 0.58 0.70 0.42 0.38 0.62 0.37 0.14 0.02 0.01 0.01 0.00 0.00 0.00 0.00 0.00 0.00 0.00 0.00 0.00 0.00 0.01 0.00 0.00 0.00 0.00
1.20 1.61 1.62 0.98 0.79 0.52 0.37 0.46 0.56 0.51 0.38 0.43 0.44 0.41 0.28 0.42 0.64 0.57 0.73 0.70 0.43 0.31 0.42 0.24 0.08 0.04 0.02 0.02 0.03 0.03 0.05 0.01 0.01 0.01 0.01 0.01 0.01 0.03 0.03 0.04 0.02 0.01 0.01 0.02
2.40 2.17 1.50 0.48 0.54 0.19 0.35 0.36 0.38 0.45 0.47 0.46 0.48 0.58 0.46 0.40 0.62 0.51 0.38 0.36 0.43 0.37 0.16 0.11 0.09 0.05 0.02 0.03 0.07 0.07 0.13 0.23 0.23 0.16 0.08 0.07 0.06 0.07 0.08 0.08 0.07 0.04 0.03 0.04
2.05 1.15 0.52 0.18 0.10 0.08 0.18 0.24 0.24 0.31 0.36 0.38 0.44 0.51 0.44 0.55 0.63 0.43 0.35 0.42 0.31 0.15 0.14 0.25 0.18 0.13 0.10 0.14 0.18 0.18 0.20 0.34 0.46 0.49 0.45 0.43 0.36 0.33 0.26 0.16 0.12 0.12 0.07 0.05
1.57 0.80 0.26 0.07 0.04 0.07 0.13 0.20 0.24 0.29 0.32 0.29 0.34 0.34 0.45 0.56 0.51 0.47 0.43 0.47 0.36 0.31 0.35 0.37 0.28 0.30 0.28 0.26 0.19 0.16 0.13 0.11 0.12 0.12 0.14 0.16 0.17 0.22 0.24 0.22 0.19 0.21 0.20 0.16
1.31 0.40 0.04 0.02 0.03 0.07 0.13 0.18 0.19 0.15 0.19 0.29 0.31 0.26 0.30 0.39 0.49 0.49 0.54 0.60 0.42 0.22 0.12 0.23 0.25 0.32 0.37 0.40 0.30 0.27 0.20 0.14 0.09 0.07 0.07 0.06 0.06 0.07 0.07 0.06 0.08 0.12 0.23 0.31

GFSNW_prec_precacc_114.txt.gz
Total_Precipitation_Accumulation
1.52 1.69 1.84 1.30 1.20 1.31 1.45 1.35 1.90 1.81 1.83 3.56 2.32 1.39 1.19 1.15 1.41 1.58 1.16 0.67 0.34 0.28 0.39 0.73 0.73 0.81 0.91 0.50 0.28 0.24 0.32 0.71 0.82 0.64 0.22 0.21 0.44 0.50 0.57 1.01 0.68 0.79 0.54 0.23
1.35 1.61 1.55 1.13 1.39 1.69 2.02 1.60 1.63 2.48 1.39 1.57 0.93 0.90 1.25 1.38 1.48 1.42 1.00 0.63 0.31 0.20 0.24 0.51 0.34 0.41 0.35 0.24 0.15 0.07 0.21 0.61 0.69 0.78 0.55 0.39 0.62 0.47 0.58 0.61 0.91 1.01 0.83 0.16
1.38 1.35 1.10 1.05 1.20 1.49 1.63 1.66 2.02 3.14 2.65 0.70 0.38 0.77 1.18 1.23 1.16 1.11 0.75 0.67 0.36 0.30 0.22 0.12 0.10 0.15 0.23 0.30 0.35 0.19 0.18 0.29 0.53 0.59 0.53 0.53 0.69 0.49 0.50 0.86 1.14 0.58 0.40 0.08
1.78 1.19 0.77 0.74 0.75 1.07 1.00 1.15 1.03 0.91 1.00 0.43 0.24 0.72 1.03 1.22 1.28 0.83 0.79 0.76 0.31 0.25 0.24 0.10 0.07 0.09 0.19 0.28 0.49 0.50 0.41 0.37 0.55 0.59 0.34 0.35 0.77 0.60 0.53 0.87 0.55 0.52 0.16 0.08
1.95 1.22 0.67 0.52 0.62 1.21 1.11 0.88 0.57 0.23 0.13 0.07 0.13 0.48 0.91 1.21 0.79 0.68 0.68 0.53 0.28 0.28 0.20 0.08 0.05 0.10 0.16 0.27 0.36 0.45 0.34 0.35 0.35 0.50 0.45 0.69 0.55 0.33 0.41 0.32 0.32 0.25 0.05 0.05
1.60 0.99 0.81 0.79 1.07 1.71 1.57 0.80 0.47 0.28 0.16 0.12 0.23 0.31 0.68 0.75 0.71 0.63 0.34 0.38 0.35 0.21 0.11 0.08 0.04 0.07 0.05 0.12 0.20 0.17 0.20 0.17 0.29 0.73 0.53 0.57 0.51 0.39 0.23 0.18 0.23 0.12 0.10 0.03
1.34 0.71 0.65 0.58 0.61 1.02 1.29 0.75 0.65 0.38 0.21 0.09 0.14 0.17 0.39 0.60 0.64 0.69 0.44 0.36 0.34 0.15 0.14 0.13 0.06 0.05 0.06 0.05 0.06 0.10 0.15 0.10 0.21 0.50 0.28 0.47 0.31 0.29 0.42 0.24 0.18 0.05 0.05 0.01
0.84 0.49 0.55 0.66 0.65 0.80 0.70 0.57 0.67 0.38 0.26 0.09 0.11 0.12 0.23 0.42 0.49 0.59 0.50 0.33 0.28 0.24 0.35 0.29 0.23 0.25 0.23 0.11 0.05 0.05 0.05 0.11 0.23 0.37 0.43 0.18 0.06 0.12 0.17 0.12 0.06 0.05 0.05 0.01
0.53 0.35 0.30 0.31 0.30 0.35 0.46 0.61 0.64 0.41 0.28 0.12 0.06 0.08 0.13 0.45 0.64 0.72 0.53 0.37 0.20 0.29 0.45 0.32 0.27 0.34 0.17 0.10 0.06 0.04 0.04 0.05 0.28 0.23 0.23 0.08 0.02 0.00 0.00 0.13 0.26 0.04 0.03 0.02
0.51 0.48 0.38 0.34 0.32 0.38 0.38 0.56 0.57 0.51 0.31 0.04 0.05 0.09 0.15 0.36 0.69 0.87 0.61 0.41 0.37 0.41 0.54 0.29 0.06 0.07 0.03 0.04 0.04 0.06 0.16 0.17 0.22 0.20 0.25 0.02 0.00 0.00 0.00 0.05 0.13 0.06 0.03 0.01
0.54 0.56 0.39 0.27 0.25 0.39 0.35 0.30 0.51 0.48 0.30 0.06 0.03 0.06 0.13 0.14 0.43 1.05 0.83 0.57 0.48 0.48 0.54 0.30 0.07 0.01 0.01 0.01 0.00 0.00 0.05 0.08 0.10 0.06 0.08 0.01 0.00 0.00 0.02 0.03 0.00 0.00 0.00 0.01
0.35 0.44 0.31 0.25 0.28 0.46 0.49 0.26 0.32 0.50 0.38 0.10 0.04 0.04 0.06 0.10 0.26 0.71 0.82 0.58 0.46 0.30 0.33 0.15 0.06 0.02 0.01 0.00 0.02 0.00 0.01 0.00 0.00 0.00 0.01 0.00 0.00 0.00 0.00 0.00 0.00 0.00 0.00 0.00
0.40 0.38 0.32 0.27 0.27 0.45 0.61 0.29 0.30 0.46 0.40 0.13 0.05 0.03 0.02 0.02 0.12 0.30 0.78 0.69 0.57 0.43 0.17 0.22 0.10 0.06 0.02 0.02 0.01 0.00 0.00 0.00 0.00 0.00 0.00 0.00 0.00 0.00 0.00 0.01 0.04 0.01 0.00 0.00
0.38 0.39 0.37 0.26 0.26 0.40 0.56 0.25 0.31 0.41 0.34 0.19 0.04 0.02 0.04 0.04 0.15 0.29 0.51 0.73 0.52 0.46 0.27 0.41 0.31 0.15 0.03 0.02 0.01 0.00 0.00 0.00 0.00 0.00 0.00 0.00 0.00 0.00 0.00 0.07 0.06 0.00 0.00 0.00
0.37 0.38 0.32 0.22 0.27 0.44 0.41 0.17 0.40 0.33 0.42 0.50 0.09 0.03 0.04 0.02 0.16 0.34 0.51 0.77 0.58 0.51 0.48 0.35 0.27 0.20 0.10 0.03 0.00 0.01 0.00 0.00 0.00 0.03 0.00 0.00 0.00 0.00 0.05 0.04 0.03 0.02 0.00 0.03
0.31 0.29 0.26 0.24 0.33 0.68 0.55 0.46 0.43 0.46 0.41 0.75 0.22 0.03 0.03 0.02 0.21 0.45 0.53 0.54 0.51 0.55 0.54 0.36 0.18 0.12 0.16 0.16 0.05 0.01 0.00 0.00 0.00 0.00 0.00 0.00 0.00 0.00 0.00 0.03 0.02 0.02 0.01 0.02
0.36 0.36 0.31 0.29 0.47 0.63 0.67 0.35 0.46 0.42 0.65 0.63 0.21 0.09 0.06 0.06 0.26 0.52 0.64 0.43 0.47 0.65 0.71 0.42 0.18 0.16 0.28 0.19 0.03 0.01 0.00 0.00 0.00 0.00 0.00 0.00 0.00 0.00 0.00 0.00 0.01 0.04 0.05 0.04
0.49 0.57 0.57 0.53 0.60 0.64 0.39 0.13 0.32 0.57 0.86 0.58 0.36 0.13 0.10 0.16 0.54 0.67 0.63 0.63 0.54 0.69 0.57 0.34 0.18 0.19 0.33 0.25 0.01 0.00 0.00 0.00 0.00 0.00 0.00 0.00 0.00 0.00 0.01 0.04 0.09 0.10 0.06 0.02
0.76 0.75 0.67 0.71 0.41 0.29 0.27 0.33 0.57 0.54 0.96 0.94 0.38 0.22 0.27 0.22 0.57 0.58 0.72 0.65 0.75 0.54 0.34 0.24 0.37 0.27 0.16 0.03 0.00 0.00 0.00 0.00 0.00 0.00 0.00 0.00 0.00 0.02 0.07 0.12 0.09 0.03 0.01 0.00
0.97 1.04 0.96 0.78 0.33 0.52 0.85 0.95 0.99 1.15 0.73 0.38 0.28 0.12 0.29 0.29 0.49 0.53 0.73 0.72 0.70 0.54 0.29 0.31 0.38 0.24 0.09 0.02 0.00 0.00 0.00 0.00 0.00 0.00 0.00 0.01 0.04 0.07 0.05 0.02 0.00 0.00 0.00 0.00
1.60 1.58 1.01 0.80 0.94 1.23 1.20 0.99 0.68 0.55 0.41 0.17 0.11 0.14 0.32 0.27 0.59 0.68 0.52 0.78 0.57 0.52 0.37 0.62 0.49 0.32 0.09 0.00 0.00 0.00 0.00 0.00 0.00 0.00 0.00 0.00 0.01 0.00 0.00 0.00 0.00 0.00 0.00 0.00
1.13 0.80 0.96 0.94 0.99 1.06 0.86 0.63 0.40 0.28 0.14 0.22 0.30 0.26 0.28 0.34 0.48 0.76 0.78 0.58 0.70 0.42 0.38 0.62 0.37 0.14 0.02 0.01 0.01 0.00 0.00 0.00 0.00 0.00 0.00 0.00 0.00 0.00 0.00 0.01 0.00 0.00 0.00 0.00
1.35 1.78 1.73 1.04 0.84 0.53 0.38 0.46 0.56 0.51 0.38 0.43 0.44 0.41 0.28 0.42 0.64 0.57 0.73 0.70 0.43 0.31 0.42 0.24 0.08 0.04 0.02 0.02 0.03 0.03 0.05 0.01 0.01 0.01 0.01 0.01 0.01 0.03 0.03 0.04 0.02 0.01 0.01 0.02
2.68 2.34 1.61 0.53 0.57 0.19 0.35 0.36 0.38 0.45 0.47 0.46 0.48 0.58 0.46 0.40 0.62 0.51 0.38 0.36 0.43 0.37 0.16 0.11 0.09 0.05 0.02 0.03 0.07 0.07 0.13 0.23 0.23 0.16 0.08 0.07 0.06 0.07 0.08 0.08 0.07 0.04 0.03 0.04
2.29 1.24 0.55 0.19 0.11 0.08 0.18 0.24 0.24 0.31 0.36 0.38 0.44 0.51 0.44 0.55 0.63 0.43 0.35 0.42 0.32 0.15 0.14 0.25 0.18 0.13 0.10 0.14 0.18 0.18 0.20 0.34 0.46 0.49 0.45 0.43 0.36 0.33 0.26 0.16 0.12 0.12 0.07 0.05
1.72 0.84 0.27 0.07 0.04 0.07 0.13 0.20 0.24 0.29 0.32 0.29 0.34 0.34 0.45 0.56 0.51 0.47 0.43 0.47 0.36 0.31 0.35 0.37 0.28 0.30 0.28 0.26 0.19 0.16 0.13 0.11 0.12 0.12 0.14 0.16 0.17 0.22 0.24 0.22 0.19 0.21 0.20 0.16
1.47 0.42 0.04 0.02 0.03 0.07 0.13 0.18 0.19 0.15 0.19 0.29 0.31 0.26 0.30 0.39 0.49 0.49 0.54 0.60 0.42 0.22 0.12 0.23 0.25 0.32 0.37 0.40 0.30 0.27 0.20 0.14 0.09 0.07 0.07 0.06 0.06 0.07 0.07 0.06 0.08 0.12 0.23 0.31

GFSNW_prec_precacc_117.txt.gz
Total_Precipitation_Accumulation
1.64 1.72 1.94 1.52 1.21 1.33 1.47 1.39 1.94 1.83 1.84 3.56 2.32 1.39 1.19 1.15 1.41 1.58 1.16 0.67 0.34 0.28 0.39 0.73 0.73 0.81 0.91 0.50 0.28 0.24 0.32 0.71 0.82 0.64 0.22 0.22 0.46 0.52 0.57 1.01 0.68 0.79 0.55 0.33
1.39 1.62 1.61 1.15 1.41 1.71 2.06 1.66 1.65 2.49 1.39 1.57 0.93 0.90 1.25 1.38 1.48 1.42 1.00 0.63 0.31 0.21 0.24 0.51 0.34 0.41 0.35 0.24 0.15 0.07 0.21 0.61 0.69 0.78 0.55 0.39 0.62 0.47 0.58 0.61 0.91 1.01 0.84 0.20
1.40 1.36 1.12 1.07 1.24 1.52 1.63 1.67 2.02 3.15 2.67 0.70 0.38 0.77 1.18 1.23 1.16 1.11 0.75 0.67 0.36 0.30 0.22 0.12 0.10 0.15 0.23 0.30 0.35 0.19 0.18 0.29 0.53 0.59 0.54 0.53 0.69 0.49 0.50 0.86 1.14 0.58 0.41 0.09
1.82 1.23 0.82 0.78 0.78 1.08 1.01 1.15 1.03 0.91 1.00 0.43 0.24 0.72 1.03 1.22 1.28 0.83 0.79 0.76 0.31 0.25 0.24 0.10 0.08 0.09 0.19 0.28 0.49 0.50 0.41 0.37 0.55 0.59 0.34 0.35 0.77 0.60 0.53 0.87 0.55 0.53 0.17 0.08
2.01 1.34 0.78 0.56 0.63 1.21 1.11 0.88 0.57 0.23 0.13 0.07 0.13 0.48 0.91 1.21 0.79 0.68 0.68 0.53 0.28 0.28 0.20 0.08 0.05 0.10 0.16 0.27 0.36 0.45 0.34 0.35 0.35 0.50 0.45 0.69 0.55 0.33 0.41 0.32 0.32 0.25 0.06 0.05
1.65 1.06 0.88 0.85 1.09 1.71 1.58 0.80 0.47 0.28 0.16 0.12 0.23 0.31 0.68 0.75 0.71 0.63 0.34 0.38 0.35 0.21 0.11 0.08 0.04 0.07 0.05 0.12 0.20 0.17 0.20 0.17 0.29 0.73 0.53 0.57 0.52 0.39 0.23 0.18 0.23 0.12 0.10 0.03
1.38 0.72 0.66 0.59 0.62 1.02 1.29 0.75 0.65 0.38 0.21 0.09 0.14 0.17 0.39 0.60 0.64 0.69 0.44 0.36 0.34 0.15 0.14 0.13 0.06 0.05 0.06 0.05 0.06 0.10 0.15 0.10 0.21 0.50 0.28 0.48 0.32 0.29 0.42 0.24 0.18 0.05 0.05 0.01
0.85 0.50 0.56 0.66 0.65 0.81 0.70 0.57 0.67 0.38 0.26 0.09 0.11 0.12 0.23 0.42 0.49 0.59 0.50 0.33 0.28 0.24 0.35 0.29 0.23 0.25 0.23 0.11 0.05 0.05 0.05 0.11 0.23 0.37 0.44 0.19 0.06 0.12 0.17 0.12 0.06 0.05 0.05 0.01
0.55 0.36 0.31 0.32 0.30 0.35 0.46 0.61 0.64 0.41 0.28 0.12 0.06 0.08 0.13 0.45 0.64 0.72 0.53 0.37 0.20 0.29 0.45 0.32 0.27 0.34 0.17 0.10 0.06 0.04 0.04 0.05 0.28 0.23 0.23 0.08 0.02 0.00 0.00 0.13 0.26 0.04 0.03 0.02
0.56 0.49 0.39 0.34 0.32 0.38 0.38 0.56 0.57 0.51 0.31 0.04 0.05 0.09 0.15 0.36 0.69 0.87 0.61 0.41 0.37 0.41 0.54 0.29 0.06 0.07 0.03 0.04 0.04 0.06 0.16 0.17 0.22 0.20 0.25 0.02 0.00 0.00 0.00 0.05 0.13 0.06 0.03 0.01
0.55 0.57 0.39 0.27 0.25 0.39 0.35 0.30 0.51 0.48 0.30 0.06 0.03 0.06 0.13 0.14 0.43 1.05 0.83 0.57 0.48 0.48 0.54 0.30 0.07 0.01 0.01 0.01 0.00 0.00 0.05 0.08 0.10 0.06 0.08 0.01 0.00 0.00 0.02 0.03 0.00 0.00 0.00 0.01
0.38 0.44 0.31 0.25 0.28 0.46 0.49 0.26 0.32 0.50 0.38 0.10 0.04 0.04 0.06 0.10 0.26 0.71 0.82 0.58 0.46 0.30 0.33 0.15 0.06 0.02 0.01 0.00 0.02 0.00 0.01 0.00 0.00 0.00 0.01 0.00 0.00 0.00 0.00 0.00 0.00 0.00 0.00 0.00
0.43 0.40 0.32 0.27 0.27 0.45 0.61 0.29 0.30 0.46 0.40 0.13 0.05 0.03 0.02 0.02 0.12 0.30 0.78 0.69 0.57 0.43 0.17 0.22 0.10 0.06 0.02 0.02 0.01 0.00 0.00 0.00 0.00 0.00 0.00 0.00 0.00 0.00 0.00 0.01 0.04 0.01 0.00 0.00
0.39 0.40 0.38 0.27 0.27 0.40 0.56 0.25 0.31 0.41 0.34 0.19 0.04 0.02 0.04 0.04 0.15 0.29 0.51 0.73 0.52 0.46 0.27 0.41 0.31 0.15 0.03 0.02 0.01 0.00 0.00 0.00 0.00 0.00 0.00 0.00 0.00 0.00 0.00 0.07 0.06 0.00 0.00 0.00
0.40 0.40 0.35 0.23 0.27 0.44 0.41 0.17 0.40 0.33 0.42 0.50 0.09 0.03 0.04 0.02 0.16 0.34 0.51 0.77 0.58 0.51 0.48 0.35 0.27 0.20 0.10 0.03 0.00 0.01 0.00 0.00 0.00 0.03 0.00 0.00 0.00 0.00 0.05 0.04 0.03 0.02 0.00 0.03
0.33 0.33 0.31 0.25 0.34 0.68 0.55 0.46 0.43 0.46 0.41 0.75 0.22 0.03 0.03 0.02 0.21 0.45 0.53 0.54 0.51 0.55 0.54 0.36 0.18 0.12 0.16 0.16 0.05 0.01 0.00 0.00 0.00 0.00 0.00 0.00 0.00 0.00 0.00 0.03 0.02 0.02 0.01 0.02
0.38 0.40 0.40 0.34 0.48 0.63 0.67 0.35 0.46 0.42 0.65 0.63 0.21 0.09 0.06 0.06 0.26 0.52 0.64 0.43 0.47 0.65 0.71 0.42 0.18 0.16 0.28 0.19 0.03 0.01 0.00 0.00 0.00 0.00 0.00 0.00 0.00 0.00 0.00 0.00 0.01 0.04 0.05 0.04
0.53 0.66 0.70 0.63 0.62 0.64 0.39 0.13 0.32 0.57 0.86 0.58 0.36 0.13 0.10 0.16 0.54 0.67 0.63 0.63 0.54 0.69 0.57 0.34 0.18 0.19 0.33 0.25 0.01 0.00 0.00 0.00 0.00 0.00 0.00 0.00 0.00 0.00 0.01 0.04 0.09 0.10 0.06 0.02
0.86 0.94 0.81 0.82 0.45 0.29 0.27 0.33 0.57 0.54 0.96 0.94 0.38 0.22 0.27 0.22 0.57 0.58 0.72 0.65 0.75 0.54 0.34 0.24 0.37 0.27 0.16 0.03 0.00 0.00 0.00 0.00 0.00 0.00 0.00 0.00 0.00 0.02 0.07 0.12 0.09 0.03 0.01 0.00
1.10 1.13 1.12 0.96 0.39 0.52 0.85 0.95 0.99 1.15 0.73 0.38 0.28 0.12 0.29 0.29 0.49 0.53 0.73 0.72 0.70 0.54 0.29 0.31 0.38 0.24 0.09 0.02 0.00 0.00 0.00 0.00 0.00 0.00 0.00 0.01 0.04 0.07 0.05 0.02 0.00 0.00 0.00 0.00
1.66 1.72 1.19 0.89 0.96 1.28 1.21 1.00 0.68 0.55 0.41 0.17 0.11 0.14 0.32 0.27 0.59 0.68 0.52 0.78 0.57 0.52 0.37 0.62 0.49 0.32 0.09 0.00 0.00 0.00 0.00 0.00 0.00 0.00 0.00 0.00 0.01 0.00 0.00 0.00 0.00 0.00 0.00 0.00
1.17 0.87 1.05 1.03 1.14 1.22 0.91 0.64 0.40 0.28 0.14 0.22 0.30 0.26 0.28 0.34 0.48 0.76 0.78 0.58 0.70 0.42 0.38 0.62 0.37 0.14 0.02 0.01 0.01 0.00 0.00 0.00 0.00 0.00 0.00 0.00 0.00 0.00 0.00 0.01 0.00 0.00 0.00 0.00
1.42 1.95 1.95 1.24 1.05 0.66 0.40 0.46 0.56 0.51 0.38 0.43 0.44 0.41 0.28 0.42 0.64 0.57 0.73 0.70 0.43 0.31 0.42 0.24 0.08 0.04 0.02 0.02 0.03 0.03 0.05 0.01 0.01 0.01 0.01 0.01 0.01 0.03 0.03 0.04 0.02 0.01 0.01 0.02
2.78 2.54 1.84 0.71 0.70 0.21 0.35 0.36 0.38 0.45 0.47 0.46 0.48 0.58 0.46 0.40 0.62 0.51 0.38 0.36 0.43 0.37 0.16 0.11 0.09 0.05 0.02 0.03 0.07 0.07 0.13 0.23 0.23 0.16 0.08 0.07 0.06 0.07 0.08 0.08 0.07 0.04 0.03 0.04
2.47 1.40 0.68 0.26 0.12 0.08 0.18 0.24 0.24 0.31 0.36 0.38 0.44 0.51 0.44 0.55 0.63 0.43 0.35 0.42 0.32 0.15 0.14 0.25 0.18 0.13 0.10 0.14 0.18 0.18 0.20 0.34 0.46 0.49 0.45 0.43 0.36 0.33 0.26 0.16 0.12 0.12 0.07 0.05
1.86 0.94 0.31 0.08 0.04 0.07 0.13 0.20 0.24 0.29 0.32 0.29 0.34 0.34 0.45 0.56 0.51 0.47 0.43 0.47 0.36 0.31 0.35 0.37 0.28 0.30 0.28 0.26 0.19 0.16 0.13 0.11 0.12 0.12 0.14 0.16 0.17 0.22 0.24 0.22 0.19 0.21 0.20 0.16
1.61 0.47 0.04 0.02 0.03 0.07 0.13 0.18 0.19 0.15 0.19 0.29 0.31 0.26 0.30 0.39 0.49 0.49 0.54 0.60 0.42 0.22 0.12 0.23 0.25 0.32 0.37 0.40 0.30 0.27 0.20 0.14 0.09 0.07 0.07 0.06 0.06 0.07 0.07 0.06 0.08 0.12 0.23 0.31

GFSNW_prec_precacc_120.txt.gz
Total_Precipitation_Accumulation
1.64 1.72 2.00 1.53 1.21 1.33 1.47 1.43 1.99 1.85 1.84 3.56 2.32 1.39 1.19 1.15 1.41 1.58 1.16 0.67 0.34 0.28 0.39 0.73 0.73 0.81 0.91 0.50 0.28 0.24 0.32 0.71 0.82 0.64 0.22 0.22 0.49 0.54 0.58 1.02 0.70 0.80 0.60 0.61
1.39 1.62 1.61 1.15 1.41 1.71 2.08 1.71 1.69 2.50 1.40 1.57 0.93 0.90 1.25 1.38 1.48 1.42 1.00 0.63 0.31 0.21 0.24 0.51 0.34 0.41 0.35 0.24 0.15 0.07 0.21 0.61 0.69 0.78 0.55 0.40 0.63 0.48 0.58 0.61 0.91 1.02 0.89 0.40
1.40 1.36 1.12 1.08 1.25 1.52 1.64 1.67 2.03 3.16 2.67 0.71 0.38 0.77 1.18 1.23 1.16 1.11 0.75 0.67 0.36 0.30 0.22 0.12 0.10 0.15 0.23 0.30 0.35 0.19 0.18 0.29 0.53 0.59 0.54 0.54 0.70 0.49 0.50 0.86 1.14 0.59 0.46 0.13
1.82 1.24 0.82 0.79 0.78 1.08 1.01 1.15 1.03 0.91 1.00 0.43 0.24 0.72 1.03 1.22 1.28 0.83 0.79 0.76 0.31 0.25 0.24 0.10 0.08 0.09 0.19 0.28 0.49 0.50 0.41 0.37 0.55 0.59 0.34 0.35 0.78 0.61 0.53 0.87 0.55 0.55 0.20 0.08
2.01 1.34 0.78 0.56 0.63 1.21 1.11 0.88 0.57 0.23 0.13 0.07 0.13 0.48 0.91 1.21 0.79 0.68 0.68 0.53 0.28 0.28 0.20 0.08 0.05 0.10 0.16 0.27 0.36 0.45 0.34 0.35 0.35 0.50 0.45 0.69 0.55 0.33 0.41 0.32 0.33 0.26 0.06 0.05
1.67 1.06 0.89 0.86 1.09 1.71 1.58 0.80 0.47 0.28 0.16 0.12 0.23 0.31 0.68 0.75 0.71 0.63 0.34 0.38 0.35 0.21 0.11 0.08 0.04 0.07 0.05 0.12 0.20 0.17 0.20 0.17 0.29 0.73 0.53 0.57 0.52 0.40 0.24 0.19 0.24 0.13 0.10 0.03
1.40 0.73 0.67 0.60 0.62 1.02 1.29 0.75 0.65 0.38 0.21 0.09 0.14 0.17 0.39 0.60 0.64 0.69 0.44 0.36 0.34 0.15 0.14 0.13 0.06 0.05 0.06 0.05 0.06 0.10 0.15 0.10 0.21 0.50 0.28 0.48 0.32 0.29 0.43 0.25 0.19 0.06 0.05 0.01
0.85 0.51 0.56 0.67 0.65 0.81 0.70 0.57 0.67 0.38 0.26 0.09 0.11 0.12 0.23 0.42 0.49 0.59 0.50 0.33 0.28 0.24 0.35 0.29 0.23 0.25 0.23 0.11 0.05 0.05 0.05 0.11 0.23 0.37 0.44 0.19 0.06 0.12 0.17 0.12 0.06 0.05 0.05 0.01
0.59 0.39 0.31 0.32 0.30 0.35 0.46 0.61 0.64 0.41 0.28 0.12 0.06 0.08 0.13 0.45 0.64 0.72 0.53 0.37 0.20 0.29 0.45 0.32 0.27 0.34 0.17 0.10 0.06 0.04 0.04 0.05 0.28 0.23 0.23 0.08 0.02 0.00 0.00 0.13 0.26 0.04 0.03 0.02
0.58 0.52 0.41 0.35 0.32 0.38 0.38 0.56 0.57 0.51 0.31 0.04 0.05 0.09 0.15 0.36 0.69 0.87 0.61 0.41 0.37 0.41 0.54 0.29 0.06 0.07 0.03 0.04 0.04 0.06 0.16 0.17 0.22 0.20 0.25 0.02 0.00 0.00 0.00 0.05 0.13 0.06 0.03 0.01
0.56 0.58 0.41 0.28 0.26 0.39 0.35 0.30 0.51 0.48 0.30 0.06 0.03 0.06 0.13 0.14 0.43 1.05 0.83 0.57 0.48 0.48 0.54 0.30 0.07 0.01 0.01 0.01 0.00 0.00 0.05 0.08 0.10 0.06 0.08 0.01 0.00 0.00 0.02 0.03 0.00 0.00 0.00 0.01
0.38 0.45 0.33 0.28 0.29 0.46 0.49 0.26 0.32 0.50 0.38 0.10 0.04 0.04 0.06 0.10 0.26 0.71 0.82 0.58 0.46 0.30 0.33 0.15 0.06 0.02 0.01 0.00 0.02 0.00 0.01 0.00 0.00 0.00 0.01 0.00 0.00 0.00 0.00 0.00 0.00 0.00 0.00 0.00
0.43 0.40 0.34 0.29 0.28 0.45 0.61 0.29 0.30 0.46 0.40 0.13 0.05 0.03 0.02 0.02 0.12 0.30 0.78 0.69 0.57 0.43 0.17 0.22 0.10 0.06 0.02 0.02 0.01 0.00 0.00 0.00 0.00 0.00 0.00 0.00 0.00 0.00 0.00 0.01 0.04 0.01 0.00 0.00
0.39 0.40 0.39 0.28 0.28 0.41 0.56 0.25 0.31 0.41 0.34 0.19 0.04 0.02 0.04 0.04 0.15 0.29 0.51 0.73 0.52 0.46 0.27 0.41 0.31 0.15 0.03 0.02 0.01 0.00 0.00 0.00 0.00 0.00 0.00 0.00 0.00 0.00 0.00 0.07 0.06 0.00 0.00 0.00
0.41 0.41 0.35 0.24 0.28 0.44 0.41 0.17 0.40 0.33 0.42 0.50 0.09 0.03 0.04 0.02 0.16 0.34 0.51 0.77 0.58 0.51 0.48 0.35 0.27 0.20 0.10 0.03 0.00 0.01 0.00 0.00 0.00 0.03 0.00 0.00 0.00 0.00 0.05 0.04 0.03 0.02 0.00 0.03
0.33 0.36 0.33 0.27 0.36 0.69 0.55 0.46 0.43 0.46 0.41 0.75 0.22 0.03 0.03 0.02 0.21 0.45 0.53 0.54 0.51 0.55 0.54 0.36 0.18 0.12 0.16 0.16 0.05 0.01 0.00 0.00 0.00 0.00 0.00 0.00 0.00 0.00 0.00 0.03 0.02 0.02 0.01 0.02
0.39 0.42 0.44 0.39 0.50 0.64 0.67 0.35 0.46 0.42 0.65 0.63 0.21 0.09 0.06 0.06 0.26 0.52 0.64 0.43 0.47 0.65 0.71 0.42 0.18 0.16 0.28 0.19 0.03 0.01 0.00 0.00 0.00 0.00 0.00 0.00 0.00 0.00 0.00 0.00 0.01 0.04 0.05 0.04
0.54 0.67 0.77 0.75 0.65 0.64 0.39 0.13 0.32 0.57 0.86 0.58 0.36 0.13 0.10 0.16 0.54 0.67 0.63 0.63 0.54 0.69 0.57 0.34 0.18 0.19 0.33 0.25 0.01 0.00 0.00 0.00 0.00 0.00 0.00 0.00 0.00 0.00 0.01 0.04 0.09 0.10 0.06 0.02
0.86 0.98 0.94 0.91 0.50 0.31 0.27 0.33 0.57 0.54 0.96 0.94 0.38 0.22 0.27 0.22 0.57 0.58 0.72 0.65 0.75 0.54 0.34 0.24 0.37 0.27 0.16 0.03 0.00 0.00 0.00 0.00 0.00 0.00 0.00 0.00 0.00 0.02 0.07 0.12 0.09 0.03 0.01 0.00
1.13 1.16 1.17 1.04 0.42 0.53 0.86 0.95 0.99 1.15 0.73 0.38 0.28 0.12 0.29 0.29 0.49 0.53 0.73 0.72 0.70 0.54 0.29 0.31 0.38 0.24 0.09 0.02 0.00 0.00 0.00 0.00 0.00 0.00 0.00 0.01 0.04 0.07 0.05 0.02 0.00 0.00 0.00 0.00
1.69 1.74 1.24 0.95 0.98 1.33 1.29 1.02 0.68 0.55 0.41 0.17 0.11 0.14 0.32 0.27 0.59 0.68 0.52 0.78 0.57 0.52 0.37 0.62 0.49 0.32 0.09 0.00 0.00 0.00 0.00 0.00 0.00 0.00 0.00 0.00 0.01 0.00 0.00 0.00 0.00 0.00 0.00 0.00
1.20 0.88 1.09 1.10 1.24 1.40 1.09 0.68 0.40 0.28 0.14 0.22 0.30 0.26 0.28 0.34 0.48 0.76 0.78 0.58 0.70 0.42 0.38 0.62 0.37 0.14 0.02 0.01 0.01 0.00 0.00 0.00 0.00 0.00 0.00 0.00 0.00 0.00 0.00 0.01 0.00 0.00 0.00 0.00
1.49 2.01 2.02 1.34 1.19 0.83 0.50 0.48 0.56 0.51 0.38 0.43 0.44 0.41 0.28 0.42 0.64 0.57 0.73 0.70 0.43 0.31 0.42 0.24 0.08 0.04 0.02 0.02 0.03 0.03 0.05 0.01 0.01 0.01 0.01 0.01 0.01 0.03 0.03 0.04 0.02 0.01 0.01 0.02
2.89 2.69 2.00 0.82 0.81 0.25 0.36 0.36 0.38 0.45 0.47 0.46 0.48 0.58 0.46 0.40 0.62 0.51 0.38 0.36 0.43 0.37 0.16 0.11 0.09 0.05 0.02 0.03 0.07 0.07 0.13 0.23 0.23 0.16 0.08 0.07 0.06 0.07 0.08 0.08 0.07 0.04 0.03 0.04
2.61 1.49 0.74 0.30 0.13 0.08 0.18 0.24 0.24 0.31 0.36 0.38 0.45 0.51 0.44 0.55 0.63 0.43 0.35 0.42 0.32 0.15 0.14 0.25 0.18 0.13 0.10 0.14 0.18 0.18 0.20 0.34 0.46 0.49 0.45 0.43 0.36 0.33 0.26 0.16 0.12 0.12 0.07 0.05
1.95 0.99 0.33 0.08 0.04 0.07 0.13 0.20 0.24 0.29 0.32 0.29 0.36 0.36 0.45 0.56 0.51 0.47 0.43 0.47 0.36 0.31 0.35 0.37 0.28 0.30 0.28 0.26 0.19 0.16 0.13 0.11 0.12 0.12 0.14 0.16 0.17 0.22 0.24 0.22 0.19 0.21 0.20 0.16
1.77 0.50 0.04 0.02 0.03 0.07 0.13 0.18 0.19 0.15 0.20 0.30 0.32 0.26 0.30 0.39 0.49 0.49 0.54 0.60 0.42 0.22 0.12 0.23 0.25 0.32 0.37 0.40 0.30 0.27 0.20 0.14 0.09 0.07 0.07 0.06 0.06 0.07 0.07 0.06 0.08 0.12 0.23 0.31

GFSNW_prec_precacc_126.txt.gz
Total_Precipitation_Accumulation
1.65 1.73 2.01 1.54 1.21 1.33 1.47 1.43 2.00 1.86 1.84 3.56 2.32 1.39 1.19 1.15 1.41 1.58 1.16 0.67 0.34 0.28 0.39 0.73 0.73 0.81 0.91 0.50 0.28 0.24 0.32 0.72 0.82 0.64 0.23 0.25 0.63 0.62 0.58 1.10 0.78 0.87 0.76 1.30
1.40 1.63 1.65 1.19 1.41 1.71 2.08 1.71 1.70 2.51 1.40 1.57 0.93 0.90 1.25 1.38 1.48 1.42 1.00 0.63 0.31 0.21 0.24 0.51 0.34 0.41 0.35 0.24 0.15 0.07 0.21 0.61 0.69 0.78 0.56 0.40 0.71 0.58 0.60 0.65 0.96 1.07 1.10 1.20
1.40 1.36 1.12 1.08 1.25 1.52 1.64 1.67 2.03 3.17 2.67 0.71 0.38 0.77 1.18 1.23 1.16 1.11 0.75 0.67 0.36 0.30 0.22 0.12 0.10 0.15 0.23 0.30 0.35 0.19 0.18 0.29 0.53 0.61 0.60 0.62 0.74 0.53 0.57 0.89 1.25 0.70 0.86 0.53
1.83 1.24 0.82 0.79 0.78 1.08 1.01 1.15 1.03 0.91 1.00 0.43 0.24 0.72 1.03 1.22 1.28 0.83 0.79 0.76 0.31 0.25 0.24 0.10 0.08 0.09 0.19 0.28 0.49 0.50 0.41 0.37 0.55 0.59 0.34 0.37 0.78 0.62 0.54 0.90 0.62 0.76 0.45 0.29
2.03 1.34 0.78 0.56 0.63 1.21 1.11 0.88 0.57 0.23 0.13 0.07 0.13 0.48 0.91 1.21 0.79 0.68 0.68 0.53 0.28 0.28 0.20 0.08 0.05 0.10 0.16 0.27 0.36 0.45 0.34 0.35 0.35 0.50 0.45 0.69 0.55 0.33 0.41 0.33 0.34 0.32 0.10 0.14
1.68 1.06 0.89 0.86 1.09 1.71 1.58 0.80 0.47 0.28 0.16 0.12 0.23 0.31 0.68 0.75 0.71 0.63 0.34 0.38 0.35 0.21 0.11 0.08 0.04 0.07 0.05 0.12 0.20 0.17 0.20 0.17 0.29 0.73 0.53 0.57 0.52 0.40 0.25 0.21 0.25 0.14 0.12 0.05
1.40 0.74 0.69 0.60 0.62 1.02 1.29 0.75 0.65 0.38 0.21 0.09 0.14 0.17 0.39 0.60 0.64 0.69 0.44 0.36 0.34 0.15 0.14 0.13 0.06 0.05 0.06 0.05 0.06 0.10 0.15 0.10 0.21 0.50 0.28 0.48 0.32 0.29 0.43 0.25 0.20 0.06 0.06 0.01
0.86 0.52 0.57 0.67 0.65 0.81 0.70 0.57 0.67 0.38 0.26 0.09 0.11 0.12 0.23 0.42 0.49 0.59 0.50 0.33 0.28 0.24 0.35 0.29 0.23 0.25 0.23 0.11 0.05 0.05 0.05 0.11 0.23 0.37 0.44 0.19 0.06 0.12 0.17 0.12 0.07 0.05 0.05 0.01
0.59 0.39 0.31 0.32 0.30 0.35 0.46 0.61 0.64 0.41 0.28 0.12 0.06 0.08 0.13 0.45 0.64 0.72 0.53 0.37 0.20 0.29 0.45 0.32 0.27 0.34 0.17 0.10 0.06 0.04 0.04 0.05 0.28 0.23 0.23 0.08 0.02 0.00 0.00 0.13 0.26 0.04 0.03 0.02
0.59 0.53 0.42 0.35 0.32 0.38 0.38 0.56 0.57 0.51 0.31 0.04 0.05 0.09 0.15 0.36 0.69 0.87 0.61 0.41 0.37 0.41 0.54 0.29 0.06 0.07 0.03 0.04 0.04 0.06 0.16 0.17 0.22 0.20 0.25 0.02 0.00 0.00 0.00 0.05 0.13 0.06 0.03 0.01
0.56 0.59 0.42 0.28 0.26 0.39 0.35 0.30 0.51 0.48 0.30 0.06 0.03 0.06 0.13 0.14 0.43 1.05 0.83 0.57 0.48 0.48 0.54 0.30 0.07 0.01 0.01 0.01 0.00 0.00 0.05 0.08 0.10 0.06 0.08 0.01 0.00 0.00 0.02 0.03 0.00 0.00 0.00 0.01
0.38 0.46 0.34 0.28 0.29 0.46 0.49 0.26 0.32 0.50 0.38 0.10 0.04 0.04 0.06 0.10 0.26 0.71 0.82 0.58 0.46 0.30 0.33 0.15 0.06 0.02 0.01 0.00 0.02 0.00 0.01 0.00 0.00 0.00 0.01 0.00 0.00 0.00 0.00 0.00 0.00 0.00 0.00 0.00
0.43 0.40 0.36 0.32 0.29 0.46 0.61 0.29 0.30 0.46 0.40 0.13 0.05 0.03 0.02 0.02 0.12 0.30 0.78 0.69 0.57 0.43 0.17 0.22 0.10 0.06 0.02 0.02 0.01 0.00 0.00 0.00 0.00 0.00 0.00 0.00 0.00 0.00 0.00 0.01 0.04 0.01 0.00 0.00
0.39 0.40 0.39 0.29 0.29 0.42 0.56 0.25 0.31 0.41 0.34 0.19 0.04 0.02 0.04 0.04 0.15 0.29 0.51 0.73 0.52 0.46 0.27 0.41 0.31 0.15 0.03 0.02 0.01 0.00 0.00 0.00 0.00 0.00 0.00 0.00 0.00 0.00 0.00 0.07 0.06 0.00 0.00 0.00
0.41 0.41 0.36 0.25 0.30 0.45 0.41 0.17 0.40 0.33 0.42 0.50 0.09 0.03 0.04 0.02 0.16 0.34 0.51 0.77 0.58 0.51 0.48 0.35 0.27 0.20 0.10 0.03 0.00 0.01 0.00 0.00 0.00 0.03 0.00 0.00 0.00 0.00 0.05 0.04 0.03 0.02 0.00 0.03
0.33 0.36 0.34 0.28 0.36 0.69 0.55 0.46 0.43 0.46 0.41 0.75 0.22 0.03 0.03 0.02 0.21 0.45 0.53 0.54 0.51 0.55 0.54 0.36 0.18 0.12 0.16 0.16 0.05 0.01 0.00 0.00 0.00 0.00 0.00 0.00 0.00 0.00 0.00 0.03 0.02 0.02 0.01 0.02
0.39 0.42 0.48 0.43 0.52 0.64 0.67 0.35 0.46 0.42 0.65 0.63 0.21 0.09 0.06 0.06 0.26 0.52 0.64 0.43 0.47 0.65 0.71 0.42 0.18 0.16 0.28 0.19 0.03 0.01 0.00 0.00 0.00 0.00 0.00 0.00 0.00 0.00 0.00 0.00 0.01 0.04 0.05 0.04
0.54 0.67 0.82 0.86 0.70 0.65 0.39 0.13 0.32 0.57 0.86 0.58 0.36 0.13 0.10 0.16 0.54 0.67 0.63 0.63 0.54 0.69 0.57 0.34 0.18 0.19 0.33 0.25 0.01 0.00 0.00 0.00 0.00 0.00 0.00 0.00 0.00 0.00 0.01 0.04 0.09 0.10 0.06 0.02
0.87 1.00 0.99 1.01 0.55 0.32 0.27 0.33 0.57 0.54 0.96 0.94 0.38 0.22 0.27 0.22 0.57 0.58 0.72 0.65 0.75 0.54 0.34 0.24 0.37 0.27 0.16 0.03 0.00 0.00 0.00 0.00 0.00 0.00 0.00 0.00 0.00 0.02 0.07 0.12 0.09 0.03 0.01 0.00
1.17 1.17 1.18 1.08 0.46 0.54 0.86 0.98 0.99 1.15 0.73 0.38 0.28 0.12 0.29 0.29 0.49 0.53 0.73 0.72 0.70 0.54 0.29 0.31 0.38 0.24 0.09 0.02 0.00 0.00 0.00 0.00 0.00 0.00 0.00 0.01 0.04 0.07 0.05 0.02 0.00 0.00 0.00 0.00
1.72 1.75 1.25 0.97 0.99 1.34 1.32 1.08 0.71 0.55 0.41 0.17 0.11 0.14 0.32 0.27 0.59 0.68 0.52 0.78 0.57 0.52 0.37 0.62 0.49 0.32 0.09 0.00 0.00 0.00 0.00 0.00 0.00 0.00 0.00 0.00 0.01 0.00 0.00 0.00 0.00 0.00 0.00 0.00
1.22 0.90 1.11 1.12 1.27 1.45 1.15 0.74 0.41 0.28 0.14 0.22 0.30 0.26 0.28 0.34 0.48 0.77 0.78 0.58 0.70 0.42 0.38 0.62 0.37 0.14 0.02 0.01 0.01 0.00 0.00 0.00 0.00 0.00 0.00 0.00 0.00 0.00 0.00 0.01 0.00 0.00 0.00 0.00
1.51 2.09 2.10 1.40 1.23 0.89 0.57 0.51 0.56 0.51 0.38 0.43 0.44 0.41 0.28 0.42 0.65 0.59 0.75 0.72 0.44 0.31 0.42 0.24 0.08 0.04 0.02 0.02 0.03 0.03 0.05 0.01 0.01 0.01 0.01 0.01 0.01 0.03 0.03 0.04 0.02 0.01 0.01 0.02
2.98 2.83 2.15 0.89 0.86 0.25 0.36 0.36 0.38 0.45 0.47 0.46 0.48 0.58 0.46 0.41 0.64 0.55 0.42 0.37 0.43 0.37 0.16 0.11 0.09 0.05 0.02 0.03 0.07 0.07 0.13 0.23 0.23 0.16 0.08 0.07 0.06 0.07 0.08 0.08 0.07 0.04 0.03 0.04
2.77 1.60 0.78 0.32 0.13 0.08 0.18 0.24 0.24 0.31 0.36 0.38 0.45 0.52 0.45 0.57 0.66 0.45 0.37 0.42 0.32 0.15 0.14 0.25 0.18 0.13 0.10 0.14 0.18 0.18 0.20 0.34 0.46 0.49 0.45 0.43 0.36 0.33 0.26 0.16 0.12 0.12 0.07 0.05
2.12 1.09 0.34 0.09 0.04 0.07 0.13 0.20 0.24 0.29 0.32 0.29 0.36 0.37 0.47 0.58 0.53 0.47 0.44 0.47 0.36 0.31 0.35 0.37 0.28 0.30 0.28 0.26 0.19 0.16 0.13 0.11 0.12 0.12 0.14 0.16 0.17 0.22 0.24 0.22 0.19 0.21 0.20 0.16
2.09 0.60 0.04 0.02 0.03 0.07 0.13 0.18 0.19 0.15 0.20 0.31 0.33 0.27 0.30 0.39 0.49 0.49 0.54 0.60 0.42 0.22 0.12 0.23 0.25 0.32 0.37 0.40 0.30 0.27 0.20 0.14 0.09 0.07 0.07 0.06 0.06 0.07 0.07 0.06 0.08 0.12 0.23 0.31

GFSNW_prec_precacc_129.txt.gz
Total_Precipitation_Accumulation
1.65 1.73 2.02 1.54 1.21 1.33 1.47 1.43 2.00 1.86 1.84 3.56 2.32 1.39 1.19 1.15 1.41 1.58 1.16 0.67 0.34 0.28 0.39 0.73 0.73 0.81 0.91 0.50 0.28 0.24 0.32 0.72 0.82 0.64 0.23 0.31 0.77 0.71 0.62 1.18 0.86 0.91 0.83 1.62
1.40 1.63 1.65 1.19 1.41 1.71 2.08 1.71 1.70 2.51 1.40 1.57 0.93 0.90 1.25 1.38 1.48 1.42 1.00 0.63 0.31 0.21 0.24 0.51 0.34 0.41 0.35 0.24 0.15 0.07 0.21 0.61 0.69 0.78 0.56 0.41 0.76 0.64 0.62 0.67 1.02 1.10 1.24 1.65
1.41 1.36 1.12 1.08 1.25 1.52 1.64 1.67 2.03 3.17 2.67 0.71 0.38 0.77 1.18 1.23 1.16 1.11 0.75 0.67 0.36 0.30 0.22 0.12 0.10 0.15 0.23 0.30 0.35 0.19 0.18 0.29 0.53 0.62 0.61 0.64 0.74 0.56 0.62 0.90 1.29 0.77 1.08 0.78
1.83 1.24 0.82 0.79 0.78 1.08 1.01 1.15 1.03 0.91 1.00 0.43 0.24 0.72 1.03 1.22 1.28 0.83 0.79 0.76 0.31 0.25 0.24 0.10 0.08 0.09 0.19 0.28 0.49 0.50 0.41 0.37 0.55 0.59 0.34 0.37 0.78 0.62 0.56 0.94 0.66 0.89 0.61 0.47
2.03 1.34 0.78 0.56 0.63 1.21 1.11 0.88 0.57 0.23 0.13 0.07 0.13 0.48 0.91 1.21 0.79 0.68 0.68 0.53 0.28 0.28 0.20 0.08 0.05 0.10 0.16 0.27 0.36 0.45 0.34 0.35 0.35 0.50 0.45 0.69 0.55 0.33 0.41 0.33 0.35 0.37 0.13 0.29
1.68 1.06 0.89 0.86 1.09 1.71 1.58 0.80 0.47 0.28 0.16 0.12 0.23 0.31 0.68 0.75 0.71 0.63 0.34 0.38 0.35 0.21 0.11 0.08 0.04 0.07 0.05 0.12 0.20 0.17 0.20 0.17 0.29 0.73 0.53 0.57 0.52 0.40 0.25 0.21 0.25 0.15 0.14 0.07
1.41 0.74 0.69 0.60 0.62 1.02 1.29 0.75 0.65 0.38 0.21 0.09 0.14 0.17 0.39 0.60 0.64 0.69 0.44 0.36 0.34 0.15 0.14 0.13 0.06 0.05 0.06 0.05 0.06 0.10 0.15 0.10 0.21 0.50 0.28 0.48 0.32 0.29 0.43 0.25 0.20 0.06 0.06 0.01
0.86 0.52 0.57 0.67 0.65 0.81 0.70 0.57 0.67 0.38 0.26 0.09 0.11 0.12 0.23 0.42 0.49 0.59 0.50 0.33 0.28 0.24 0.35 0.29 0.23 0.25 0.23 0.11 0.05 0.05 0.05 0.11 0.23 0.37 0.44 0.19 0.06 0.12 0.17 0.12 0.07 0.05 0.05 0.01
0.59 0.39 0.31 0.32 0.30 0.35 0.46 0.61 0.64 0.41 0.28 0.12 0.06 0.08 0.13 0.45 0.64 0.72 0.53 0.37 0.20 0.29 0.45 0.32 0.27 0.34 0.17 0.10 0.06 0.04 0.04 0.05 0.28 0.23 0.23 0.08 0.02 0.00 0.00 0.13 0.26 0.04 0.03 0.02
0.59 0.53 0.42 0.35 0.32 0.38 0.38 0.56 0.57 0.51 0.31 0.04 0.05 0.09 0.15 0.36 0.69 0.87 0.61 0.41 0.37 0.41 0.54 0.29 0.06 0.07 0.03 0.04 0.04 0.06 0.16 0.17 0.22 0.20 0.25 0.02 0.00 0.00 0.00 0.05 0.13 0.06 0.03 0.01
0.56 0.59 0.42 0.28 0.26 0.39 0.35 0.30 0.51 0.48 0.30 0.06 0.03 0.06 0.13 0.14 0.43 1.05 0.83 0.57 0.48 0.48 0.54 0.30 0.07 0.01 0.01 0.01 0.00 0.00 0.05 0.08 0.10 0.06 0.08 0.01 0.00 0.00 0.02 0.03 0.00 0.00 0.00 0.01
0.38 0.46 0.34 0.28 0.29 0.46 0.49 0.26 0.32 0.50 0.38 0.10 0.04 0.04 0.06 0.10 0.26 0.71 0.82 0.58 0.46 0.30 0.33 0.15 0.06 0.02 0.01 0.00 0.02 0.00 0.01 0.00 0.00 0.00 0.01 0.00 0.00 0.00 0.00 0.00 0.00 0.00 0.00 0.00
0.43 0.40 0.36 0.32 0.29 0.46 0.61 0.29 0.30 0.46 0.40 0.13 0.05 0.03 0.02 0.02 0.12 0.30 0.78 0.69 0.57 0.43 0.17 0.22 0.10 0.06 0.02 0.02 0.01 0.00 0.00 0.00 0.00 0.00 0.00 0.00 0.00 0.00 0.00 0.01 0.04 0.01 0.00 0.00
0.39 0.40 0.39 0.29 0.29 0.42 0.56 0.25 0.31 0.41 0.34 0.19 0.04 0.02 0.04 0.04 0.15 0.29 0.51 0.73 0.52 0.46 0.27 0.41 0.31 0.15 0.03 0.02 0.01 0.00 0.00 0.00 0.00 0.00 0.00 0.00 0.00 0.00 0.00 0.07 0.06 0.00 0.00 0.00
0.41 0.41 0.36 0.25 0.30 0.46 0.41 0.17 0.40 0.33 0.42 0.50 0.09 0.03 0.04 0.02 0.16 0.34 0.51 0.77 0.58 0.51 0.48 0.35 0.27 0.20 0.10 0.03 0.00 0.01 0.00 0.00 0.00 0.03 0.00 0.00 0.00 0.00 0.05 0.04 0.03 0.02 0.00 0.03
0.33 0.36 0.34 0.28 0.36 0.69 0.55 0.46 0.43 0.46 0.41 0.75 0.22 0.03 0.03 0.02 0.21 0.45 0.53 0.54 0.51 0.55 0.54 0.36 0.18 0.12 0.16 0.16 0.05 0.01 0.00 0.00 0.00 0.00 0.00 0.00 0.00 0.00 0.00 0.03 0.02 0.02 0.01 0.02
0.39 0.42 0.48 0.43 0.52 0.64 0.67 0.35 0.46 0.42 0.65 0.63 0.21 0.09 0.06 0.06 0.26 0.52 0.64 0.43 0.47 0.65 0.71 0.42 0.18 0.16 0.28 0.19 0.03 0.01 0.00 0.00 0.00 0.00 0.00 0.00 0.00 0.00 0.00 0.00 0.01 0.04 0.05 0.04
0.54 0.67 0.82 0.88 0.72 0.65 0.39 0.13 0.32 0.57 0.86 0.58 0.36 0.13 0.10 0.16 0.54 0.67 0.63 0.63 0.54 0.69 0.57 0.34 0.18 0.19 0.33 0.25 0.01 0.00 0.00 0.00 0.00 0.00 0.00 0.00 0.00 0.00 0.01 0.04 0.09 0.10 0.06 0.02
0.87 1.00 1.00 1.02 0.56 0.32 0.28 0.33 0.57 0.54 0.96 0.94 0.38 0.22 0.27 0.22 0.57 0.58 0.72 0.65 0.75 0.54 0.34 0.24 0.37 0.27 0.16 0.03 0.00 0.00 0.00 0.00 0.00 0.00 0.00 0.00 0.00 0.02 0.07 0.12 0.09 0.03 0.01 0.00
1.17 1.17 1.18 1.08 0.46 0.54 0.86 0.98 0.99 1.15 0.73 0.38 0.28 0.12 0.29 0.29 0.49 0.53 0.74 0.73 0.70 0.54 0.29 0.31 0.38 0.24 0.09 0.02 0.00 0.00 0.00 0.00 0.00 0.00 0.00 0.01 0.04 0.07 0.05 0.02 0.00 0.00 0.00 0.00
1.72 1.75 1.25 0.97 0.99 1.34 1.32 1.08 0.72 0.55 0.42 0.17 0.11 0.14 0.32 0.27 0.59 0.68 0.53 0.78 0.57 0.52 0.37 0.62 0.49 0.32 0.09 0.00 0.00 0.00 0.00 0.00 0.00 0.00 0.00 0.00 0.01 0.00 0.00 0.00 0.00 0.00 0.00 0.00
1.22 0.91 1.11 1.12 1.27 1.46 1.15 0.76 0.42 0.28 0.14 0.22 0.30 0.26 0.28 0.34 0.48 0.77 0.79 0.59 0.71 0.42 0.38 0.62 0.37 0.14 0.02 0.01 0.01 0.00 0.00 0.00 0.00 0.00 0.00 0.00 0.00 0.00 0.00 0.01 0.00 0.00 0.00 0.00
1.51 2.09 2.10 1.40 1.24 0.90 0.59 0.52 0.57 0.51 0.38 0.43 0.44 0.41 0.28 0.42 0.65 0.59 0.75 0.73 0.44 0.31 0.42 0.24 0.08 0.04 0.02 0.02 0.03 0.03 0.05 0.01 0.01 0.01 0.01 0.01 0.01 0.03 0.03 0.04 0.02 0.01 0.01 0.02
3.00 2.85 2.17 0.90 0.86 0.26 0.36 0.36 0.38 0.45 0.47 0.46 0.48 0.58 0.46 0.41 0.64 0.55 0.42 0.37 0.43 0.37 0.16 0.11 0.09 0.05 0.02 0.03 0.07 0.07 0.13 0.23 0.23 0.16 0.08 0.07 0.06 0.07 0.08 0.08 0.07 0.04 0.03 0.04
2.80 1.61 0.78 0.32 0.13 0.08 0.18 0.24 0.24 0.31 0.36 0.38 0.45 0.52 0.45 0.57 0.66 0.45 0.37 0.42 0.32 0.15 0.14 0.25 0.18 0.13 0.10 0.14 0.18 0.18 0.20 0.34 0.46 0.49 0.45 0.43 0.36 0.33 0.26 0.16 0.12 0.12 0.07 0.05
2.14 1.11 0.34 0.09 0.04 0.07 0.13 0.20 0.24 0.29 0.32 0.29 0.36 0.37 0.47 0.58 0.53 0.47 0.44 0.47 0.36 0.31 0.35 0.37 0.28 0.30 0.28 0.26 0.19 0.16 0.13 0.11 0.12 0.12 0.14 0.16 0.17 0.22 0.24 0.22 0.19 0.21 0.20 0.16
2.15 0.61 0.04 0.02 0.03 0.07 0.13 0.18 0.19 0.15 0.20 0.31 0.33 0.27 0.30 0.39 0.49 0.49 0.54 0.60 0.42 0.22 0.12 0.23 0.25 0.32 0.37 0.40 0.30 0.27 0.20 0.14 0.09 0.07 0.07 0.06 0.06 0.07 0.07 0.06 0.08 0.12 0.23 0.31

GFSNW_prec_precacc_132.txt.gz
Total_Precipitation_Accumulation
1.65 1.73 2.02 1.54 1.21 1.33 1.47 1.43 2.00 1.86 1.84 3.56 2.32 1.39 1.19 1.15 1.41 1.58 1.16 0.67 0.34 0.28 0.39 0.73 0.73 0.81 0.91 0.50 0.28 0.24 0.32 0.72 0.82 0.64 0.23 0.31 0.81 0.77 0.66 1.25 0.92 0.94 0.86 1.71
1.40 1.63 1.65 1.19 1.41 1.71 2.08 1.71 1.70 2.51 1.40 1.57 0.93 0.90 1.25 1.38 1.48 1.42 1.00 0.63 0.31 0.21 0.24 0.51 0.34 0.41 0.35 0.24 0.15 0.07 0.21 0.61 0.69 0.78 0.56 0.41 0.78 0.73 0.67 0.69 1.07 1.14 1.32 1.85
1.41 1.36 1.12 1.08 1.25 1.52 1.64 1.67 2.03 3.17 2.67 0.71 0.38 0.77 1.18 1.23 1.16 1.11 0.75 0.67 0.36 0.30 0.22 0.12 0.10 0.15 0.23 0.30 0.35 0.19 0.18 0.29 0.53 0.62 0.62 0.64 0.74 0.59 0.67 0.92 1.34 0.83 1.22 0.99
1.83 1.24 0.82 0.79 0.78 1.08 1.01 1.15 1.03 0.91 1.00 0.43 0.24 0.72 1.03 1.22 1.28 0.83 0.79 0.76 0.31 0.25 0.24 0.10 0.08 0.09 0.19 0.28 0.49 0.50 0.41 0.37 0.55 0.59 0.34 0.37 0.78 0.62 0.57 0.99 0.72 1.00 0.74 0.61
2.03 1.34 0.78 0.56 0.63 1.21 1.11 0.88 0.57 0.23 0.13 0.07 0.13 0.48 0.91 1.21 0.79 0.68 0.68 0.53 0.28 0.28 0.20 0.08 0.05 0.10 0.16 0.27 0.36 0.45 0.34 0.35 0.35 0.50 0.45 0.69 0.55 0.33 0.41 0.34 0.38 0.41 0.16 0.41
1.68 1.06 0.89 0.86 1.09 1.71 1.58 0.80 0.47 0.28 0.16 0.12 0.23 0.31 0.68 0.75 0.71 0.63 0.34 0.38 0.35 0.21 0.11 0.08 0.04 0.07 0.05 0.12 0.20 0.17 0.20 0.17 0.29 0.73 0.53 0.57 0.52 0.40 0.25 0.21 0.26 0.17 0.17 0.16
1.41 0.74 0.69 0.60 0.62 1.02 1.29 0.75 0.65 0.38 0.21 0.09 0.14 0.17 0.39 0.60 0.64 0.69 0.44 0.36 0.34 0.15 0.14 0.13 0.06 0.05 0.06 0.05 0.06 0.10 0.15 0.10 0.21 0.50 0.28 0.48 0.32 0.29 0.43 0.25 0.20 0.06 0.06 0.01
0.86 0.52 0.57 0.67 0.65 0.81 0.70 0.57 0.67 0.38 0.26 0.09 0.11 0.12 0.23 0.42 0.49 0.59 0.50 0.33 0.28 0.24 0.35 0.29 0.23 0.25 0.23 0.11 0.05 0.05 0.05 0.11 0.23 0.37 0.44 0.19 0.06 0.12 0.17 0.12 0.07 0.05 0.05 0.01
0.59 0.39 0.31 0.32 0.30 0.35 0.46 0.61 0.64 0.41 0.28 0.12 0.06 0.08 0.13 0.45 0.64 0.72 0.53 0.37 0.20 0.29 0.45 0.32 0.27 0.34 0.17 0.10 0.06 0.04 0.04 0.05 0.28 0.23 0.23 0.08 0.02 0.00 0.00 0.13 0.26 0.04 0.03 0.02
0.59 0.53 0.42 0.35 0.32 0.38 0.38 0.56 0.57 0.51 0.31 0.04 0.05 0.09 0.15 0.36 0.69 0.87 0.61 0.41 0.37 0.41 0.54 0.29 0.06 0.07 0.03 0.04 0.04 0.06 0.16 0.17 0.22 0.20 0.25 0.02 0.00 0.00 0.00 0.05 0.13 0.06 0.03 0.01
0.56 0.59 0.42 0.28 0.26 0.39 0.35 0.30 0.51 0.48 0.30 0.06 0.03 0.06 0.13 0.14 0.43 1.05 0.83 0.57 0.48 0.48 0.54 0.30 0.07 0.01 0.01 0.01 0.00 0.00 0.05 0.08 0.10 0.06 0.08 0.01 0.00 0.00 0.02 0.03 0.00 0.00 0.00 0.01
0.38 0.46 0.34 0.28 0.30 0.46 0.49 0.26 0.32 0.50 0.38 0.10 0.04 0.04 0.06 0.10 0.26 0.71 0.82 0.58 0.46 0.30 0.33 0.15 0.06 0.02 0.01 0.00 0.02 0.00 0.01 0.00 0.00 0.00 0.01 0.00 0.00 0.00 0.00 0.00 0.00 0.00 0.00 0.00
0.43 0.40 0.36 0.32 0.30 0.46 0.61 0.29 0.30 0.46 0.40 0.13 0.05 0.03 0.02 0.02 0.12 0.30 0.78 0.69 0.57 0.43 0.17 0.22 0.10 0.06 0.02 0.02 0.01 0.00 0.00 0.00 0.00 0.00 0.00 0.00 0.00 0.00 0.00 0.01 0.04 0.01 0.00 0.00
0.39 0.40 0.39 0.29 0.29 0.42 0.56 0.25 0.31 0.41 0.34 0.19 0.04 0.02 0.04 0.04 0.15 0.29 0.51 0.73 0.52 0.46 0.27 0.41 0.31 0.15 0.03 0.02 0.01 0.00 0.00 0.00 0.00 0.00 0.00 0.00 0.00 0.00 0.00 0.07 0.06 0.00 0.00 0.00
0.41 0.41 0.36 0.25 0.30 0.46 0.41 0.17 0.40 0.33 0.42 0.50 0.09 0.03 0.04 0.02 0.16 0.34 0.51 0.77 0.58 0.51 0.48 0.35 0.27 0.20 0.10 0.03 0.00 0.01 0.00 0.00 0.00 0.03 0.00 0.00 0.00 0.00 0.05 0.04 0.03 0.02 0.00 0.03
0.33 0.36 0.34 0.28 0.36 0.70 0.55 0.46 0.43 0.46 0.41 0.75 0.22 0.03 0.03 0.02 0.21 0.45 0.53 0.54 0.51 0.55 0.54 0.36 0.18 0.12 0.16 0.16 0.05 0.01 0.00 0.00 0.00 0.00 0.00 0.00 0.00 0.00 0.00 0.03 0.02 0.02 0.01 0.02
0.39 0.42 0.48 0.43 0.52 0.64 0.67 0.35 0.46 0.42 0.65 0.63 0.21 0.09 0.06 0.06 0.26 0.52 0.64 0.43 0.47 0.65 0.71 0.42 0.18 0.16 0.28 0.19 0.03 0.01 0.00 0.00 0.00 0.00 0.00 0.00 0.00 0.00 0.00 0.00 0.01 0.04 0.05 0.04
0.54 0.67 0.82 0.88 0.73 0.66 0.39 0.13 0.32 0.57 0.86 0.58 0.36 0.13 0.10 0.16 0.54 0.67 0.63 0.63 0.54 0.69 0.57 0.34 0.18 0.19 0.33 0.25 0.01 0.00 0.00 0.00 0.00 0.00 0.00 0.00 0.00 0.00 0.01 0.04 0.09 0.10 0.06 0.02
0.87 1.00 1.00 1.02 0.56 0.32 0.28 0.33 0.57 0.54 0.96 0.94 0.38 0.22 0.27 0.22 0.57 0.58 0.72 0.65 0.75 0.54 0.34 0.24 0.37 0.27 0.16 0.03 0.00 0.00 0.00 0.00 0.00 0.00 0.00 0.00 0.00 0.02 0.07 0.12 0.09 0.03 0.01 0.00
1.18 1.18 1.18 1.08 0.46 0.55 0.86 0.98 0.99 1.15 0.73 0.38 0.28 0.12 0.29 0.29 0.49 0.53 0.74 0.73 0.70 0.54 0.29 0.31 0.38 0.24 0.09 0.02 0.00 0.00 0.00 0.00 0.00 0.00 0.00 0.01 0.04 0.07 0.05 0.02 0.00 0.00 0.00 0.00
1.74 1.76 1.25 0.97 0.99 1.34 1.32 1.08 0.72 0.56 0.42 0.17 0.12 0.14 0.32 0.27 0.59 0.68 0.53 0.78 0.57 0.52 0.37 0.62 0.49 0.32 0.09 0.00 0.00 0.00 0.00 0.00 0.00 0.00 0.00 0.00 0.01 0.00 0.00 0.00 0.00 0.00 0.00 0.00
1.24 0.94 1.13 1.12 1.27 1.46 1.16 0.77 0.42 0.29 0.14 0.22 0.30 0.26 0.28 0.34 0.48 0.77 0.79 0.59 0.71 0.42 0.38 0.62 0.37 0.14 0.02 0.01 0.01 0.00 0.00 0.00 0.00 0.00 0.00 0.00 0.00 0.00 0.00 0.01 0.00 0.00 0.00 0.00
1.63 2.17 2.13 1.41 1.25 0.92 0.60 0.52 0.57 0.51 0.38 0.43 0.44 0.41 0.28 0.42 0.65 0.59 0.75 0.73 0.44 0.31 0.42 0.24 0.08 0.04 0.02 0.02 0.03 0.03 0.05 0.01 0.01 0.01 0.01 0.01 0.01 0.03 0.03 0.04 0.02 0.01 0.01 0.02
3.18 2.92 2.20 0.91 0.87 0.26 0.36 0.36 0.38 0.45 0.47 0.46 0.48 0.58 0.46 0.41 0.64 0.55 0.42 0.37 0.43 0.37 0.17 0.11 0.09 0.05 0.02 0.03 0.07 0.07 0.13 0.23 0.23 0.16 0.08 0.07 0.06 0.07 0.08 0.08 0.07 0.04 0.03 0.04
2.93 1.64 0.78 0.32 0.13 0.08 0.18 0.24 0.24 0.31 0.36 0.38 0.45 0.52 0.45 0.57 0.66 0.45 0.37 0.42 0.32 0.15 0.14 0.25 0.18 0.13 0.10 0.14 0.18 0.18 0.20 0.34 0.46 0.49 0.45 0.43 0.36 0.33 0.26 0.16 0.12 0.12 0.07 0.05
2.24 1.14 0.35 0.09 0.04 0.07 0.13 0.20 0.24 0.29 0.32 0.29 0.36 0.37 0.47 0.58 0.53 0.47 0.44 0.47 0.36 0.31 0.35 0.37 0.28 0.30 0.28 0.26 0.19 0.16 0.13 0.11 0.12 0.12 0.14 0.16 0.17 0.22 0.24 0.22 0.19 0.21 0.20 0.16
2.22 0.63 0.04 0.02 0.03 0.07 0.13 0.18 0.19 0.15 0.20 0.31 0.33 0.27 0.30 0.39 0.49 0.49 0.54 0.60 0.42 0.22 0.12 0.23 0.25 0.32 0.37 0.40 0.30 0.27 0.20 0.14 0.09 0.07 0.07 0.06 0.06 0.07 0.07 0.06 0.08 0.12 0.23 0.31

GFSNW_prec_precacc_135.txt.gz
Total_Precipitation_Accumulation
1.65 1.73 2.02 1.54 1.21 1.33 1.47 1.43 2.00 1.86 1.84 3.56 2.32 1.39 1.19 1.15 1.41 1.58 1.16 0.67 0.34 0.28 0.39 0.73 0.73 0.81 0.91 0.50 0.28 0.24 0.32 0.72 0.82 0.64 0.23 0.31 0.82 0.83 0.69 1.29 0.96 0.98 0.93 1.79
1.40 1.63 1.65 1.19 1.41 1.71 2.08 1.71 1.70 2.51 1.40 1.57 0.93 0.90 1.25 1.38 1.48 1.42 1.00 0.63 0.31 0.21 0.24 0.51 0.34 0.41 0.35 0.24 0.15 0.07 0.21 0.61 0.69 0.78 0.56 0.41 0.78 0.75 0.72 0.71 1.09 1.17 1.43 2.05
1.41 1.36 1.12 1.08 1.25 1.52 1.64 1.67 2.03 3.17 2.67 0.71 0.38 0.77 1.18 1.23 1.16 1.11 0.75 0.67 0.36 0.30 0.22 0.12 0.10 0.15 0.23 0.30 0.35 0.19 0.18 0.29 0.53 0.62 0.62 0.65 0.74 0.59 0.69 0.95 1.40 0.87 1.33 1.16
1.83 1.24 0.82 0.79 0.78 1.08 1.01 1.15 1.03 0.91 1.00 0.43 0.24 0.72 1.03 1.22 1.28 0.83 0.79 0.76 0.31 0.25 0.24 0.10 0.08 0.09 0.19 0.28 0.49 0.50 0.41 0.37 0.55 0.59 0.34 0.37 0.78 0.62 0.57 1.01 0.77 1.09 0.82 0.70
2.03 1.34 0.78 0.56 0.63 1.21 1.11 0.88 0.57 0.23 0.13 0.07 0.13 0.48 0.91 1.21 0.79 0.68 0.68 0.53 0.28 0.28 0.20 0.08 0.05 0.10 0.16 0.27 0.36 0.45 0.34 0.35 0.35 0.50 0.45 0.69 0.55 0.33 0.41 0.34 0.39 0.43 0.18 0.44
1.68 1.06 0.89 0.86 1.09 1.71 1.58 0.80 0.47 0.28 0.16 0.12 0.23 0.31 0.68 0.75 0.71 0.63 0.34 0.38 0.35 0.21 0.11 0.08 0.04 0.07 0.05 0.12 0.20 0.17 0.20 0.17 0.29 0.73 0.53 0.57 0.52 0.40 0.25 0.21 0.26 0.17 0.18 0.20
1.41 0.74 0.69 0.60 0.62 1.02 1.29 0.75 0.65 0.38 0.21 0.09 0.14 0.17 0.39 0.60 0.64 0.69 0.44 0.36 0.34 0.15 0.14 0.13 0.06 0.05 0.06 0.05 0.06 0.10 0.15 0.10 0.21 0.50 0.28 0.48 0.32 0.29 0.43 0.25 0.20 0.06 0.06 0.02
0.86 0.52 0.57 0.67 0.65 0.81 0.70 0.57 0.67 0.38 0.26 0.09 0.11 0.12 0.23 0.42 0.49 0.59 0.50 0.33 0.28 0.24 0.35 0.29 0.23 0.25 0.23 0.11 0.05 0.05 0.05 0.11 0.23 0.37 0.44 0.19 0.06 0.12 0.17 0.12 0.07 0.05 0.05 0.01
0.59 0.39 0.31 0.32 0.30 0.35 0.46 0.61 0.64 0.41 0.28 0.12 0.06 0.08 0.13 0.45 0.64 0.72 0.53 0.37 0.20 0.29 0.45 0.32 0.27 0.34 0.17 0.10 0.06 0.04 0.04 0.05 0.28 0.23 0.23 0.08 0.02 0.00 0.00 0.13 0.26 0.04 0.03 0.02
0.59 0.53 0.42 0.35 0.32 0.38 0.38 0.56 0.57 0.51 0.31 0.04 0.05 0.09 0.15 0.36 0.69 0.87 0.61 0.41 0.37 0.41 0.54 0.29 0.06 0.07 0.03 0.04 0.04 0.06 0.16 0.17 0.22 0.20 0.25 0.02 0.00 0.00 0.00 0.05 0.13 0.06 0.03 0.01
0.56 0.59 0.42 0.28 0.26 0.39 0.35 0.30 0.51 0.48 0.30 0.06 0.03 0.06 0.13 0.14 0.43 1.05 0.83 0.57 0.48 0.48 0.54 0.30 0.07 0.01 0.01 0.01 0.00 0.00 0.05 0.08 0.10 0.06 0.08 0.01 0.00 0.00 0.02 0.03 0.00 0.00 0.00 0.01
0.38 0.46 0.34 0.28 0.30 0.46 0.49 0.26 0.32 0.50 0.38 0.10 0.04 0.04 0.06 0.10 0.26 0.71 0.82 0.58 0.46 0.30 0.33 0.15 0.06 0.02 0.01 0.00 0.02 0.00 0.01 0.00 0.00 0.00 0.01 0.00 0.00 0.00 0.00 0.00 0.00 0.00 0.00 0.00
0.43 0.40 0.36 0.32 0.30 0.47 0.61 0.29 0.30 0.46 0.40 0.13 0.05 0.03 0.02 0.02 0.12 0.30 0.78 0.69 0.57 0.43 0.17 0.22 0.10 0.06 0.02 0.02 0.01 0.00 0.00 0.00 0.00 0.00 0.00 0.00 0.00 0.00 0.00 0.01 0.04 0.01 0.00 0.00
0.39 0.40 0.39 0.29 0.29 0.43 0.57 0.25 0.31 0.41 0.34 0.19 0.04 0.02 0.04 0.04 0.15 0.29 0.51 0.73 0.52 0.46 0.27 0.41 0.31 0.15 0.03 0.02 0.01 0.00 0.00 0.00 0.00 0.00 0.00 0.00 0.00 0.00 0.00 0.07 0.06 0.00 0.00 0.00
0.41 0.41 0.36 0.25 0.30 0.46 0.41 0.17 0.40 0.33 0.42 0.50 0.09 0.03 0.04 0.02 0.16 0.34 0.51 0.77 0.58 0.51 0.48 0.35 0.27 0.20 0.10 0.03 0.00 0.01 0.00 0.00 0.00 0.03 0.00 0.00 0.00 0.00 0.05 0.04 0.03 0.02 0.00 0.03
0.33 0.36 0.34 0.28 0.36 0.70 0.56 0.46 0.43 0.46 0.41 0.75 0.22 0.03 0.03 0.02 0.21 0.45 0.53 0.54 0.51 0.55 0.54 0.36 0.18 0.12 0.16 0.16 0.05 0.01 0.00 0.00 0.00 0.00 0.00 0.00 0.00 0.00 0.00 0.03 0.02 0.02 0.01 0.02
0.39 0.42 0.48 0.43 0.52 0.64 0.67 0.35 0.46 0.42 0.65 0.63 0.21 0.09 0.06 0.06 0.26 0.52 0.64 0.43 0.47 0.65 0.71 0.42 0.18 0.16 0.28 0.19 0.03 0.01 0.00 0.00 0.00 0.00 0.00 0.00 0.00 0.00 0.00 0.00 0.01 0.04 0.05 0.04
0.56 0.68 0.82 0.88 0.73 0.66 0.39 0.13 0.32 0.57 0.86 0.58 0.36 0.13 0.10 0.16 0.54 0.67 0.63 0.63 0.54 0.69 0.57 0.34 0.18 0.19 0.33 0.25 0.01 0.00 0.00 0.00 0.00 0.00 0.00 0.00 0.00 0.00 0.01 0.04 0.09 0.10 0.06 0.02
0.94 1.02 1.00 1.02 0.56 0.32 0.28 0.33 0.57 0.54 0.96 0.94 0.38 0.22 0.27 0.22 0.57 0.58 0.72 0.65 0.75 0.54 0.34 0.24 0.37 0.27 0.16 0.03 0.00 0.00 0.00 0.00 0.00 0.00 0.00 0.00 0.00 0.02 0.07 0.12 0.09 0.03 0.01 0.00
1.28 1.22 1.20 1.09 0.46 0.55 0.86 0.98 0.99 1.15 0.73 0.38 0.28 0.12 0.29 0.29 0.49 0.53 0.74 0.73 0.70 0.54 0.29 0.31 0.38 0.24 0.09 0.02 0.00 0.00 0.00 0.00 0.00 0.00 0.00 0.01 0.04 0.07 0.05 0.02 0.00 0.00 0.00 0.00
1.86 1.79 1.28 1.01 1.02 1.35 1.32 1.08 0.72 0.56 0.43 0.18 0.12 0.14 0.32 0.27 0.59 0.68 0.53 0.78 0.57 0.52 0.37 0.62 0.49 0.32 0.09 0.00 0.00 0.00 0.00 0.00 0.00 0.00 0.00 0.00 0.01 0.00 0.00 0.00 0.00 0.00 0.00 0.00
1.30 1.03 1.26 1.25 1.32 1.49 1.17 0.78 0.42 0.29 0.14 0.22 0.30 0.26 0.28 0.34 0.48 0.77 0.79 0.59 0.71 0.42 0.38 0.62 0.37 0.14 0.02 0.01 0.01 0.00 0.00 0.00 0.00 0.00 0.00 0.00 0.00 0.00 0.00 0.01 0.00 0.00 0.00 0.00
1.86 2.45 2.31 1.50 1.29 0.97 0.62 0.53 0.57 0.51 0.39 0.43 0.44 0.41 0.28 0.42 0.65 0.59 0.75 0.73 0.44 0.31 0.42 0.24 0.08 0.04 0.02 0.02 0.03 0.03 0.05 0.01 0.01 0.01 0.01 0.01 0.01 0.03 0.03 0.04 0.02 0.01 0.01 0.02
3.53 3.19 2.34 0.94 0.88 0.26 0.36 0.36 0.38 0.45 0.47 0.46 0.48 0.58 0.46 0.41 0.64 0.55 0.42 0.37 0.43 0.37 0.17 0.11 0.09 0.05 0.02 0.03 0.07 0.07 0.13 0.23 0.23 0.16 0.08 0.07 0.06 0.07 0.08 0.08 0.07 0.04 0.03 0.04
3.30 1.83 0.82 0.32 0.13 0.08 0.18 0.24 0.24 0.31 0.36 0.38 0.45 0.52 0.45 0.57 0.66 0.45 0.37 0.42 0.32 0.15 0.14 0.25 0.18 0.13 0.10 0.14 0.18 0.18 0.20 0.34 0.46 0.49 0.45 0.43 0.36 0.33 0.26 0.16 0.12 0.12 0.07 0.05
2.55 1.25 0.35 0.09 0.04 0.07 0.13 0.20 0.24 0.29 0.32 0.29 0.36 0.37 0.47 0.58 0.53 0.47 0.44 0.47 0.36 0.31 0.35 0.37 0.28 0.30 0.28 0.26 0.19 0.16 0.13 0.11 0.12 0.12 0.14 0.16 0.17 0.22 0.24 0.22 0.19 0.21 0.20 0.16
2.49 0.71 0.05 0.02 0.03 0.07 0.13 0.18 0.19 0.15 0.20 0.31 0.33 0.27 0.30 0.39 0.49 0.49 0.54 0.60 0.42 0.22 0.12 0.23 0.25 0.32 0.37 0.40 0.30 0.27 0.20 0.14 0.09 0.07 0.07 0.06 0.06 0.07 0.07 0.06 0.08 0.12 0.23 0.31

GFSNW_prec_precacc_141.txt.gz
Total_Precipitation_Accumulation
1.65 1.73 2.02 1.54 1.21 1.33 1.47 1.43 2.00 1.86 1.84 3.56 2.32 1.39 1.19 1.15 1.41 1.58 1.16 0.67 0.34 0.28 0.39 0.73 0.73 0.81 0.91 0.50 0.28 0.24 0.32 0.72 0.82 0.64 0.23 0.31 0.83 0.87 0.77 1.41 1.04 1.06 1.01 1.82
1.40 1.63 1.65 1.19 1.41 1.71 2.08 1.71 1.70 2.51 1.40 1.57 0.93 0.90 1.25 1.38 1.48 1.42 1.00 0.63 0.31 0.21 0.24 0.51 0.34 0.41 0.35 0.24 0.15 0.07 0.21 0.61 0.69 0.78 0.56 0.41 0.78 0.75 0.75 0.77 1.14 1.22 1.57 2.15
1.41 1.36 1.12 1.08 1.25 1.52 1.64 1.67 2.03 3.17 2.67 0.71 0.38 0.77 1.18 1.23 1.16 1.11 0.75 0.67 0.36 0.30 0.22 0.12 0.10 0.15 0.23 0.30 0.35 0.19 0.18 0.29 0.53 0.62 0.62 0.65 0.74 0.59 0.70 0.98 1.46 0.92 1.50 1.33
1.83 1.24 0.82 0.79 0.78 1.08 1.01 1.15 1.03 0.91 1.00 0.43 0.24 0.72 1.03 1.22 1.28 0.83 0.79 0.76 0.31 0.25 0.24 0.10 0.08 0.09 0.19 0.28 0.49 0.50 0.41 0.37 0.55 0.59 0.34 0.37 0.78 0.62 0.57 1.02 0.80 1.17 0.92 0.80
2.03 1.34 0.78 0.56 0.63 1.21 1.11 0.88 0.57 0.23 0.13 0.07 0.13 0.48 0.91 1.21 0.79 0.68 0.68 0.53 0.28 0.28 0.20 0.08 0.05 0.10 0.16 0.27 0.36 0.45 0.34 0.35 0.35 0.50 0.45 0.69 0.55 0.33 0.41 0.34 0.39 0.44 0.20 0.47
1.68 1.06 0.89 0.86 1.09 1.71 1.58 0.80 0.47 0.28 0.16 0.12 0.23 0.31 0.68 0.75 0.71 0.63 0.34 0.38 0.35 0.21 0.11 0.08 0.04 0.07 0.05 0.12 0.20 0.17 0.20 0.17 0.29 0.73 0.53 0.57 0.52 0.40 0.25 0.21 0.26 0.17 0.18 0.20
1.41 0.74 0.69 0.60 0.62 1.02 1.29 0.75 0.65 0.38 0.21 0.09 0.14 0.17 0.39 0.60 0.64 0.69 0.44 0.36 0.34 0.15 0.14 0.13 0.06 0.05 0.06 0.05 0.06 0.10 0.15 0.10 0.21 0.50 0.28 0.48 0.32 0.29 0.43 0.25 0.20 0.06 0.06 0.02
0.86 0.52 0.58 0.67 0.65 0.81 0.70 0.57 0.67 0.38 0.26 0.09 0.11 0.12 0.23 0.42 0.49 0.59 0.50 0.33 0.28 0.24 0.35 0.29 0.23 0.25 0.23 0.11 0.05 0.05 0.05 0.11 0.23 0.37 0.44 0.19 0.06 0.12 0.17 0.12 0.07 0.05 0.05 0.01
0.59 0.39 0.31 0.32 0.30 0.35 0.46 0.61 0.64 0.41 0.28 0.12 0.06 0.08 0.13 0.45 0.64 0.72 0.53 0.37 0.20 0.29 0.45 0.32 0.27 0.34 0.17 0.10 0.06 0.04 0.04 0.05 0.28 0.23 0.23 0.08 0.02 0.00 0.00 0.13 0.26 0.04 0.03 0.02
0.59 0.53 0.42 0.35 0.32 0.38 0.38 0.56 0.57 0.51 0.31 0.04 0.05 0.09 0.15 0.36 0.69 0.87 0.61 0.41 0.37 0.41 0.54 0.29 0.06 0.07 0.03 0.04 0.04 0.06 0.16 0.17 0.22 0.20 0.25 0.02 0.00 0.00 0.00 0.05 0.13 0.06 0.03 0.01
0.56 0.59 0.42 0.28 0.26 0.39 0.35 0.30 0.51 0.48 0.30 0.06 0.03 0.06 0.13 0.14 0.43 1.05 0.83 0.57 0.48 0.48 0.54 0.30 0.07 0.01 0.01 0.01 0.00 0.00 0.05 0.08 0.10 0.06 0.08 0.01 0.00 0.00 0.02 0.03 0.00 0.00 0.00 0.01
0.38 0.46 0.34 0.28 0.30 0.47 0.49 0.26 0.32 0.50 0.38 0.10 0.04 0.04 0.06 0.10 0.26 0.71 0.82 0.58 0.46 0.30 0.33 0.15 0.06 0.02 0.01 0.00 0.02 0.00 0.01 0.00 0.00 0.00 0.01 0.00 0.00 0.00 0.00 0.00 0.00 0.00 0.00 0.00
0.43 0.40 0.36 0.32 0.30 0.47 0.62 0.29 0.30 0.46 0.40 0.13 0.05 0.03 0.02 0.02 0.12 0.30 0.78 0.69 0.57 0.43 0.17 0.22 0.10 0.06 0.02 0.02 0.01 0.00 0.00 0.00 0.00 0.00 0.00 0.00 0.00 0.00 0.00 0.01 0.04 0.01 0.00 0.00
0.39 0.40 0.39 0.29 0.29 0.43 0.57 0.25 0.31 0.41 0.34 0.19 0.04 0.02 0.04 0.04 0.15 0.29 0.51 0.73 0.52 0.46 0.27 0.41 0.31 0.15 0.03 0.02 0.01 0.00 0.00 0.00 0.00 0.00 0.00 0.00 0.00 0.00 0.00 0.07 0.06 0.00 0.00 0.00
0.41 0.41 0.36 0.25 0.30 0.46 0.41 0.17 0.40 0.33 0.42 0.50 0.09 0.03 0.04 0.02 0.16 0.34 0.51 0.77 0.58 0.51 0.48 0.35 0.27 0.20 0.10 0.03 0.00 0.01 0.00 0.00 0.00 0.03 0.00 0.00 0.00 0.00 0.05 0.04 0.03 0.02 0.00 0.03
0.36 0.37 0.35 0.29 0.36 0.70 0.56 0.46 0.43 0.46 0.41 0.75 0.22 0.03 0.03 0.02 0.21 0.45 0.53 0.54 0.51 0.55 0.54 0.36 0.18 0.12 0.16 0.16 0.05 0.01 0.00 0.00 0.00 0.00 0.00 0.00 0.00 0.00 0.00 0.03 0.02 0.02 0.01 0.02
0.50 0.53 0.56 0.47 0.53 0.64 0.67 0.35 0.46 0.42 0.65 0.63 0.21 0.09 0.06 0.06 0.26 0.52 0.64 0.43 0.47 0.65 0.71 0.42 0.18 0.16 0.28 0.19 0.03 0.01 0.00 0.00 0.00 0.00 0.00 0.00 0.00 0.00 0.00 0.00 0.01 0.04 0.05 0.04
0.87 0.98 0.99 0.98 0.77 0.67 0.40 0.13 0.32 0.57 0.86 0.58 0.36 0.13 0.10 0.16 0.54 0.67 0.63 0.63 0.54 0.69 0.57 0.34 0.18 0.19 0.33 0.25 0.01 0.00 0.00 0.00 0.00 0.00 0.00 0.00 0.00 0.00 0.01 0.04 0.09 0.10 0.06 0.02
1.43 1.41 1.27 1.18 0.64 0.34 0.28 0.35 0.62 0.56 0.96 0.94 0.38 0.22 0.27 0.22 0.57 0.58 0.72 0.65 0.75 0.54 0.34 0.24 0.37 0.27 0.16 0.03 0.00 0.00 0.00 0.00 0.00 0.00 0.00 0.00 0.00 0.02 0.07 0.12 0.09 0.03 0.01 0.00
1.84 1.61 1.42 1.19 0.52 0.57 0.92 1.11 1.13 1.26 0.76 0.40 0.29 0.12 0.29 0.29 0.49 0.53 0.74 0.73 0.70 0.54 0.29 0.31 0.38 0.24 0.09 0.02 0.00 0.00 0.00 0.00 0.00 0.00 0.00 0.01 0.04 0.07 0.05 0.02 0.00 0.00 0.00 0.00
2.32 2.02 1.45 1.21 1.17 1.45 1.49 1.27 0.86 0.60 0.45 0.19 0.12 0.14 0.32 0.27 0.59 0.68 0.53 0.78 0.57 0.52 0.37 0.62 0.49 0.32 0.09 0.00 0.00 0.00 0.00 0.00 0.00 0.00 0.00 0.00 0.01 0.00 0.00 0.00 0.00 0.00 0.00 0.00
1.50 1.25 1.67 1.78 1.76 1.77 1.33 0.89 0.45 0.31 0.15 0.22 0.30 0.26 0.28 0.34 0.48 0.77 0.79 0.59 0.71 0.42 0.38 0.62 0.37 0.14 0.02 0.01 0.01 0.00 0.00 0.00 0.00 0.00 0.00 0.00 0.00 0.00 0.00 0.01 0.00 0.00 0.00 0.00
2.32 3.16 3.09 2.08 1.69 1.19 0.72 0.56 0.58 0.52 0.39 0.43 0.44 0.41 0.28 0.42 0.65 0.60 0.75 0.73 0.44 0.31 0.42 0.24 0.08 0.04 0.02 0.02 0.03 0.03 0.05 0.01 0.01 0.01 0.01 0.01 0.01 0.03 0.03 0.04 0.02 0.01 0.01 0.02
4.29 4.08 3.09 1.28 0.97 0.28 0.36 0.36 0.38 0.45 0.47 0.46 0.48 0.58 0.46 0.41 0.65 0.56 0.42 0.37 0.43 0.37 0.17 0.11 0.09 0.05 0.02 0.03 0.07 0.07 0.13 0.23 0.23 0.16 0.08 0.07 0.06 0.07 0.08 0.08 0.07 0.04 0.03 0.04
4.27 2.65 1.24 0.45 0.13 0.08 0.18 0.24 0.24 0.31 0.36 0.38 0.45 0.52 0.46 0.58 0.69 0.46 0.37 0.42 0.32 0.15 0.14 0.26 0.18 0.13 0.10 0.14 0.18 0.18 0.20 0.34 0.46 0.49 0.45 0.43 0.36 0.33 0.26 0.16 0.12 0.12 0.07 0.05
3.67 2.03 0.63 0.13 0.04 0.07 0.13 0.20 0.25 0.30 0.32 0.29 0.37 0.40 0.52 0.61 0.54 0.48 0.44 0.47 0.36 0.32 0.36 0.37 0.28 0.30 0.28 0.26 0.19 0.16 0.13 0.11 0.12 0.12 0.14 0.16 0.17 0.22 0.24 0.22 0.19 0.21 0.20 0.16
3.49 1.18 0.15 0.03 0.03 0.07 0.13 0.18 0.19 0.15 0.21 0.33 0.39 0.37 0.34 0.42 0.50 0.49 0.54 0.60 0.43 0.23 0.13 0.23 0.25 0.32 0.37 0.40 0.30 0.27 0.20 0.14 0.09 0.07 0.07 0.06 0.06 0.07 0.07 0.06 0.08 0.12 0.23 0.31

GFSNW_prec_precacc_144.txt.gz
Total_Precipitation_Accumulation
1.65 1.73 2.02 1.54 1.21 1.33 1.47 1.43 2.00 1.86 1.84 3.56 2.32 1.39 1.19 1.15 1.41 1.58 1.16 0.67 0.34 0.28 0.39 0.73 0.73 0.81 0.91 0.50 0.28 0.24 0.32 0.72 0.82 0.64 0.23 0.31 0.83 0.87 0.77 1.43 1.06 1.09 1.04 1.83
1.40 1.63 1.65 1.19 1.41 1.71 2.08 1.71 1.70 2.51 1.40 1.57 0.93 0.90 1.25 1.38 1.48 1.42 1.00 0.63 0.31 0.21 0.24 0.51 0.34 0.41 0.35 0.24 0.15 0.07 0.21 0.61 0.69 0.78 0.56 0.41 0.78 0.75 0.75 0.77 1.16 1.24 1.59 2.16
1.41 1.36 1.12 1.08 1.25 1.52 1.64 1.67 2.03 3.17 2.67 0.71 0.38 0.77 1.18 1.23 1.16 1.11 0.75 0.67 0.36 0.30 0.22 0.12 0.10 0.15 0.23 0.30 0.35 0.19 0.18 0.29 0.53 0.62 0.62 0.65 0.74 0.59 0.70 0.98 1.46 0.93 1.51 1.35
1.83 1.24 0.82 0.79 0.78 1.08 1.01 1.15 1.03 0.91 1.00 0.43 0.24 0.72 1.03 1.22 1.28 0.83 0.79 0.76 0.31 0.25 0.24 0.10 0.08 0.09 0.19 0.28 0.49 0.50 0.41 0.37 0.55 0.59 0.34 0.37 0.78 0.62 0.57 1.02 0.80 1.17 0.92 0.81
2.03 1.34 0.78 0.56 0.63 1.21 1.11 0.88 0.57 0.23 0.13 0.07 0.13 0.48 0.91 1.21 0.79 0.68 0.68 0.53 0.28 0.28 0.20 0.08 0.05 0.10 0.16 0.27 0.36 0.45 0.34 0.35 0.35 0.50 0.45 0.69 0.55 0.33 0.41 0.34 0.39 0.44 0.20 0.47
1.68 1.06 0.89 0.86 1.09 1.71 1.58 0.80 0.47 0.28 0.16 0.12 0.23 0.31 0.68 0.75 0.71 0.63 0.34 0.38 0.35 0.21 0.11 0.08 0.04 0.07 0.05 0.12 0.20 0.17 0.20 0.17 0.29 0.73 0.53 0.57 0.52 0.40 0.25 0.21 0.26 0.17 0.18 0.20
1.41 0.74 0.69 0.60 0.62 1.02 1.29 0.75 0.65 0.38 0.21 0.09 0.14 0.17 0.39 0.60 0.64 0.69 0.44 0.36 0.34 0.15 0.14 0.13 0.06 0.05 0.06 0.05 0.06 0.10 0.15 0.10 0.21 0.50 0.28 0.48 0.32 0.29 0.43 0.25 0.20 0.06 0.06 0.02
0.86 0.52 0.58 0.67 0.65 0.81 0.70 0.57 0.67 0.38 0.26 0.09 0.11 0.12 0.23 0.42 0.49 0.59 0.50 0.33 0.28 0.24 0.35 0.29 0.23 0.25 0.23 0.11 0.05 0.05 0.05 0.11 0.23 0.37 0.44 0.19 0.06 0.12 0.17 0.12 0.07 0.05 0.05 0.01
0.59 0.39 0.31 0.32 0.30 0.35 0.46 0.61 0.64 0.41 0.28 0.12 0.06 0.08 0.13 0.45 0.64 0.72 0.53 0.37 0.20 0.29 0.45 0.32 0.27 0.34 0.17 0.10 0.06 0.04 0.04 0.05 0.29 0.23 0.24 0.08 0.02 0.00 0.00 0.13 0.26 0.04 0.03 0.02
0.60 0.53 0.42 0.35 0.32 0.38 0.38 0.56 0.57 0.51 0.31 0.04 0.05 0.09 0.15 0.36 0.69 0.87 0.61 0.41 0.37 0.41 0.54 0.29 0.06 0.07 0.03 0.04 0.04 0.06 0.16 0.17 0.23 0.20 0.25 0.02 0.00 0.00 0.00 0.05 0.13 0.06 0.03 0.01
0.57 0.59 0.42 0.28 0.26 0.39 0.35 0.30 0.51 0.48 0.30 0.06 0.03 0.06 0.13 0.14 0.43 1.05 0.83 0.57 0.48 0.48 0.54 0.30 0.07 0.01 0.01 0.01 0.00 0.00 0.05 0.08 0.11 0.07 0.08 0.01 0.00 0.00 0.02 0.03 0.00 0.00 0.00 0.01
0.39 0.46 0.34 0.28 0.30 0.47 0.49 0.26 0.32 0.50 0.38 0.10 0.04 0.04 0.06 0.10 0.26 0.71 0.82 0.58 0.46 0.30 0.33 0.15 0.06 0.02 0.01 0.00 0.02 0.00 0.01 0.00 0.00 0.00 0.01 0.00 0.00 0.00 0.00 0.00 0.00 0.00 0.00 0.00
0.44 0.41 0.37 0.32 0.30 0.47 0.62 0.29 0.30 0.46 0.40 0.13 0.05 0.03 0.02 0.02 0.12 0.30 0.78 0.69 0.57 0.43 0.17 0.22 0.10 0.06 0.02 0.02 0.01 0.00 0.00 0.00 0.00 0.00 0.00 0.00 0.00 0.00 0.00 0.01 0.04 0.01 0.00 0.00
0.40 0.41 0.41 0.30 0.29 0.43 0.57 0.25 0.31 0.41 0.34 0.19 0.04 0.02 0.04 0.04 0.15 0.29 0.51 0.73 0.52 0.46 0.27 0.41 0.31 0.15 0.03 0.02 0.01 0.00 0.00 0.00 0.00 0.00 0.00 0.00 0.00 0.00 0.00 0.07 0.06 0.00 0.00 0.00
0.44 0.43 0.38 0.27 0.31 0.46 0.42 0.17 0.40 0.33 0.42 0.50 0.09 0.03 0.04 0.02 0.16 0.34 0.51 0.77 0.58 0.51 0.48 0.35 0.27 0.20 0.10 0.03 0.00 0.01 0.00 0.00 0.00 0.03 0.00 0.00 0.00 0.00 0.05 0.04 0.03 0.02 0.00 0.03
0.43 0.43 0.39 0.33 0.41 0.71 0.56 0.46 0.43 0.46 0.41 0.75 0.22 0.03 0.03 0.02 0.21 0.45 0.53 0.54 0.51 0.55 0.54 0.36 0.18 0.12 0.16 0.16 0.05 0.01 0.00 0.00 0.00 0.00 0.00 0.00 0.00 0.00 0.00 0.03 0.02 0.02 0.01 0.02
0.61 0.62 0.63 0.55 0.60 0.66 0.67 0.35 0.46 0.42 0.65 0.63 0.21 0.09 0.06 0.06 0.26 0.52 0.64 0.43 0.47 0.65 0.71 0.42 0.18 0.16 0.28 0.19 0.03 0.01 0.00 0.00 0.00 0.00 0.00 0.00 0.00 0.00 0.00 0.00 0.01 0.04 0.05 0.04
1.01 1.10 1.11 1.13 0.93 0.73 0.41 0.13 0.34 0.58 0.87 0.59 0.36 0.13 0.10 0.16 0.54 0.67 0.63 0.63 0.54 0.69 0.57 0.34 0.18 0.19 0.33 0.25 0.01 0.00 0.00 0.00 0.00 0.00 0.00 0.00 0.00 0.00 0.01 0.04 0.09 0.10 0.06 0.02
1.61 1.66 1.53 1.40 0.76 0.37 0.29 0.37 0.73 0.64 1.00 0.98 0.39 0.22 0.27 0.22 0.57 0.58 0.72 0.65 0.75 0.54 0.34 0.24 0.37 0.27 0.16 0.03 0.00 0.00 0.00 0.00 0.00 0.00 0.00 0.00 0.00 0.02 0.07 0.12 0.09 0.03 0.01 0.00
2.20 1.84 1.54 1.27 0.57 0.59 0.92 1.18 1.28 1.43 0.88 0.45 0.31 0.12 0.29 0.29 0.49 0.53 0.74 0.73 0.70 0.54 0.29 0.31 0.38 0.24 0.09 0.02 0.00 0.00 0.00 0.00 0.00 0.00 0.00 0.01 0.04 0.07 0.05 0.02 0.00 0.00 0.00 0.00
2.57 2.17 1.54 1.29 1.26 1.48 1.55 1.39 0.98 0.66 0.49 0.21 0.13 0.14 0.32 0.27 0.59 0.68 0.53 0.78 0.57 0.53 0.37 0.62 0.49 0.32 0.09 0.00 0.00 0.00 0.00 0.00 0.00 0.00 0.00 0.00 0.01 0.00 0.00 0.00 0.00 0.00 0.00 0.00
1.59 1.36 1.83 2.01 1.99 1.91 1.42 0.96 0.47 0.32 0.15 0.22 0.30 0.27 0.28 0.34 0.48 0.77 0.79 0.59 0.71 0.42 0.38 0.62 0.37 0.14 0.02 0.01 0.01 0.00 0.00 0.00 0.00 0.00 0.00 0.00 0.00 0.00 0.00 0.01 0.00 0.00 0.00 0.00
2.51 3.46 3.44 2.39 1.94 1.32 0.77 0.58 0.59 0.52 0.39 0.43 0.44 0.41 0.28 0.42 0.65 0.61 0.77 0.74 0.44 0.31 0.42 0.24 0.08 0.04 0.02 0.02 0.03 0.03 0.05 0.01 0.01 0.01 0.01 0.01 0.01 0.03 0.03 0.04 0.02 0.01 0.01 0.02
4.65 4.49 3.50 1.52 1.09 0.29 0.36 0.36 0.38 0.45 0.47 0.46 0.48 0.58 0.46 0.41 0.65 0.58 0.45 0.38 0.43 0.37 0.17 0.11 0.09 0.05 0.02 0.03 0.07 0.07 0.13 0.23 0.23 0.16 0.08 0.07 0.06 0.07 0.08 0.08 0.07 0.04 0.03 0.04
4.62 3.08 1.55 0.58 0.14 0.08 0.18 0.24 0.24 0.31 0.36 0.38 0.45 0.52 0.46 0.58 0.72 0.51 0.40 0.44 0.33 0.15 0.14 0.26 0.18 0.13 0.10 0.14 0.18 0.18 0.20 0.34 0.46 0.49 0.45 0.43 0.36 0.33 0.26 0.16 0.12 0.12 0.07 0.05
4.14 2.44 0.85 0.18 0.04 0.07 0.13 0.20 0.25 0.30 0.32 0.29 0.38 0.43 0.58 0.66 0.58 0.52 0.44 0.47 0.36 0.32 0.37 0.37 0.28 0.30 0.28 0.26 0.19 0.16 0.13 0.11 0.12 0.12 0.14 0.16 0.17 0.22 0.24 0.22 0.19 0.21 0.20 0.16
3.92 1.43 0.23 0.03 0.03 0.07 0.13 0.18 0.19 0.15 0.21 0.35 0.45 0.50 0.41 0.49 0.56 0.50 0.54 0.60 0.43 0.23 0.13 0.23 0.25 0.32 0.37 0.40 0.30 0.27 0.20 0.14 0.09 0.07 0.07 0.06 0.06 0.07 0.07 0.06 0.08 0.12 0.23 0.31

GFSNW_prec_precacc_147.txt.gz
Total_Precipitation_Accumulation
1.65 1.73 2.02 1.54 1.21 1.33 1.47 1.43 2.00 1.86 1.84 3.56 2.32 1.39 1.19 1.15 1.41 1.58 1.16 0.67 0.34 0.28 0.39 0.73 0.73 0.81 0.91 0.50 0.28 0.24 0.32 0.72 0.82 0.64 0.23 0.31 0.83 0.87 0.77 1.44 1.07 1.10 1.06 1.83
1.40 1.63 1.65 1.19 1.41 1.71 2.08 1.71 1.70 2.51 1.40 1.57 0.93 0.90 1.25 1.38 1.48 1.42 1.00 0.63 0.31 0.21 0.24 0.51 0.34 0.41 0.35 0.24 0.15 0.07 0.21 0.61 0.69 0.78 0.56 0.41 0.78 0.75 0.75 0.77 1.18 1.25 1.62 2.17
1.41 1.36 1.12 1.08 1.25 1.52 1.64 1.67 2.03 3.17 2.67 0.71 0.38 0.77 1.18 1.23 1.16 1.11 0.75 0.67 0.36 0.30 0.22 0.12 0.10 0.15 0.23 0.30 0.35 0.19 0.18 0.29 0.53 0.62 0.62 0.65 0.74 0.59 0.70 0.98 1.47 0.93 1.51 1.35
1.83 1.24 0.82 0.79 0.78 1.08 1.01 1.15 1.03 0.91 1.00 0.43 0.24 0.72 1.03 1.22 1.28 0.83 0.79 0.76 0.31 0.25 0.24 0.10 0.08 0.09 0.19 0.28 0.49 0.50 0.41 0.37 0.55 0.59 0.34 0.37 0.78 0.62 0.57 1.02 0.80 1.17 0.92 0.81
2.03 1.34 0.78 0.56 0.63 1.21 1.11 0.88 0.57 0.23 0.13 0.07 0.13 0.48 0.91 1.21 0.79 0.68 0.68 0.53 0.28 0.28 0.20 0.08 0.05 0.10 0.16 0.27 0.36 0.45 0.34 0.35 0.35 0.50 0.45 0.69 0.55 0.33 0.41 0.34 0.39 0.44 0.20 0.47
1.68 1.06 0.89 0.86 1.09 1.71 1.58 0.80 0.47 0.28 0.16 0.12 0.23 0.31 0.68 0.75 0.71 0.63 0.34 0.38 0.35 0.21 0.11 0.08 0.04 0.07 0.05 0.12 0.20 0.17 0.20 0.17 0.29 0.73 0.53 0.57 0.52 0.40 0.25 0.21 0.26 0.17 0.18 0.20
1.41 0.74 0.69 0.60 0.62 1.02 1.29 0.75 0.65 0.38 0.21 0.09 0.14 0.17 0.39 0.60 0.64 0.69 0.44 0.36 0.34 0.15 0.14 0.13 0.06 0.05 0.06 0.05 0.06 0.10 0.15 0.10 0.21 0.50 0.28 0.48 0.32 0.29 0.43 0.25 0.20 0.06 0.06 0.02
0.86 0.52 0.58 0.67 0.65 0.81 0.70 0.57 0.67 0.38 0.26 0.09 0.11 0.12 0.23 0.42 0.49 0.59 0.50 0.33 0.28 0.24 0.35 0.29 0.23 0.25 0.23 0.11 0.05 0.05 0.05 0.11 0.23 0.37 0.44 0.19 0.06 0.12 0.17 0.12 0.07 0.05 0.05 0.01
0.59 0.39 0.31 0.32 0.30 0.35 0.46 0.61 0.64 0.41 0.28 0.12 0.06 0.08 0.13 0.45 0.64 0.72 0.53 0.37 0.20 0.29 0.45 0.32 0.27 0.34 0.17 0.10 0.06 0.04 0.04 0.05 0.29 0.23 0.24 0.08 0.02 0.00 0.00 0.13 0.26 0.04 0.03 0.02
0.60 0.53 0.42 0.35 0.32 0.38 0.38 0.56 0.57 0.51 0.31 0.04 0.05 0.09 0.15 0.36 0.69 0.87 0.61 0.41 0.37 0.41 0.54 0.29 0.06 0.07 0.03 0.04 0.04 0.06 0.16 0.17 0.23 0.20 0.25 0.02 0.00 0.00 0.00 0.05 0.13 0.06 0.03 0.01
0.57 0.59 0.42 0.28 0.26 0.39 0.35 0.30 0.51 0.48 0.30 0.06 0.03 0.06 0.13 0.14 0.43 1.05 0.83 0.57 0.48 0.48 0.54 0.30 0.07 0.01 0.01 0.01 0.00 0.00 0.05 0.08 0.11 0.07 0.08 0.01 0.00 0.00 0.02 0.03 0.00 0.00 0.00 0.01
0.39 0.46 0.35 0.28 0.30 0.47 0.49 0.26 0.32 0.50 0.38 0.10 0.04 0.04 0.06 0.10 0.26 0.71 0.82 0.58 0.46 0.30 0.33 0.15 0.06 0.02 0.01 0.00 0.02 0.00 0.01 0.00 0.00 0.00 0.01 0.00 0.00 0.00 0.00 0.00 0.00 0.00 0.00 0.00
0.44 0.42 0.37 0.32 0.30 0.47 0.62 0.29 0.30 0.46 0.40 0.13 0.05 0.03 0.02 0.02 0.12 0.30 0.78 0.69 0.57 0.43 0.17 0.22 0.10 0.06 0.02 0.02 0.01 0.00 0.00 0.00 0.00 0.00 0.00 0.00 0.00 0.00 0.00 0.01 0.04 0.01 0.00 0.00
0.41 0.42 0.41 0.31 0.30 0.43 0.57 0.25 0.31 0.41 0.34 0.19 0.04 0.02 0.04 0.04 0.15 0.29 0.51 0.73 0.52 0.46 0.27 0.41 0.31 0.15 0.03 0.02 0.01 0.00 0.00 0.00 0.00 0.00 0.00 0.00 0.00 0.00 0.00 0.07 0.06 0.00 0.00 0.00
0.47 0.46 0.40 0.29 0.33 0.47 0.42 0.17 0.40 0.33 0.42 0.50 0.09 0.03 0.04 0.02 0.16 0.34 0.51 0.77 0.58 0.51 0.48 0.35 0.27 0.20 0.10 0.03 0.00 0.01 0.00 0.00 0.00 0.03 0.00 0.00 0.00 0.00 0.05 0.04 0.03 0.02 0.00 0.03
0.45 0.46 0.43 0.37 0.46 0.75 0.56 0.47 0.43 0.46 0.41 0.75 0.22 0.03 0.03 0.02 0.21 0.45 0.53 0.54 0.51 0.55 0.54 0.36 0.18 0.12 0.16 0.16 0.05 0.01 0.00 0.00 0.00 0.00 0.00 0.00 0.00 0.00 0.00 0.03 0.02 0.02 0.01 0.02
0.65 0.67 0.69 0.63 0.69 0.69 0.68 0.36 0.46 0.42 0.65 0.63 0.22 0.09 0.06 0.06 0.26 0.52 0.64 0.43 0.47 0.65 0.71 0.42 0.18 0.16 0.28 0.19 0.03 0.01 0.00 0.00 0.00 0.00 0.00 0.00 0.00 0.00 0.00 0.00 0.01 0.04 0.05 0.04
1.05 1.17 1.20 1.28 1.12 0.87 0.46 0.14 0.35 0.59 0.89 0.64 0.41 0.13 0.10 0.16 0.54 0.67 0.63 0.63 0.54 0.69 0.57 0.34 0.18 0.19 0.33 0.25 0.01 0.00 0.00 0.00 0.00 0.00 0.00 0.00 0.00 0.00 0.01 0.04 0.09 0.10 0.06 0.02
1.67 1.80 1.78 1.70 0.98 0.41 0.29 0.39 0.83 0.71 1.06 1.05 0.43 0.23 0.27 0.22 0.57 0.58 0.72 0.65 0.75 0.54 0.34 0.24 0.37 0.27 0.16 0.03 0.00 0.00 0.00 0.00 0.00 0.00 0.00 0.00 0.00 0.02 0.07 0.12 0.09 0.03 0.01 0.00
2.39 2.03 1.68 1.35 0.62 0.62 0.94 1.28 1.44 1.60 1.01 0.53 0.35 0.12 0.29 0.29 0.49 0.53 0.74 0.74 0.70 0.55 0.29 0.31 0.38 0.24 0.09 0.02 0.00 0.00 0.00 0.00 0.00 0.00 0.00 0.01 0.04 0.07 0.05 0.02 0.00 0.00 0.00 0.00
2.74 2.23 1.62 1.37 1.33 1.52 1.63 1.52 1.09 0.71 0.54 0.25 0.15 0.14 0.32 0.27 0.59 0.69 0.55 0.81 0.58 0.53 0.37 0.62 0.49 0.32 0.09 0.00 0.00 0.00 0.00 0.00 0.00 0.00 0.00 0.00 0.01 0.00 0.00 0.00 0.00 0.00 0.00 0.00
1.67 1.42 1.93 2.16 2.15 2.05 1.52 1.03 0.49 0.35 0.16 0.22 0.30 0.27 0.28 0.34 0.48 0.77 0.80 0.60 0.72 0.43 0.38 0.63 0.37 0.14 0.02 0.01 0.01 0.00 0.00 0.00 0.00 0.00 0.00 0.00 0.00 0.00 0.00 0.01 0.00 0.00 0.00 0.00
2.68 3.69 3.72 2.66 2.19 1.48 0.83 0.59 0.60 0.53 0.39 0.43 0.44 0.41 0.28 0.42 0.65 0.62 0.80 0.77 0.45 0.31 0.43 0.24 0.08 0.04 0.02 0.02 0.03 0.03 0.05 0.01 0.01 0.01 0.01 0.01 0.01 0.03 0.03 0.04 0.02 0.01 0.01 0.02
4.98 4.81 3.85 1.77 1.24 0.31 0.36 0.36 0.38 0.45 0.47 0.46 0.48 0.58 0.46 0.41 0.65 0.62 0.51 0.43 0.44 0.38 0.17 0.11 0.09 0.05 0.02 0.03 0.07 0.07 0.13 0.23 0.23 0.16 0.08 0.07 0.06 0.07 0.08 0.08 0.07 0.04 0.03 0.04
4.94 3.43 1.78 0.69 0.15 0.08 0.18 0.24 0.24 0.31 0.36 0.38 0.45 0.52 0.47 0.60 0.78 0.58 0.44 0.48 0.34 0.15 0.14 0.26 0.18 0.13 0.10 0.14 0.18 0.18 0.20 0.34 0.46 0.49 0.45 0.43 0.36 0.33 0.26 0.16 0.12 0.12 0.07 0.05
4.43 2.77 1.01 0.20 0.04 0.07 0.13 0.20 0.25 0.30 0.32 0.29 0.39 0.47 0.68 0.75 0.64 0.57 0.45 0.47 0.36 0.32 0.37 0.37 0.28 0.30 0.28 0.26 0.19 0.16 0.13 0.11 0.12 0.12 0.14 0.16 0.17 0.22 0.24 0.22 0.19 0.21 0.20 0.16
4.08 1.55 0.25 0.03 0.03 0.07 0.13 0.18 0.19 0.15 0.21 0.35 0.47 0.59 0.47 0.58 0.70 0.55 0.54 0.60 0.43 0.23 0.13 0.23 0.25 0.32 0.37 0.40 0.30 0.27 0.20 0.14 0.09 0.07 0.07 0.06 0.06 0.07 0.07 0.06 0.08 0.12 0.23 0.31

GFSNW_prec_precacc_150.txt.gz
Total_Precipitation_Accumulation
1.65 1.73 2.02 1.54 1.21 1.33 1.47 1.43 2.00 1.86 1.84 3.56 2.32 1.39 1.19 1.15 1.41 1.58 1.16 0.67 0.34 0.28 0.39 0.73 0.73 0.81 0.91 0.50 0.28 0.24 0.32 0.72 0.82 0.64 0.23 0.31 0.83 0.87 0.77 1.44 1.08 1.10 1.07 1.84
1.40 1.63 1.65 1.19 1.41 1.71 2.08 1.71 1.70 2.51 1.40 1.57 0.93 0.90 1.25 1.38 1.48 1.42 1.00 0.63 0.31 0.21 0.24 0.51 0.34 0.41 0.35 0.24 0.15 0.07 0.21 0.61 0.69 0.78 0.56 0.41 0.78 0.75 0.75 0.77 1.18 1.25 1.62 2.17
1.41 1.36 1.12 1.08 1.25 1.52 1.64 1.67 2.03 3.17 2.67 0.71 0.38 0.77 1.18 1.23 1.16 1.11 0.75 0.67 0.36 0.30 0.22 0.12 0.10 0.15 0.23 0.30 0.35 0.19 0.18 0.29 0.53 0.62 0.62 0.65 0.74 0.59 0.70 0.98 1.47 0.93 1.51 1.35
1.83 1.24 0.82 0.79 0.78 1.08 1.01 1.15 1.03 0.91 1.00 0.43 0.24 0.72 1.03 1.22 1.28 0.83 0.79 0.76 0.31 0.25 0.24 0.10 0.08 0.09 0.19 0.28 0.49 0.50 0.41 0.37 0.55 0.59 0.34 0.37 0.78 0.62 0.57 1.02 0.80 1.17 0.92 0.81
2.03 1.34 0.78 0.56 0.63 1.21 1.11 0.88 0.57 0.23 0.13 0.07 0.13 0.48 0.91 1.21 0.79 0.68 0.68 0.53 0.28 0.28 0.20 0.08 0.05 0.10 0.16 0.27 0.36 0.45 0.34 0.35 0.35 0.50 0.45 0.69 0.55 0.33 0.41 0.34 0.39 0.44 0.20 0.47
1.68 1.06 0.89 0.86 1.09 1.71 1.58 0.80 0.47 0.28 0.16 0.12 0.23 0.31 0.68 0.75 0.71 0.63 0.34 0.38 0.35 0.21 0.11 0.08 0.04 0.07 0.05 0.12 0.20 0.17 0.20 0.17 0.29 0.73 0.53 0.57 0.52 0.40 0.25 0.21 0.26 0.17 0.18 0.20
1.41 0.74 0.69 0.60 0.62 1.02 1.29 0.75 0.65 0.38 0.21 0.09 0.14 0.17 0.39 0.60 0.64 0.69 0.44 0.36 0.34 0.15 0.14 0.13 0.06 0.05 0.06 0.05 0.06 0.10 0.15 0.10 0.21 0.50 0.28 0.48 0.32 0.29 0.43 0.25 0.20 0.06 0.06 0.02
0.86 0.52 0.58 0.67 0.65 0.81 0.70 0.57 0.67 0.38 0.26 0.09 0.11 0.12 0.23 0.42 0.49 0.59 0.50 0.33 0.28 0.24 0.35 0.29 0.23 0.25 0.23 0.11 0.05 0.05 0.05 0.11 0.23 0.37 0.44 0.19 0.06 0.12 0.17 0.12 0.07 0.05 0.05 0.01
0.59 0.39 0.31 0.32 0.30 0.35 0.46 0.61 0.64 0.41 0.28 0.12 0.06 0.08 0.13 0.45 0.64 0.72 0.53 0.37 0.20 0.29 0.45 0.32 0.27 0.34 0.17 0.10 0.06 0.04 0.04 0.05 0.29 0.23 0.24 0.08 0.02 0.00 0.00 0.13 0.26 0.04 0.03 0.02
0.60 0.53 0.42 0.35 0.32 0.38 0.38 0.56 0.57 0.51 0.31 0.04 0.05 0.09 0.15 0.36 0.69 0.87 0.61 0.41 0.37 0.41 0.54 0.29 0.06 0.07 0.03 0.04 0.04 0.06 0.16 0.17 0.24 0.20 0.25 0.02 0.00 0.00 0.00 0.05 0.13 0.06 0.03 0.01
0.57 0.60 0.42 0.28 0.26 0.39 0.35 0.30 0.51 0.48 0.30 0.06 0.03 0.06 0.13 0.14 0.43 1.05 0.83 0.57 0.48 0.48 0.54 0.30 0.07 0.01 0.01 0.01 0.00 0.00 0.05 0.08 0.11 0.07 0.08 0.01 0.00 0.00 0.02 0.03 0.00 0.00 0.00 0.01
0.39 0.47 0.35 0.29 0.30 0.47 0.49 0.26 0.32 0.50 0.38 0.10 0.04 0.04 0.06 0.10 0.26 0.71 0.82 0.58 0.46 0.30 0.33 0.15 0.06 0.02 0.01 0.00 0.02 0.00 0.01 0.00 0.00 0.00 0.01 0.00 0.00 0.00 0.00 0.00 0.00 0.00 0.00 0.00
0.45 0.42 0.38 0.33 0.31 0.48 0.62 0.29 0.30 0.46 0.40 0.13 0.05 0.03 0.02 0.02 0.12 0.30 0.78 0.69 0.57 0.43 0.17 0.22 0.10 0.06 0.02 0.02 0.01 0.00 0.00 0.00 0.00 0.00 0.00 0.00 0.00 0.00 0.00 0.01 0.04 0.01 0.00 0.00
0.42 0.43 0.42 0.32 0.31 0.45 0.58 0.25 0.31 0.41 0.34 0.19 0.04 0.02 0.04 0.04 0.15 0.29 0.51 0.73 0.52 0.46 0.27 0.41 0.31 0.15 0.03 0.02 0.01 0.00 0.00 0.00 0.00 0.00 0.00 0.00 0.00 0.00 0.00 0.07 0.06 0.00 0.00 0.00
0.47 0.47 0.42 0.31 0.36 0.52 0.45 0.18 0.40 0.33 0.42 0.50 0.09 0.03 0.04 0.02 0.16 0.34 0.51 0.77 0.58 0.51 0.48 0.35 0.27 0.20 0.10 0.03 0.00 0.01 0.00 0.00 0.00 0.03 0.00 0.00 0.00 0.00 0.05 0.04 0.03 0.02 0.00 0.03
0.45 0.47 0.45 0.40 0.52 0.86 0.60 0.48 0.43 0.46 0.42 0.77 0.23 0.03 0.03 0.02 0.21 0.45 0.53 0.54 0.51 0.55 0.54 0.36 0.18 0.12 0.16 0.16 0.05 0.01 0.00 0.00 0.00 0.00 0.00 0.00 0.00 0.00 0.00 0.03 0.02 0.02 0.01 0.02
0.65 0.68 0.72 0.69 0.85 0.77 0.70 0.36 0.46 0.42 0.66 0.65 0.26 0.10 0.06 0.06 0.26 0.52 0.64 0.43 0.47 0.65 0.71 0.42 0.18 0.16 0.28 0.19 0.03 0.01 0.00 0.00 0.00 0.00 0.00 0.00 0.00 0.00 0.00 0.00 0.01 0.04 0.05 0.04
1.06 1.19 1.24 1.39 1.39 1.07 0.50 0.14 0.36 0.61 0.90 0.68 0.48 0.15 0.10 0.16 0.54 0.67 0.63 0.63 0.54 0.69 0.57 0.34 0.18 0.19 0.33 0.25 0.01 0.00 0.00 0.00 0.00 0.00 0.00 0.00 0.00 0.00 0.01 0.04 0.09 0.10 0.06 0.02
1.69 1.86 1.89 1.91 1.22 0.46 0.30 0.40 0.87 0.77 1.09 1.11 0.48 0.23 0.27 0.22 0.57 0.58 0.72 0.66 0.75 0.54 0.35 0.24 0.37 0.27 0.16 0.03 0.00 0.00 0.00 0.00 0.00 0.00 0.00 0.00 0.00 0.02 0.07 0.12 0.09 0.03 0.01 0.00
2.45 2.15 1.74 1.42 0.66 0.64 0.94 1.30 1.51 1.73 1.11 0.60 0.41 0.12 0.29 0.29 0.49 0.53 0.75 0.75 0.71 0.55 0.29 0.31 0.39 0.24 0.09 0.02 0.00 0.00 0.00 0.00 0.00 0.00 0.00 0.01 0.04 0.07 0.05 0.02 0.00 0.00 0.00 0.00
2.83 2.29 1.69 1.45 1.42 1.56 1.66 1.56 1.16 0.75 0.59 0.30 0.16 0.14 0.32 0.27 0.59 0.69 0.55 0.83 0.58 0.53 0.37 0.62 0.49 0.32 0.09 0.00 0.00 0.00 0.00 0.00 0.00 0.00 0.00 0.00 0.01 0.00 0.00 0.00 0.00 0.00 0.00 0.00
1.78 1.51 2.03 2.28 2.26 2.14 1.60 1.10 0.53 0.39 0.16 0.22 0.30 0.27 0.28 0.34 0.48 0.77 0.81 0.61 0.74 0.43 0.38 0.63 0.38 0.14 0.02 0.01 0.01 0.00 0.00 0.00 0.00 0.00 0.00 0.00 0.00 0.00 0.00 0.01 0.00 0.00 0.00 0.00
2.81 3.87 3.95 2.84 2.37 1.60 0.91 0.62 0.62 0.53 0.39 0.43 0.44 0.41 0.28 0.42 0.65 0.62 0.82 0.81 0.47 0.31 0.43 0.25 0.08 0.04 0.02 0.02 0.03 0.03 0.05 0.01 0.01 0.01 0.01 0.01 0.01 0.03 0.03 0.04 0.02 0.01 0.01 0.02
5.15 5.01 4.06 1.90 1.30 0.31 0.37 0.36 0.38 0.45 0.47 0.46 0.48 0.58 0.46 0.41 0.65 0.64 0.55 0.47 0.47 0.39 0.18 0.11 0.09 0.05 0.02 0.03 0.07 0.07 0.13 0.23 0.23 0.16 0.08 0.07 0.06 0.07 0.08 0.08 0.07 0.04 0.03 0.04
5.09 3.67 1.90 0.73 0.15 0.08 0.18 0.24 0.24 0.31 0.36 0.38 0.45 0.53 0.47 0.62 0.84 0.64 0.51 0.56 0.36 0.15 0.14 0.26 0.18 0.13 0.10 0.14 0.18 0.18 0.20 0.34 0.46 0.49 0.45 0.43 0.36 0.33 0.26 0.16 0.12 0.12 0.07 0.05
4.47 2.90 1.07 0.20 0.04 0.07 0.13 0.20 0.25 0.30 0.33 0.31 0.42 0.53 0.79 0.83 0.70 0.65 0.48 0.47 0.36 0.32 0.37 0.37 0.28 0.30 0.28 0.26 0.19 0.16 0.13 0.11 0.12 0.12 0.14 0.16 0.17 0.22 0.24 0.22 0.19 0.21 0.20 0.16
4.09 1.55 0.26 0.03 0.03 0.07 0.13 0.18 0.19 0.15 0.25 0.41 0.58 0.77 0.56 0.65 0.84 0.62 0.55 0.60 0.43 0.23 0.13 0.23 0.25 0.32 0.37 0.40 0.30 0.27 0.20 0.14 0.09 0.07 0.07 0.06 0.06 0.07 0.07 0.06 0.08 0.12 0.23 0.31

GFSNW_prec_precacc_153.txt.gz
Total_Precipitation_Accumulation
1.65 1.73 2.02 1.54 1.21 1.33 1.47 1.43 2.00 1.86 1.84 3.56 2.32 1.39 1.19 1.15 1.41 1.58 1.16 0.67 0.34 0.28 0.39 0.73 0.73 0.81 0.91 0.50 0.28 0.24 0.32 0.72 0.82 0.64 0.23 0.31 0.83 0.87 0.77 1.44 1.08 1.10 1.07 1.84
1.40 1.63 1.65 1.19 1.41 1.71 2.08 1.71 1.70 2.51 1.40 1.57 0.93 0.90 1.25 1.38 1.48 1.42 1.00 0.63 0.31 0.21 0.24 0.51 0.34 0.41 0.35 0.24 0.15 0.07 0.21 0.61 0.69 0.78 0.56 0.41 0.78 0.75 0.75 0.77 1.18 1.25 1.62 2.17
1.41 1.36 1.12 1.08 1.25 1.52 1.64 1.67 2.03 3.17 2.67 0.71 0.38 0.77 1.18 1.23 1.16 1.11 0.75 0.67 0.36 0.30 0.22 0.12 0.10 0.15 0.23 0.30 0.35 0.19 0.18 0.29 0.53 0.62 0.62 0.65 0.74 0.59 0.70 0.98 1.47 0.93 1.51 1.35
1.83 1.24 0.82 0.79 0.78 1.08 1.01 1.15 1.03 0.91 1.00 0.43 0.24 0.72 1.03 1.22 1.28 0.83 0.79 0.76 0.31 0.25 0.24 0.10 0.08 0.09 0.19 0.28 0.49 0.50 0.41 0.37 0.55 0.59 0.34 0.37 0.78 0.62 0.57 1.02 0.80 1.17 0.92 0.81
2.03 1.34 0.78 0.56 0.63 1.21 1.11 0.88 0.57 0.23 0.13 0.07 0.13 0.48 0.91 1.21 0.79 0.68 0.68 0.53 0.28 0.28 0.20 0.08 0.05 0.10 0.16 0.27 0.36 0.45 0.34 0.35 0.35 0.50 0.45 0.69 0.55 0.33 0.41 0.34 0.39 0.44 0.20 0.47
1.68 1.06 0.89 0.86 1.09 1.71 1.58 0.80 0.47 0.28 0.16 0.12 0.23 0.31 0.68 0.75 0.71 0.63 0.34 0.38 0.35 0.21 0.11 0.08 0.04 0.07 0.05 0.12 0.20 0.17 0.20 0.17 0.29 0.73 0.53 0.57 0.52 0.40 0.25 0.21 0.26 0.17 0.18 0.20
1.41 0.74 0.69 0.60 0.62 1.02 1.29 0.75 0.65 0.38 0.21 0.09 0.14 0.17 0.39 0.60 0.64 0.69 0.44 0.36 0.34 0.15 0.14 0.13 0.06 0.05 0.06 0.05 0.06 0.10 0.15 0.10 0.21 0.50 0.28 0.48 0.32 0.29 0.43 0.25 0.20 0.06 0.06 0.02
0.86 0.52 0.58 0.67 0.65 0.81 0.70 0.57 0.67 0.38 0.26 0.09 0.11 0.12 0.23 0.42 0.49 0.59 0.50 0.33 0.28 0.24 0.35 0.29 0.23 0.25 0.23 0.11 0.05 0.05 0.05 0.11 0.23 0.37 0.44 0.19 0.06 0.12 0.17 0.12 0.07 0.05 0.05 0.01
0.59 0.39 0.31 0.32 0.30 0.35 0.46 0.61 0.64 0.41 0.28 0.12 0.06 0.08 0.13 0.45 0.64 0.72 0.53 0.37 0.20 0.29 0.45 0.32 0.27 0.34 0.17 0.10 0.06 0.04 0.04 0.05 0.29 0.23 0.24 0.08 0.02 0.00 0.00 0.13 0.26 0.04 0.03 0.02
0.60 0.53 0.42 0.35 0.32 0.38 0.38 0.56 0.57 0.51 0.31 0.04 0.05 0.09 0.15 0.36 0.69 0.87 0.61 0.41 0.37 0.41 0.54 0.29 0.06 0.07 0.03 0.04 0.04 0.06 0.16 0.17 0.24 0.20 0.25 0.02 0.00 0.00 0.00 0.05 0.13 0.06 0.03 0.01
0.57 0.60 0.42 0.29 0.26 0.39 0.35 0.30 0.51 0.48 0.30 0.06 0.03 0.06 0.13 0.14 0.43 1.05 0.83 0.57 0.48 0.48 0.54 0.30 0.07 0.01 0.01 0.01 0.00 0.00 0.05 0.08 0.11 0.07 0.08 0.01 0.00 0.00 0.02 0.03 0.00 0.00 0.00 0.01
0.40 0.47 0.35 0.29 0.30 0.47 0.49 0.26 0.32 0.50 0.38 0.10 0.04 0.04 0.06 0.10 0.26 0.71 0.82 0.58 0.46 0.30 0.33 0.15 0.06 0.02 0.01 0.00 0.02 0.00 0.01 0.00 0.00 0.00 0.01 0.00 0.00 0.00 0.00 0.00 0.00 0.00 0.00 0.00
0.45 0.42 0.38 0.33 0.32 0.49 0.62 0.29 0.30 0.46 0.40 0.13 0.05 0.03 0.02 0.02 0.12 0.30 0.78 0.69 0.57 0.43 0.17 0.22 0.10 0.06 0.02 0.02 0.01 0.00 0.00 0.00 0.00 0.00 0.00 0.00 0.00 0.00 0.00 0.01 0.04 0.01 0.00 0.00
0.43 0.43 0.43 0.33 0.32 0.47 0.60 0.25 0.31 0.41 0.34 0.19 0.04 0.02 0.04 0.04 0.15 0.29 0.51 0.73 0.52 0.46 0.27 0.41 0.31 0.15 0.03 0.02 0.01 0.00 0.00 0.00 0.00 0.00 0.00 0.00 0.00 0.00 0.00 0.07 0.06 0.00 0.00 0.00
0.48 0.47 0.42 0.32 0.38 0.57 0.48 0.18 0.40 0.33 0.42 0.50 0.09 0.03 0.04 0.02 0.16 0.34 0.51 0.77 0.58 0.51 0.48 0.35 0.27 0.20 0.10 0.03 0.00 0.01 0.00 0.00 0.00 0.03 0.00 0.00 0.00 0.00 0.05 0.04 0.03 0.02 0.00 0.03
0.46 0.47 0.45 0.41 0.57 0.98 0.64 0.49 0.43 0.46 0.42 0.79 0.24 0.03 0.03 0.02 0.21 0.45 0.53 0.54 0.51 0.55 0.54 0.36 0.18 0.12 0.16 0.16 0.05 0.01 0.00 0.00 0.00 0.00 0.00 0.00 0.00 0.00 0.00 0.03 0.02 0.02 0.01 0.02
0.66 0.69 0.72 0.71 0.96 0.84 0.71 0.37 0.46 0.42 0.66 0.68 0.28 0.11 0.06 0.06 0.26 0.53 0.66 0.45 0.48 0.65 0.71 0.42 0.18 0.16 0.28 0.19 0.03 0.01 0.00 0.00 0.00 0.00 0.00 0.00 0.00 0.00 0.00 0.00 0.01 0.04 0.05 0.04
1.07 1.19 1.25 1.41 1.56 1.22 0.56 0.14 0.37 0.61 0.90 0.70 0.52 0.17 0.10 0.16 0.54 0.67 0.64 0.63 0.55 0.69 0.57 0.34 0.18 0.19 0.33 0.25 0.01 0.00 0.00 0.00 0.00 0.00 0.00 0.00 0.00 0.00 0.01 0.04 0.09 0.10 0.06 0.02
1.70 1.87 1.92 1.98 1.32 0.50 0.30 0.40 0.89 0.79 1.10 1.17 0.54 0.25 0.27 0.22 0.57 0.58 0.72 0.66 0.75 0.54 0.35 0.24 0.37 0.27 0.16 0.03 0.00 0.00 0.00 0.00 0.00 0.00 0.00 0.00 0.00 0.02 0.07 0.12 0.09 0.03 0.01 0.00
2.49 2.22 1.77 1.46 0.70 0.67 0.95 1.32 1.57 1.86 1.22 0.70 0.47 0.12 0.29 0.29 0.49 0.53 0.75 0.76 0.71 0.56 0.29 0.31 0.39 0.25 0.09 0.02 0.00 0.00 0.00 0.00 0.00 0.00 0.00 0.01 0.04 0.07 0.05 0.02 0.00 0.00 0.00 0.00
2.85 2.32 1.73 1.49 1.47 1.58 1.68 1.61 1.25 0.82 0.66 0.34 0.18 0.14 0.32 0.27 0.59 0.69 0.55 0.87 0.59 0.54 0.37 0.62 0.50 0.32 0.09 0.00 0.00 0.00 0.00 0.00 0.00 0.00 0.00 0.00 0.01 0.00 0.00 0.00 0.00 0.00 0.00 0.00
1.84 1.55 2.06 2.34 2.31 2.20 1.66 1.17 0.59 0.45 0.18 0.22 0.30 0.27 0.28 0.34 0.48 0.77 0.82 0.63 0.77 0.45 0.38 0.63 0.38 0.14 0.02 0.01 0.01 0.00 0.00 0.00 0.00 0.00 0.00 0.00 0.00 0.00 0.00 0.01 0.00 0.00 0.00 0.00
2.84 3.96 4.05 2.90 2.42 1.66 0.98 0.64 0.63 0.54 0.39 0.43 0.44 0.41 0.28 0.42 0.65 0.65 0.88 0.86 0.50 0.31 0.43 0.25 0.08 0.04 0.02 0.02 0.03 0.03 0.05 0.01 0.01 0.01 0.01 0.01 0.01 0.03 0.03 0.04 0.02 0.01 0.01 0.02
5.17 5.11 4.17 1.94 1.31 0.32 0.37 0.36 0.38 0.45 0.47 0.46 0.48 0.58 0.47 0.43 0.68 0.71 0.62 0.52 0.51 0.42 0.18 0.11 0.09 0.05 0.02 0.03 0.07 0.07 0.13 0.23 0.23 0.16 0.08 0.07 0.06 0.07 0.08 0.08 0.07 0.04 0.03 0.04
5.10 3.72 1.94 0.74 0.15 0.08 0.18 0.24 0.24 0.31 0.36 0.38 0.47 0.59 0.55 0.71 0.95 0.73 0.58 0.64 0.39 0.15 0.14 0.26 0.18 0.13 0.10 0.14 0.18 0.18 0.20 0.34 0.46 0.49 0.45 0.43 0.36 0.33 0.26 0.16 0.12 0.12 0.07 0.05
4.48 2.91 1.08 0.20 0.04 0.07 0.13 0.20 0.25 0.31 0.36 0.37 0.51 0.67 0.92 0.94 0.78 0.74 0.52 0.49 0.36 0.32 0.37 0.37 0.28 0.30 0.28 0.26 0.20 0.17 0.13 0.11 0.12 0.12 0.14 0.16 0.17 0.22 0.24 0.22 0.19 0.21 0.20 0.16
4.09 1.55 0.26 0.03 0.03 0.07 0.13 0.18 0.20 0.16 0.31 0.49 0.67 0.92 0.65 0.76 0.95 0.68 0.55 0.60 0.43 0.23 0.13 0.23 0.25 0.32 0.37 0.40 0.30 0.27 0.20 0.14 0.09 0.07 0.07 0.06 0.06 0.07 0.07 0.06 0.08 0.12 0.23 0.31

GFSNW_prec_precacc_156.txt.gz
Total_Precipitation_Accumulation
1.65 1.73 2.02 1.54 1.21 1.33 1.47 1.43 2.00 1.86 1.84 3.56 2.32 1.39 1.19 1.15 1.41 1.58 1.16 0.67 0.34 0.28 0.39 0.73 0.73 0.81 0.91 0.50 0.28 0.24 0.32 0.72 0.82 0.64 0.23 0.31 0.83 0.87 0.77 1.44 1.08 1.10 1.07 1.84
1.40 1.63 1.65 1.19 1.41 1.71 2.08 1.71 1.70 2.51 1.40 1.57 0.93 0.90 1.25 1.38 1.48 1.42 1.00 0.63 0.31 0.21 0.24 0.51 0.34 0.41 0.35 0.24 0.15 0.07 0.21 0.61 0.69 0.78 0.56 0.41 0.78 0.75 0.75 0.77 1.18 1.25 1.62 2.17
1.41 1.36 1.12 1.08 1.25 1.52 1.64 1.67 2.03 3.17 2.67 0.71 0.38 0.77 1.18 1.23 1.16 1.11 0.75 0.67 0.36 0.30 0.22 0.12 0.10 0.15 0.23 0.30 0.35 0.19 0.18 0.29 0.53 0.62 0.62 0.65 0.74 0.59 0.70 0.98 1.47 0.93 1.51 1.35
1.83 1.24 0.82 0.79 0.78 1.08 1.01 1.15 1.03 0.91 1.00 0.43 0.24 0.72 1.03 1.22 1.28 0.83 0.79 0.76 0.31 0.25 0.24 0.10 0.08 0.09 0.19 0.28 0.49 0.50 0.41 0.37 0.55 0.59 0.34 0.37 0.78 0.62 0.57 1.02 0.80 1.17 0.92 0.81
2.03 1.34 0.78 0.56 0.63 1.21 1.11 0.88 0.57 0.23 0.13 0.07 0.13 0.48 0.91 1.21 0.79 0.68 0.68 0.53 0.28 0.28 0.20 0.08 0.05 0.10 0.16 0.27 0.36 0.45 0.34 0.35 0.35 0.50 0.45 0.69 0.55 0.33 0.41 0.34 0.39 0.44 0.20 0.47
1.68 1.06 0.89 0.86 1.09 1.71 1.58 0.80 0.47 0.28 0.16 0.12 0.23 0.31 0.68 0.75 0.71 0.63 0.34 0.38 0.35 0.21 0.11 0.08 0.04 0.07 0.05 0.12 0.20 0.17 0.20 0.17 0.29 0.73 0.53 0.57 0.52 0.40 0.25 0.21 0.26 0.17 0.18 0.20
1.41 0.74 0.69 0.60 0.62 1.02 1.29 0.75 0.65 0.38 0.21 0.09 0.14 0.17 0.39 0.60 0.64 0.69 0.44 0.36 0.34 0.15 0.14 0.13 0.06 0.05 0.06 0.05 0.06 0.10 0.15 0.10 0.21 0.50 0.28 0.48 0.32 0.29 0.43 0.25 0.20 0.06 0.06 0.02
0.86 0.52 0.58 0.67 0.65 0.81 0.70 0.57 0.67 0.38 0.26 0.09 0.11 0.12 0.23 0.42 0.49 0.59 0.50 0.33 0.28 0.24 0.35 0.29 0.23 0.25 0.23 0.11 0.05 0.05 0.05 0.11 0.23 0.37 0.44 0.19 0.06 0.12 0.17 0.12 0.07 0.05 0.05 0.01
0.59 0.39 0.31 0.32 0.30 0.35 0.46 0.61 0.64 0.41 0.28 0.12 0.06 0.08 0.13 0.45 0.64 0.72 0.53 0.37 0.20 0.29 0.45 0.32 0.27 0.34 0.17 0.10 0.06 0.04 0.04 0.05 0.29 0.23 0.24 0.08 0.02 0.00 0.00 0.13 0.26 0.04 0.03 0.02
0.60 0.53 0.42 0.35 0.32 0.38 0.38 0.56 0.57 0.51 0.31 0.04 0.05 0.09 0.15 0.36 0.69 0.87 0.61 0.41 0.37 0.41 0.54 0.29 0.06 0.07 0.03 0.04 0.04 0.06 0.16 0.17 0.24 0.21 0.25 0.02 0.00 0.00 0.00 0.05 0.13 0.06 0.03 0.01
0.57 0.60 0.42 0.29 0.26 0.39 0.35 0.30 0.51 0.48 0.30 0.06 0.03 0.06 0.13 0.14 0.43 1.05 0.83 0.57 0.48 0.48 0.54 0.30 0.07 0.01 0.01 0.01 0.00 0.00 0.05 0.08 0.11 0.07 0.08 0.01 0.00 0.00 0.02 0.03 0.00 0.00 0.00 0.01
0.40 0.47 0.36 0.29 0.31 0.47 0.50 0.26 0.32 0.50 0.38 0.10 0.04 0.04 0.06 0.10 0.26 0.71 0.82 0.58 0.46 0.30 0.33 0.15 0.06 0.02 0.01 0.00 0.02 0.00 0.01 0.00 0.00 0.00 0.01 0.00 0.00 0.00 0.00 0.00 0.00 0.00 0.00 0.00
0.45 0.42 0.38 0.34 0.32 0.50 0.63 0.29 0.30 0.46 0.40 0.13 0.05 0.03 0.02 0.02 0.12 0.30 0.78 0.69 0.57 0.43 0.17 0.22 0.10 0.06 0.02 0.02 0.01 0.00 0.00 0.00 0.00 0.00 0.00 0.00 0.00 0.00 0.00 0.01 0.04 0.01 0.00 0.00
0.43 0.43 0.43 0.33 0.32 0.49 0.62 0.26 0.31 0.41 0.34 0.19 0.04 0.02 0.04 0.04 0.15 0.29 0.51 0.73 0.52 0.46 0.27 0.41 0.31 0.15 0.03 0.02 0.01 0.00 0.00 0.00 0.00 0.00 0.00 0.00 0.00 0.00 0.00 0.07 0.06 0.00 0.00 0.00
0.48 0.48 0.42 0.32 0.38 0.59 0.51 0.18 0.40 0.33 0.43 0.50 0.09 0.03 0.04 0.02 0.16 0.34 0.51 0.77 0.58 0.51 0.48 0.35 0.27 0.20 0.10 0.03 0.00 0.01 0.00 0.00 0.00 0.03 0.00 0.00 0.00 0.00 0.05 0.04 0.03 0.02 0.00 0.03
0.46 0.48 0.45 0.41 0.58 1.05 0.69 0.52 0.43 0.46 0.44 0.83 0.25 0.04 0.03 0.02 0.21 0.45 0.53 0.55 0.51 0.56 0.55 0.37 0.18 0.12 0.16 0.16 0.05 0.01 0.00 0.00 0.00 0.00 0.00 0.00 0.00 0.00 0.00 0.03 0.02 0.02 0.01 0.02
0.67 0.70 0.73 0.71 0.99 0.90 0.73 0.37 0.46 0.42 0.68 0.72 0.31 0.12 0.06 0.06 0.26 0.53 0.66 0.45 0.49 0.68 0.75 0.44 0.18 0.16 0.28 0.20 0.03 0.01 0.00 0.00 0.00 0.00 0.00 0.00 0.00 0.00 0.00 0.00 0.01 0.04 0.05 0.04
1.08 1.20 1.26 1.42 1.59 1.33 0.62 0.15 0.39 0.63 0.91 0.74 0.58 0.19 0.10 0.16 0.54 0.67 0.64 0.63 0.55 0.70 0.58 0.34 0.18 0.19 0.33 0.25 0.01 0.00 0.00 0.00 0.00 0.00 0.00 0.00 0.00 0.00 0.01 0.04 0.09 0.10 0.06 0.02
1.70 1.88 1.93 2.02 1.36 0.54 0.31 0.40 0.92 0.83 1.14 1.26 0.62 0.27 0.27 0.22 0.57 0.58 0.72 0.66 0.75 0.54 0.36 0.24 0.37 0.27 0.16 0.03 0.00 0.00 0.00 0.00 0.00 0.00 0.00 0.00 0.00 0.02 0.07 0.12 0.09 0.03 0.01 0.00
2.50 2.23 1.80 1.49 0.72 0.69 0.96 1.35 1.66 2.00 1.34 0.81 0.57 0.14 0.30 0.29 0.49 0.53 0.75 0.77 0.71 0.56 0.30 0.31 0.40 0.25 0.09 0.02 0.00 0.00 0.00 0.00 0.00 0.00 0.00 0.01 0.04 0.07 0.05 0.02 0.00 0.00 0.00 0.00
2.85 2.33 1.75 1.50 1.49 1.59 1.70 1.64 1.34 0.89 0.74 0.39 0.20 0.15 0.32 0.27 0.60 0.69 0.56 0.91 0.61 0.55 0.37 0.62 0.50 0.33 0.09 0.00 0.00 0.00 0.00 0.00 0.00 0.00 0.00 0.00 0.01 0.00 0.00 0.00 0.00 0.00 0.00 0.00
1.85 1.57 2.08 2.34 2.32 2.23 1.72 1.23 0.64 0.51 0.19 0.23 0.30 0.27 0.28 0.34 0.48 0.78 0.87 0.67 0.82 0.46 0.39 0.65 0.38 0.14 0.02 0.01 0.01 0.00 0.00 0.00 0.00 0.00 0.00 0.00 0.00 0.00 0.00 0.01 0.00 0.00 0.00 0.00
2.84 3.97 4.11 2.96 2.44 1.68 1.03 0.67 0.67 0.56 0.39 0.43 0.44 0.41 0.28 0.44 0.66 0.72 0.96 0.91 0.52 0.32 0.45 0.26 0.08 0.04 0.02 0.02 0.03 0.03 0.05 0.01 0.01 0.01 0.01 0.01 0.01 0.03 0.03 0.04 0.02 0.01 0.01 0.02
5.17 5.11 4.18 1.95 1.32 0.33 0.38 0.36 0.38 0.45 0.47 0.46 0.48 0.59 0.52 0.49 0.77 0.83 0.72 0.58 0.55 0.45 0.19 0.11 0.09 0.05 0.02 0.03 0.07 0.07 0.13 0.23 0.23 0.16 0.08 0.07 0.06 0.07 0.08 0.08 0.07 0.04 0.03 0.04
5.10 3.73 1.94 0.74 0.15 0.08 0.18 0.24 0.24 0.31 0.37 0.39 0.52 0.66 0.65 0.80 1.08 0.81 0.64 0.72 0.42 0.16 0.14 0.26 0.18 0.13 0.10 0.14 0.18 0.18 0.20 0.34 0.46 0.50 0.45 0.43 0.36 0.33 0.26 0.16 0.12 0.12 0.07 0.05
4.48 2.91 1.08 0.20 0.04 0.07 0.13 0.20 0.25 0.33 0.41 0.42 0.55 0.74 1.00 0.98 0.81 0.78 0.54 0.50 0.36 0.32 0.37 0.38 0.29 0.30 0.28 0.26 0.20 0.17 0.13 0.11 0.12 0.12 0.14 0.16 0.17 0.22 0.24 0.22 0.19 0.21 0.20 0.16
4.09 1.55 0.26 0.03 0.03 0.07 0.13 0.18 0.20 0.19 0.36 0.55 0.74 1.02 0.73 0.85 1.04 0.71 0.56 0.61 0.43 0.23 0.13 0.23 0.25 0.32 0.37 0.40 0.30 0.27 0.20 0.14 0.09 0.07 0.07 0.06 0.06 0.07 0.07 0.06 0.08 0.12 0.23 0.31

GFSNW_prec_precacc_162.txt.gz
Total_Precipitation_Accumulation
1.65 1.73 2.02 1.54 1.21 1.33 1.47 1.43 2.00 1.86 1.84 3.56 2.32 1.39 1.19 1.15 1.41 1.58 1.16 0.67 0.34 0.28 0.39 0.73 0.73 0.81 0.91 0.50 0.28 0.24 0.32 0.72 0.82 0.64 0.23 0.31 0.83 0.87 0.77 1.44 1.08 1.10 1.07 1.84
1.40 1.63 1.65 1.19 1.41 1.71 2.08 1.71 1.70 2.51 1.40 1.57 0.93 0.90 1.25 1.38 1.48 1.42 1.00 0.63 0.31 0.21 0.24 0.51 0.34 0.41 0.35 0.24 0.15 0.07 0.21 0.61 0.69 0.78 0.56 0.41 0.78 0.75 0.75 0.77 1.18 1.26 1.62 2.17
1.41 1.36 1.12 1.08 1.25 1.52 1.64 1.67 2.03 3.17 2.67 0.71 0.38 0.77 1.18 1.23 1.16 1.11 0.75 0.67 0.36 0.30 0.22 0.12 0.10 0.15 0.23 0.30 0.35 0.19 0.18 0.29 0.53 0.62 0.62 0.65 0.74 0.59 0.70 0.98 1.47 0.93 1.51 1.35
1.83 1.24 0.82 0.79 0.78 1.08 1.01 1.15 1.03 0.91 1.00 0.43 0.24 0.72 1.03 1.22 1.28 0.83 0.79 0.76 0.31 0.25 0.24 0.10 0.08 0.09 0.19 0.28 0.49 0.50 0.41 0.37 0.55 0.59 0.34 0.37 0.78 0.62 0.57 1.02 0.80 1.17 0.92 0.81
2.03 1.34 0.78 0.56 0.63 1.21 1.11 0.88 0.57 0.23 0.13 0.07 0.13 0.48 0.91 1.21 0.79 0.68 0.68 0.53 0.28 0.28 0.20 0.08 0.05 0.10 0.16 0.27 0.36 0.45 0.34 0.35 0.35 0.50 0.45 0.69 0.55 0.33 0.41 0.34 0.39 0.44 0.20 0.47
1.68 1.06 0.89 0.86 1.09 1.71 1.58 0.80 0.47 0.28 0.16 0.12 0.23 0.31 0.68 0.75 0.71 0.63 0.34 0.38 0.35 0.21 0.11 0.08 0.04 0.07 0.05 0.12 0.20 0.17 0.20 0.17 0.29 0.73 0.53 0.57 0.52 0.40 0.25 0.21 0.26 0.17 0.18 0.20
1.41 0.74 0.69 0.60 0.62 1.02 1.29 0.75 0.65 0.38 0.21 0.09 0.14 0.17 0.39 0.60 0.64 0.69 0.44 0.36 0.34 0.15 0.14 0.13 0.06 0.05 0.06 0.05 0.06 0.10 0.15 0.10 0.21 0.50 0.28 0.48 0.32 0.29 0.43 0.25 0.20 0.06 0.06 0.02
0.87 0.52 0.58 0.68 0.65 0.81 0.70 0.57 0.67 0.38 0.26 0.09 0.11 0.12 0.23 0.42 0.49 0.59 0.50 0.33 0.28 0.24 0.35 0.29 0.23 0.25 0.23 0.11 0.05 0.05 0.05 0.11 0.23 0.37 0.44 0.19 0.06 0.12 0.17 0.12 0.07 0.05 0.05 0.01
0.60 0.39 0.32 0.33 0.30 0.35 0.46 0.61 0.64 0.41 0.28 0.12 0.06 0.08 0.13 0.45 0.64 0.72 0.53 0.37 0.20 0.29 0.45 0.32 0.27 0.34 0.17 0.10 0.06 0.04 0.04 0.05 0.29 0.23 0.24 0.08 0.02 0.00 0.00 0.13 0.26 0.04 0.03 0.02
0.60 0.53 0.42 0.35 0.33 0.38 0.38 0.56 0.57 0.51 0.31 0.04 0.05 0.09 0.15 0.36 0.69 0.87 0.61 0.41 0.37 0.41 0.54 0.29 0.06 0.07 0.03 0.04 0.04 0.06 0.16 0.17 0.24 0.21 0.26 0.02 0.00 0.00 0.00 0.05 0.13 0.06 0.03 0.01
0.58 0.60 0.42 0.29 0.26 0.40 0.35 0.30 0.51 0.48 0.30 0.06 0.03 0.06 0.13 0.14 0.43 1.05 0.83 0.57 0.48 0.48 0.54 0.30 0.07 0.01 0.01 0.01 0.00 0.00 0.05 0.08 0.11 0.08 0.08 0.01 0.00 0.00 0.02 0.03 0.00 0.00 0.00 0.01
0.40 0.47 0.36 0.29 0.31 0.48 0.51 0.26 0.32 0.50 0.38 0.10 0.04 0.04 0.06 0.10 0.26 0.71 0.82 0.58 0.46 0.30 0.33 0.15 0.06 0.02 0.01 0.00 0.02 0.00 0.01 0.00 0.00 0.00 0.01 0.00 0.00 0.00 0.00 0.00 0.00 0.00 0.00 0.00
0.45 0.42 0.38 0.34 0.32 0.52 0.65 0.30 0.30 0.46 0.41 0.13 0.05 0.03 0.02 0.02 0.12 0.30 0.78 0.69 0.57 0.43 0.17 0.22 0.11 0.07 0.02 0.02 0.01 0.00 0.00 0.00 0.01 0.00 0.00 0.00 0.00 0.00 0.00 0.01 0.04 0.01 0.00 0.00
0.43 0.43 0.43 0.33 0.32 0.49 0.66 0.27 0.31 0.43 0.38 0.20 0.04 0.02 0.04 0.04 0.15 0.29 0.51 0.73 0.52 0.46 0.27 0.42 0.33 0.16 0.03 0.02 0.01 0.00 0.00 0.01 0.01 0.02 0.00 0.00 0.00 0.00 0.00 0.07 0.06 0.00 0.00 0.00
0.48 0.48 0.43 0.32 0.38 0.59 0.52 0.20 0.42 0.34 0.49 0.54 0.10 0.03 0.04 0.02 0.16 0.34 0.51 0.77 0.58 0.51 0.49 0.36 0.28 0.20 0.10 0.03 0.00 0.01 0.02 0.02 0.00 0.03 0.00 0.00 0.00 0.00 0.05 0.04 0.03 0.02 0.00 0.03
0.46 0.48 0.46 0.42 0.59 1.06 0.72 0.55 0.43 0.46 0.51 1.08 0.32 0.04 0.03 0.02 0.21 0.45 0.53 0.55 0.51 0.56 0.55 0.37 0.18 0.12 0.16 0.18 0.05 0.01 0.00 0.00 0.00 0.00 0.00 0.00 0.00 0.00 0.00 0.03 0.02 0.02 0.01 0.02
0.67 0.70 0.73 0.72 1.01 0.94 0.77 0.39 0.46 0.43 0.73 0.85 0.39 0.16 0.06 0.06 0.26 0.53 0.66 0.45 0.49 0.68 0.76 0.44 0.18 0.16 0.28 0.22 0.03 0.01 0.00 0.00 0.00 0.00 0.00 0.00 0.00 0.00 0.00 0.00 0.01 0.04 0.05 0.04
1.08 1.21 1.27 1.44 1.64 1.41 0.69 0.17 0.43 0.67 0.95 0.86 0.70 0.24 0.11 0.16 0.54 0.67 0.64 0.63 0.55 0.70 0.58 0.35 0.18 0.19 0.33 0.26 0.01 0.00 0.00 0.00 0.00 0.00 0.00 0.00 0.00 0.00 0.01 0.04 0.09 0.10 0.06 0.02
1.70 1.88 1.94 2.03 1.40 0.57 0.32 0.41 0.94 0.86 1.20 1.40 0.73 0.31 0.28 0.23 0.57 0.58 0.72 0.66 0.76 0.55 0.37 0.25 0.37 0.29 0.18 0.03 0.00 0.00 0.00 0.00 0.00 0.00 0.00 0.00 0.00 0.02 0.07 0.12 0.09 0.03 0.01 0.00
2.50 2.23 1.81 1.50 0.73 0.70 0.97 1.38 1.77 2.19 1.52 0.96 0.68 0.16 0.32 0.29 0.49 0.53 0.75 0.80 0.74 0.57 0.30 0.32 0.42 0.26 0.09 0.02 0.00 0.00 0.00 0.00 0.00 0.00 0.00 0.01 0.04 0.07 0.05 0.02 0.00 0.00 0.00 0.00
2.85 2.34 1.75 1.51 1.51 1.61 1.72 1.69 1.45 0.97 0.82 0.45 0.23 0.15 0.32 0.27 0.60 0.70 0.61 1.04 0.68 0.60 0.38 0.63 0.52 0.33 0.09 0.00 0.00 0.00 0.00 0.00 0.00 0.00 0.00 0.00 0.01 0.00 0.00 0.00 0.00 0.00 0.00 0.00
1.86 1.58 2.08 2.34 2.32 2.24 1.73 1.27 0.69 0.56 0.20 0.23 0.30 0.27 0.28 0.34 0.48 0.83 1.05 0.79 0.92 0.51 0.40 0.71 0.40 0.14 0.02 0.01 0.01 0.00 0.00 0.00 0.00 0.00 0.00 0.00 0.00 0.00 0.00 0.01 0.00 0.00 0.00 0.00
2.84 3.97 4.11 2.97 2.45 1.71 1.09 0.70 0.73 0.57 0.39 0.43 0.44 0.41 0.29 0.46 0.72 0.92 1.13 1.00 0.56 0.33 0.48 0.27 0.08 0.04 0.02 0.02 0.03 0.03 0.05 0.01 0.01 0.01 0.01 0.01 0.01 0.03 0.03 0.04 0.02 0.01 0.01 0.02
5.17 5.12 4.19 1.96 1.34 0.35 0.39 0.37 0.38 0.45 0.47 0.46 0.48 0.60 0.58 0.58 0.90 0.96 0.84 0.67 0.61 0.50 0.21 0.11 0.09 0.05 0.02 0.03 0.07 0.07 0.13 0.23 0.23 0.16 0.09 0.07 0.06 0.07 0.08 0.08 0.07 0.04 0.03 0.04
5.13 3.74 1.95 0.74 0.15 0.08 0.18 0.24 0.24 0.31 0.37 0.41 0.58 0.75 0.77 0.92 1.24 0.92 0.73 0.85 0.48 0.16 0.14 0.26 0.18 0.14 0.11 0.15 0.18 0.19 0.20 0.34 0.46 0.50 0.45 0.43 0.36 0.33 0.26 0.16 0.12 0.12 0.07 0.05
4.58 2.92 1.08 0.20 0.04 0.07 0.13 0.20 0.25 0.33 0.42 0.48 0.65 0.82 1.08 1.02 0.84 0.84 0.57 0.52 0.37 0.32 0.37 0.38 0.29 0.30 0.28 0.26 0.20 0.17 0.13 0.11 0.12 0.12 0.14 0.16 0.17 0.22 0.24 0.22 0.19 0.21 0.20 0.16
4.32 1.57 0.26 0.03 0.03 0.07 0.13 0.18 0.20 0.19 0.41 0.60 0.79 1.15 0.81 0.94 1.15 0.76 0.56 0.61 0.43 0.23 0.13 0.23 0.25 0.32 0.38 0.40 0.30 0.27 0.20 0.14 0.09 0.07 0.07 0.06 0.06 0.07 0.07 0.06 0.08 0.12 0.23 0.31